     2              OBSERVATION DATA    GPS                 RINEX VERSION / TYPE
teqc 2002Apr3 20040913 17:08:46UTC                          PGM / RUN BY / DATE
                                                            COMMENT
L2: 1 -> 1; 5 -> 5; 60 -> 9                                 COMMENT
L2: 1 -> 1; 5 -> 5; 60 -> 9                                 COMMENT
L2: 1 -> 1; 5 -> 5; 60 -> 9                                 COMMENT
L2: 1 -> 1; 5 -> 5; 60 -> 9                                 COMMENT
Original Marker Name: SMX1                                  COMMENT
Campaign Name: NGS Airport Survey 1993                      COMMENT
4-Character Station Name: SMX1                              COMMENT
6-Character Antenna Code: TRMSST                            COMMENT
Vertical Measurement Point: TGP                             COMMENT
Vertical Offset to Rinex Ref. Point: 0.0629                 COMMENT
Radial Measurement Point: NGP                               COMMENT
Radial Offset to Rinex Ref. Point: 0.2334                   COMMENT
Antenna Height from Field Measurement: 1.8850 m             COMMENT
Additional Antenna Identification Info.:                    COMMENT
Model 14532.00                                              COMMENT
Original XYZ: -2654571.6513 -4514208.3646 3628726.0806      COMMENT
New XYZ position is based on association with SCEC monument COMMENT
E1E9N4X1+0011. Position of that monument is believed to be  COMMENT
valid to within 1 m horizontally; vertical accuracy         COMMENT
should be no worse than 3-times this value.                 COMMENT
                                                            COMMENT
Revised Rinex header created by UCSD GPS archive for        COMMENT
GSAC on 22-Mar-2005 (2005:081) 16:44:08 GMT                 COMMENT
For assistance contact dagnew@ucsd.edu                      COMMENT
or anderson@python.ucsd.edu                                 COMMENT
                                                            COMMENT
SMX 1107                                                    MARKER NAME
SMX1                                                        MARKER NUMBER
-Unknown- NGS                                               OBSERVER / AGENCY
2236 TRIMBLE 4000 SST NP 4.80 / SP 1.15                     REC # / TYPE / VERS
454 TR 4000SST L1/L2 GEO                                    ANT # / TYPE
 -2654564.0000 -4514194.0000  3628724.0000                  APPROX POSITION XYZ
        1.8076        0.0000        0.0000                  ANTENNA: DELTA H/E/N
     1     1     0                                          WAVELENGTH FACT L1/2
     5    C1    L1    L2    S1    S2                        # / TYPES OF OBSERV
     0                                                      INTERVAL
  1993     3    20    18    51   15.000000                  TIME OF FIRST OBS
  1993     3    21     0    40    0.000000                  TIME OF LAST OBS
                                                            END OF HEADER
 93  3 20 18 51 15.0000000  0  4G29G14G19G27
  20853794.195          -0.20917        -0.32816        24.000          17.750
  22540514.313          -0.83516        -0.55315        14.250          10.500
  21365675.234          -0.41016        -0.09116        18.000          14.250
  24189023.336          -0.78114        -0.87615         7.250           5.500
 93  3 20 18 51 30.0000000  0  4G29G14G19G27
  20857850.375       21316.405 7     16610.009 6        24.250          17.750
  22552047.906       60579.988 6     47205.203 5        14.250          10.750
  21363356.383      -12222.954 6     -9524.133 6        17.750          14.250
  24182995.727      -31704.792 5    -24705.225 5         7.500           5.500
 93  3 20 18 51 45.0000000  0  5G29G14G19G27G18
  20861877.938       42481.094 7     33101.969 6        24.250          17.750
  22563536.711      120978.803 6     94269.143 5        14.000          10.500
  21360994.430      -24616.781 6    -19181.648 6        18.000          14.000
  24176925.750      -63620.113 5    -49574.263 5         7.750           5.500
  20515280.188          -0.42817                        27.250
 93  3 20 18 52  0.0000000  0  5G29G14G19G27G18
  20865883.148       63527.630 7     49501.859 6        24.250          17.750
  22575005.625      181229.579 6    141217.722 5        14.000          10.500
  21358611.797      -37151.093 6    -28948.633 6        17.500          14.000
  24170812.758      -95717.587 5    -74585.210 5         7.500           5.750
  20513714.039       -8231.052 7                        27.000
 93  3 20 18 52 15.0000000  0  6G29G14G19G27G18G28
  20869870.078       84479.713 7     65828.135 6        24.250          17.750
  22586446.367      241357.233 6    188070.363 5        14.000          10.250
  21356199.219      -49802.057 6    -38806.514 6        17.500          14.000
  24164679.031     -127970.428 5    -99717.242 5         7.500           5.750
  20512125.211      -16575.304 7        -0.88416        27.500          19.000
  24330555.477          -0.45214                         7.250
 93  3 20 18 52 30.0000000  0  6G29G14G19G27G18G28
  20873841.578      105353.516 7     82093.425 6        24.250          17.500
  22597869.180      301378.310 6    234839.953 5        13.750          10.250
  21353770.289      -62552.437 6    -48741.830 6        18.000          15.500
  24158514.750     -160358.865 5   -124954.933 5         7.750           5.750
  20510518.914      -25014.795 7     -6577.115 6        27.500          19.000
  24326718.359      -20158.176 4                         7.250
 93  3 20 18 52 45.0000000  0  6G29G14G19G27G18G28
  20877802.766      126161.646 7     98307.535 6        24.500          17.500
  22609271.961      361308.042 6    281538.364 5        13.500          10.250
  21351333.125      -75387.432 6    -58743.118 6        17.750          15.500
  24152328.844     -192867.638 5   -150286.394 5         8.000           5.750
  20508898.070      -33532.169 7    -13214.026 6        27.500          19.000
  24322868.180      -40399.380 5                         7.500
 93  3 20 18 53  0.0000000  0  6G29G14G19G27G18G28
  20881749.688      146914.156 7    114478.311 6        24.500          17.750
  22620660.406      421158.114 6    328174.705 5        13.500          10.000
  21348886.672      -88292.391 6    -68798.923 6        16.750          15.500
  24146123.813     -225483.460 5   -175701.268 5         8.000           5.750
  20507266.070      -42114.306 7    -19901.405 6        27.750          19.000
  24319003.664      -60709.053 4        -0.88715         7.250           5.750
 93  3 20 18 53 15.0000000  0  6G29G14G19G27G18G28
  20885692.922      167620.904 7    130613.423 6        24.500          17.500
  22632033.922      480935.857 6    374754.686 5        13.500          10.000
  21346408.922     -101259.119 6    -78902.854 6        17.500          15.500
  24139901.773     -258198.579 5   -201193.522 5         8.250           5.750
  20505623.320      -50751.793 7    -26631.913 6        27.500          19.000
  24315126.094      -81076.485 4    -15871.563 5         7.250           5.750
 93  3 20 18 53 30.0000000  0  6G29G14G19G27G18G28
  20889625.258      188290.381 7    146719.497 6        24.500          17.750
  22643398.266      540648.228 6    421283.723 5        13.500          10.000
  21343924.453     -114281.788 6    -89050.381 6        18.250          15.500
  24133656.453     -291004.974 5   -226756.887 5         8.250           5.750
  20503969.891      -59432.771 7    -33396.314 6        27.500          18.750
  24311245.367     -101492.793 4    -31780.304 5         7.000           5.750
 93  3 20 18 53 45.0000000  0  6G29G14G19G27G18G28
  20893553.195      208930.748 7    162802.886 6        24.250          17.750
  22654751.609      600304.392 6    467768.966 5        13.750          10.000
  21341441.945     -127353.849 6    -99236.395 6        17.750          15.750
  24127401.398     -323891.101 5   -252382.402 5         8.000           5.750
  20502313.016      -68145.950 7    -40185.803 6        27.500          18.750
  24307353.367     -121948.885 4    -47720.063 5         7.250           5.750
 93  3 20 18 54  0.0000000  0  6G29G14G19G27G18G28
  20897476.836      229553.533 7    178872.574 6        24.000          17.750
  22666094.234      659916.533 6    514219.910 5        13.500           9.750
  21338956.141     -140468.084 6   -109455.270 6        17.250          15.750
  24121124.641     -356849.242 5   -278064.025 5         8.000           5.750
  20500649.844      -76883.964 7    -46994.649 6        27.750          18.750
  24303446.320     -142436.268 4    -63684.183 5         7.000           5.750
 93  3 20 18 54 15.0000000  0  6G29G14G19G27G18G28
  20901401.578      250170.721 7    194937.899 6        24.000          17.750
  22677433.039      719495.272 6    560644.813 5        13.500           9.500
  21336445.734     -153613.360 6   -119698.330 6        17.750          15.750
  24114840.328     -389868.762 5   -303793.470 5         8.000           5.750
  20498984.070      -85634.334 7    -53813.118 6        27.750          18.750
  24299549.492     -162943.261 4    -79663.595 5         7.250           6.000
 93  3 20 18 54 30.0000000  0  6G29G14G19G27G18G28
  20905323.891      270787.374 7    211002.811 6        24.000          17.500
  22688766.852      779043.750 6    607046.140 5        13.750           9.500
  21333955.797     -166780.768 6   -129958.639 6        16.750          16.000
  24108542.766     -422943.768 5   -329566.162 5         8.000           5.750
  20497318.594      -94388.814 8    -60634.793 6        28.000          18.750
  24295647.547     -183461.652 5    -95651.874 5         7.500           6.000
 93  3 20 18 54 45.0000000  0  6G29G14G19G27G18G28
  20909247.508      291403.078 7    227066.981 6        24.000          17.750
  22700093.039      838560.325 6    653422.611 5        13.500           9.500
  21331431.078     -179971.062 6   -140236.784 6        17.750          16.000
  24102245.148     -456078.215 5   -355385.180 5         8.250           5.750
  20495652.203     -103148.759 7    -67460.724 6        27.750          18.500
  24291736.523     -203992.772 4   -111650.070 5         7.250           5.750
 93  3 20 18 55  0.0000000  0  6G29G14G19G27G18G28
  20913170.047      312018.937 7    243131.273 6        24.000          17.750
  22711408.102      898046.200 6    699775.165 5        13.250           9.500
  21328913.586     -193183.707 6   -150532.340 6        18.250          16.250
  24095930.094     -489272.706 5   -381250.975 5         8.500           6.000
  20493983.297     -111917.562 7    -74293.563 6        27.750          18.500
  24287831.508     -224535.746 4   -127657.517 5         7.000           5.750
 93  3 20 18 55 15.0000000  0  6G29G14G19G27G18G28
  20917093.664      332640.402 7    259199.933 6        24.000          17.750
  22722724.844      957506.933 6    746108.114 5        13.250           9.500
  21326394.445     -206416.046 6   -160843.246 6        18.000          16.000
  24089602.820     -522524.265 5   -407161.244 5         8.250           5.750
  20492314.867     -120691.928 7    -81130.729 6        27.750          18.500
  24283916.688     -245089.685 4   -143673.506 5         7.250           5.750
 93  3 20 18 55 30.0000000  0  6G29G14G19G27G18G28
  20921020.211      353277.093 7    275280.461 6        24.250          17.500
  22734037.117     1016952.812 6    792429.496 5        13.250           9.500
  21323885.914     -219660.996 6   -171163.978 6        17.250          16.250
  24083262.695     -555820.850 5   -433106.592 5         8.500           5.750
  20490643.852     -129461.419 7    -87964.106 6        27.750          18.500
  24280005.258     -265645.068 4   -159690.610 5         7.250           6.000
 93  3 20 18 55 45.0000000  0  6G29G14G19G27G18G28
  20924951.055      373927.735 7    291371.853 6        24.000          17.750
  22745347.039     1076384.312 6    838739.671 5        13.000           9.250
  21321354.953     -232919.249 6   -181495.077 6        18.250          16.250
  24076920.609     -589159.819 5   -459084.967 5         8.500           6.000
  20488977.578     -138224.778 7    -94792.694 6        27.750          18.500
  24276094.031     -286199.877 4   -175707.255 5         7.250           6.000
 93  3 20 18 56  0.0000000  0  6G29G14G19G27G18G28
  20928881.945      394594.281 7    307475.642 6        24.250          17.500
  22756654.773     1135803.106 6    885039.940 5        13.000           9.500
  21318826.078     -246187.650 6   -191834.078 6        18.750          16.250
  24070565.461     -622540.273 5   -485095.683 5         8.500           6.250
  20487310.750     -146982.161 7   -101616.631 6        27.750          18.500
  24272182.156     -306753.992 4   -191723.382 5         7.250           6.000
 93  3 20 18 56 15.0000000  0  6G29G14G19G27G18G28
  20932820.883      415284.488 7    323597.859 6        24.500          17.500
  22767959.094     1195216.854 6    931336.278 5        13.000           9.500
  21316303.852     -259454.367 6   -202171.773 6        18.500          16.250
  24064207.508     -655954.417 5   -511132.625 5         8.250           6.250
  20485647.055     -155724.728 7   -108429.025 6        27.750          18.250
  24268273.211     -327298.703 4   -207732.160 5         7.250           6.000
 93  3 20 18 56 30.0000000  0  6G29G14G19G27G18G28
  20936761.789      435998.426 7    339738.584 6        24.250          17.500
  22779266.156     1254625.906 6    977628.964 5        13.250           9.500
  21313787.703     -272717.045 6   -212506.315 6        18.000          16.250
  24057847.609     -689397.271 5   -537191.960 5         8.500           6.500
  20483985.602     -164447.099 7   -115225.682 6        27.750          18.250
  24264362.164     -347829.882 4   -223730.397 5         7.250           6.000
 93  3 20 18 56 45.0000000  0  6G29G14G19G27G18G28
  20940708.930      456731.775 7    355894.425 6        24.250          17.500
  22790566.953     1314025.953 6   1023914.622 5        13.000           9.500
  21311255.695     -285980.613 6   -222841.557 6        18.500          16.000
  24051475.766     -722872.303 5   -563276.368 5         8.750           6.500
  20482330.594     -173151.881 7   -122008.628 6        27.750          18.250
  24260462.938     -368352.327 4   -239721.827 5         7.250           6.000
 93  3 20 18 57  0.0000000  0  6G29G14G19G27G18G28
  20944655.555      477485.716 7    372066.317 6        24.250          17.500
  22801873.016     1373418.693 6   1070194.595 5        13.500           9.500
  21308731.063     -299247.772 6   -233179.597 6        18.750          16.250
  24045096.109     -756377.192 5   -589384.035 5         8.500           6.500
  20480677.242     -181840.715 7   -128779.157 6        27.250          18.250
  24256556.625     -388864.554 4   -255705.299 5         7.000           6.000
 93  3 20 18 57 15.0000000  0  6G29G14G19G27G18G28
  20948615.344      498279.218 7    388269.031 6        24.500          17.500
  22813180.008     1432821.654 6   1116482.532 5        13.500           9.500
  21306212.203     -312500.134 6   -243506.101 6        18.250          16.000
  24038717.438     -789892.361 5   -615499.713 5         8.500           6.500
  20479030.484     -190490.327 7   -135519.113 6        27.250          18.250
  24252661.055     -409345.060 4   -271664.047 5         7.000           6.000
 93  3 20 18 57 30.0000000  0  6G29G14G19G27G18G28
  20952577.906      519104.526 7    404496.535 6        24.500          17.500
  22824482.641     1492226.264 6   1162771.758 5        13.500           9.250
  21303687.961     -325745.124 6   -253826.867 6        18.750          16.000
  24032337.070     -823424.519 5   -641628.624 5         8.250           6.500
  20477391.375     -199105.828 7   -142232.491 6        27.250          18.000
  24248774.766     -429799.462 4   -287602.478 5         7.250           6.000
 93  3 20 18 57 45.0000000  0  6G29G14G19G27G18G28
  20956544.391      539954.356 7    420743.138 6        24.500          17.500
  22835783.938     1551624.115 6   1209055.710 5        13.500           9.500
  21301170.422     -338987.678 6   -264145.732 6        18.000          16.000
  24025958.164     -856979.150 5   -667775.053 5         8.750           6.500
  20475758.547     -207692.302 7   -148923.253 6        27.250          18.250
  24244883.203     -450229.421 5   -303521.833 5         7.500           6.000
 93  3 20 18 58  0.0000000  0  6G29G14G19G27G18G28
  20960517.125      560827.570 7    437007.968 6        24.500          17.500
  22847084.992     1611010.730 6   1255330.906 5        13.250           9.500
  21298648.906     -352225.990 6   -274461.288 6        18.500          15.750
  24019568.789     -890562.176 5   -693943.604 5         8.500           6.500
  20474128.031     -216254.623 7   -155595.194 6        27.500          18.250
  24240991.844     -470640.880 4   -319426.797 5         7.250           6.000
 93  3 20 18 58 15.0000000  0  6G29G14G19G27G18G28
  20964493.773      581726.434 7    453292.780 6        24.750          17.500
  22858382.406     1670390.789 6   1301600.989 5        13.250           9.500
  21296132.484     -365453.253 6   -284768.239 6        18.250          16.250
  24013165.922     -924169.873 5   -720131.393 5         8.250           6.500
  20472505.430     -224789.157 7   -162245.478 6        27.500          18.000
  24237120.695     -491029.495 5   -335313.954 5         7.500           6.000
 93  3 20 18 58 30.0000000  0  6G29G14G19G27G18G28
  20968475.672      602657.280 7    469602.516 6        24.750          17.500
  22869685.492     1729769.708 6   1347870.195 5        13.250           9.500
  21293617.969     -378664.343 6   -295062.584 6        18.750          16.250
  24006770.602     -957795.551 5   -746333.169 5         8.500           6.500
  20470888.156     -233287.757 7   -168867.769 6        27.250          18.000
  24233241.867     -511387.435 5   -351177.210 5         7.500           6.000
 93  3 20 18 58 45.0000000  0  6G29G14G19G27G18G28
  20972465.195      623620.179 7    485937.230 6        24.750          17.500
  22880982.633     1789145.572 6   1394137.008 5        13.000           9.500
  21291109.961     -391860.185 6   -305345.053 6        18.750          16.250
  24000366.250     -991437.107 5   -772547.337 5         8.500           6.500
  20469276.617     -241751.401 7   -175462.815 6        27.250          18.000
  24229375.773     -531714.807 5   -367016.666 5         7.500           6.000
 93  3 20 18 59  0.0000000  0  6G29G14G19G27G18G28
  20976464.016      644623.697 7    502303.588 6        24.750          17.500
  22892280.758     1848528.137 6   1440409.040 5        13.000           9.500
  21288600.359     -405029.463 6   -315606.819 6        19.250          16.500
  23993962.352    -1025087.011 5   -798767.999 5         8.250           6.500
  20467674.500     -250175.057 7   -182026.711 6        27.000          17.750
  24225512.234     -552003.112 5   -382825.656 5         7.500           6.000
 93  3 20 18 59 15.0000000  0  6G29G14G19G27G18G28
  20980469.445      665677.309 7    518708.984 6        24.750          17.500
  22903586.195     1907924.957 6   1486692.192 5        13.000           9.500
  21286105.773     -418161.612 6   -325839.648 6        19.000          16.500
  23987555.461    -1058738.039 5   -824989.536 5         8.250           6.250
  20466080.867     -258551.258 7   -188553.616 6        27.250          17.750
  24221659.500     -572244.174 5   -398597.843 5         7.500           6.000
 93  3 20 18 59 30.0000000  0  6G29G14G19G27G18G28
  20984484.961      686770.603 7    535145.298 6        24.750          17.750
  22914890.586     1967324.531 6   1532977.480 5        13.250           9.250
  21283607.383     -431263.570 6   -336048.958 6        19.000          16.500
  23981155.172    -1092400.945 5   -851220.328 5         8.000           6.250
  20464493.320     -266889.640 7   -195051.057 6        27.250          17.750
  24217815.883     -592450.409 5   -414342.883 5         7.500           6.000
 93  3 20 18 59 45.0000000  0  6G29G14G19G27G18G28
  20988504.430      707906.258 7    551614.624 6        24.750          17.500
  22926193.422     2026731.542 6   1579268.571 5        13.000           9.250
  21281123.156     -444332.139 6   -346232.249 6        18.750          16.500
  23974743.406    -1126072.122 5   -877457.563 5         8.000           6.250
  20462915.141     -275188.095 7   -201517.388 6        27.250          17.750
  24213979.789     -612619.114 5   -430058.711 5         7.500           6.000
 93  3 20 19  0  0.0000000  0  6G29G14G19G27G18G28
  20992534.281      729079.863 7    568113.522 6        24.500          17.750
  22937500.852     2086141.330 6   1625561.819 5        13.000           9.250
  21278639.320     -457373.741 6   -356394.526 6        19.000          16.500
  23968334.438    -1159757.599 5   -903705.956 5         8.000           6.250
  20461342.383     -283452.572 7   -207957.244 6        27.250          17.750
  24210143.055     -632757.348 5   -445750.768 5         7.500           6.250
 93  3 20 19  0 15.0000000  0  6G29G14G19G27G18G28
  20996570.789      750294.120 7    584644.097 6        24.750          17.750
  22948808.672     2145556.528 6   1671859.285 5        13.000           9.250
  21276166.695     -470389.097 6   -366536.347 6        18.750          16.500
  23961931.773    -1193455.058 5   -929963.659 5         8.250           6.250
  20459775.414     -291682.158 7   -214369.904 6        27.250          17.750
  24206323.836     -652862.965 5   -461417.423 5         7.750           6.000
 93  3 20 19  0 30.0000000  0  6G29G14G19G27G18G28
  21000618.000      771555.489 7    601211.375 6        24.750          17.750
  22960116.508     2204983.713 6   1718166.094 5        13.000           9.250
  21273702.750     -483375.176 6   -376655.361 6        18.250          16.500
  23955512.813    -1227155.383 5   -956223.629 5         8.250           6.000
  20458217.383     -299868.089 7   -220748.552 6        27.250          17.750
  24202502.148     -672925.293 5   -477050.343 5         7.500           6.250
 93  3 20 19  0 45.0000000  0  6G29G14G19G27G18G28
  21004674.172      792869.371 7    617819.583 6        24.750          17.750
  22971424.992     2264426.473 6   1764485.037 5        12.750           9.250
  21271226.008     -496328.924 6   -386749.182 6        18.750          16.500
  23949095.680    -1260854.372 5   -982482.540 5         8.250           6.250
  20456668.344     -308009.040 7   -227092.150 6        27.250          17.750
  24198691.891     -692940.510 5   -492646.548 5         7.500           6.250
 93  3 20 19  1  0.0000000  0  6G29G14G19G27G18G28
  21008738.438      814236.308 7    634469.128 6        24.500          17.750
  22982740.656     2323885.613 6   1810816.741 5        12.500           9.000
  21268768.898     -509251.269 6   -396818.526 6        19.000          16.500
  23942681.102    -1294554.611 5  -1008742.421 5         8.500           6.250
  20455127.484     -316107.994 7   -233403.024 6        27.000          17.750
  24194898.078     -712908.126 5   -508205.684 5         7.750           6.250
 93  3 20 19  1 15.0000000  0  6G29G14G19G27G18G28
  21012813.266      835655.807 7    651159.631 6        24.500          17.750
  22994060.570     2383362.068 6   1857161.936 5        12.500           9.000
  21266318.133     -522145.376 6   -406865.874 6        18.750          16.500
  23936278.055    -1328259.549 5  -1035005.982 5         8.750           6.250
  20453595.430     -324165.940 7   -239681.942 6        27.250          18.000
  24191101.086     -732827.831 5   -523727.455 5         7.500           6.250
 93  3 20 19  1 30.0000000  0  6G29G14G19G27G18G28
  21016902.914      857132.923 7    667895.029 6        24.500          17.750
  23005380.391     2442860.322 6   1903524.118 5        12.250           8.750
  21263862.398     -535008.837 6   -416889.337 6        19.250          16.500
  23929860.758    -1361961.003 5  -1061266.797 5         9.000           6.250
  20452072.180     -332172.510 7   -245920.824 6        27.000          18.000
  24187322.867     -752692.902 5   -539206.679 5         7.750           6.250
 93  3 20 19  1 45.0000000  0  6G29G14G19G27G18G28
  21020999.219      878659.807 7    684669.207 6        24.750          17.500
  23016704.289     2502374.967 6   1949899.084 5        12.250           8.750
  21261424.773     -547851.628 6   -426896.694 6        18.500          16.500
  23923443.234    -1395664.627 5  -1087529.317 5         9.000           6.250
  20450557.180     -340133.609 7   -252124.280 6        27.000          18.000
  24183552.766     -772508.687 5   -554647.493 5         7.750           6.250
 93  3 20 19  2  0.0000000  0  6G29G14G19G27G18G28
  21025105.875      900238.109 7    701483.448 6        24.500          17.250
  23028036.297     2561906.269 6   1996287.021 5        12.250           8.750
  21258991.547     -560673.740 6   -436887.942 6        18.250          16.250
  23917031.742    -1429369.787 5  -1113793.051 5         9.250           6.250
  20449050.578     -348045.747 7   -258289.581 6        27.000          18.000
  24179790.805     -792272.567 5   -570047.861 5         8.000           6.250
 93  3 20 19  2 15.0000000  0  6G29G14G19G27G18G28
  21029221.797      921874.989 7    718343.337 6        24.250          17.500
  23039368.992     2621458.591 6   2042691.328 5        12.000           8.750
  21256550.422     -573467.601 6   -446857.179 6        18.750          16.250
  23910617.766    -1463070.998 5  -1140053.696 5         9.250           6.250
  20447555.383     -355903.016 7   -264412.130 6        27.250          17.750
  24176041.008     -811979.436 5   -585403.798 5         8.000           6.250
 93  3 20 19  2 30.0000000  0  6G29G14G19G27G18G28
  21033351.414      943578.472 7    735255.121 6        24.500          17.250
  23050706.063     2681039.472 6   2089117.892 5        12.000           8.750
  21254132.625     -586220.613 6   -456794.581 6        18.250          16.250
  23904208.383    -1496757.820 5  -1166303.141 5         9.250           6.500
  20446070.891     -363694.459 7   -270483.384 6        27.250          17.750
  24172308.102     -831618.388 5   -600706.827 5         8.000           6.250
 93  3 20 19  2 45.0000000  0  6G29G14G19G27G18G28
  21037493.727      965340.397 7    752212.454 6        24.500          17.250
  23062047.969     2740639.152 5   2135559.111 5        11.750           8.750
  21251703.008     -598942.131 6   -466707.438 6        18.750          16.250
  23897798.102    -1530441.643 5  -1192550.222 5         9.500           6.500
  20444600.461     -371429.639 7   -276510.800 6        27.000          17.750
  24168575.344     -851201.676 5   -615966.480 5         7.750           6.250
 93  3 20 19  3  0.0000000  0  6G29G14G19G27G18G28
  21041646.531      987157.963 7    769213.131 6        24.500          17.250
  23073391.391     2800253.075 5   2182011.413 5        11.500           8.750
  21249294.195     -611635.799 6   -476598.604 6        18.500          16.250
  23891388.422    -1564128.190 5  -1218799.447 5         9.250           6.500
  20443137.188     -379108.241 7   -282494.120 6        27.250          17.750
  24164863.000     -870733.165 5   -631185.766 5         7.750           6.250
 93  3 20 19  3 15.0000000  0  6G29G14G19G27G18G28
  21045807.844     1009024.409 7    786251.901 6        24.500          17.250
  23084735.086     2859874.837 5   2228469.835 5        11.000           8.500
  21246877.563     -624308.632 6   -486473.530 6        19.250          16.250
  23884977.305    -1597823.032 5  -1245055.124 5         9.250           6.500
  20441686.953     -386733.165 7   -288435.623 6        27.250          17.750
  24161148.352     -890220.334 5   -646370.516 5         7.500           6.250
 93  3 20 19  3 30.0000000  0  6G29G14G19G27G18G28
  21049979.555     1030948.436 7    803335.538 6        24.250          17.000
  23096086.859     2919510.982 5   2274939.458 5        11.250           8.500
  21244462.469     -636949.359 7   -496323.439 6        20.250          16.250
  23878564.328    -1631511.831 5  -1271306.108 5         9.250           6.500
  20440249.242     -394292.168 7   -294325.760 6        27.250          18.000
  24157452.195     -909655.380 5   -661514.639 5         7.750           6.250
 93  3 20 19  3 45.0000000  0  6G29G14G19G27G18G28
  21054161.445     1052929.729 7    820463.801 6        24.250          17.000
  23107431.148     2979158.632 5   2321418.041 5        11.000           8.500
  21242069.250     -649557.145 6   -506147.679 6        19.250          16.250
  23872154.992    -1665196.534 5  -1297553.878 5         9.000           6.500
  20438822.922     -401787.176 7   -300166.027 6        27.250          17.750
  24153766.109     -929042.610 5   -676621.516 5         8.000           6.250
 93  3 20 19  4  0.0000000  0  6G29G14G19G27G18G28
  21058357.578     1074979.189 7    837645.184 6        24.250          17.000
  23118793.797     3038827.042 5   2367912.814 5        11.250           8.500
  21239684.836     -662120.892 6   -515937.606 6        19.000          16.500
  23865746.523    -1698869.734 5  -1323792.711 5         9.250           6.250
  20437409.773     -409209.966 7   -305950.024 6        27.500          17.500
  24150086.164     -948372.578 5   -691683.765 5         8.000           6.250
 93  3 20 19  4 15.0000000  0  6G29G14G19G27G18G28
  21062567.070     1097097.879 7    854880.513 6        24.250          17.000
  23130146.805     3098513.088 5   2414421.311 5        11.000           8.500
  21237297.180     -674641.143 6   -525693.638 6        19.250          16.500
  23859339.172    -1732532.843 5  -1350023.651 5         9.500           6.500
  20436012.008     -416562.808 7   -311679.512 6        27.500          17.750
  24146418.227     -967647.149 5   -706702.847 5         8.000           6.250
 93  3 20 19  4 30.0000000  0  6G29G14G19G27G18G28
  21066790.508     1119295.117 7    872177.042 6        24.250          17.250
  23141513.914     3158224.369 5   2460949.486 5        11.000           8.500
  21234934.422     -687111.953 6   -535411.144 6        18.500          16.500
  23852938.570    -1766177.161 5  -1376239.976 5         9.500           6.500
  20434627.438     -423839.416 7   -317349.600 6        27.500          17.500
  24142758.500     -986857.312 5   -721671.729 5         7.750           6.250
 93  3 20 19  4 45.0000000  0  6G29G14G19G27G18G28
  21071027.133     1141554.981 7    889522.370 6        24.500          17.000
  23152874.875     3217945.007 5   2507484.952 5        10.750           8.500
  21232559.195     -699550.773 6   -545103.728 6        19.250          16.500
  23846541.328    -1799819.708 5  -1402454.902 5         9.500           6.500
  20433253.047     -431055.261 7   -322972.341 6        27.500          17.500
  24139114.305    -1006018.174 5   -736602.208 5         7.750           6.000
 93  3 20 19  5  0.0000000  0  6G29G14G19G27G18G28
  21075276.547     1163889.887 7    906926.181 6        24.250          17.000
  23164243.586     3277687.860 5   2554037.720 5        11.000           8.500
  21230194.359     -711945.621 6   -554762.041 6        19.500          16.500
  23840136.586    -1833449.263 5  -1428659.708 5         9.250           6.250
  20431895.211     -438197.293 7   -328537.565 6        27.250          17.500
  24135484.023    -1025117.675 5   -751484.871 5         8.000           6.000
 93  3 20 19  5 15.0000000  0  6G29G14G19G27G18G28
  21079539.914     1186294.918 7    924384.626 6        24.250          17.000
  23175616.180     3337450.594 5   2600605.982 5        11.000           8.500
  21227851.313     -724296.148 6   -564385.821 6        19.250          16.500
  23833742.656    -1867065.265 5  -1454853.951 5         9.500           6.250
  20430548.898     -445269.459 7   -334048.347 6        27.500          17.500
  24131860.859    -1044155.277 5   -766319.293 5         8.000           6.000
 93  3 20 19  5 30.0000000  0  6G29G14G19G27G18G28
  21083817.492     1208774.779 7    941901.384 6        24.000          16.750
  23186993.234     3397236.415 5   2647192.230 5        11.000           8.250
  21225502.820     -736595.874 7   -573970.020 6        20.000          16.250
  23827342.188    -1900663.311 5  -1481034.200 5         9.500           6.500
  20429217.586     -452271.865 7   -339504.770 6        27.500          17.500
  24128255.719    -1063125.524 5   -781101.237 5         8.000           6.000
 93  3 20 19  5 45.0000000  0  6G29G14G19G27G18G28
  21088109.734     1231331.289 7    959477.864 6        24.000          17.000
  23198376.289     3457048.127 5   2693798.657 5        11.000           8.250
  21223180.125     -748840.097 6   -583510.963 6        19.500          16.250
  23820957.391    -1934245.150 5  -1507201.833 5         9.500           6.500
  20427896.930     -459201.082 7   -344904.162 6        27.250          17.250
  24124655.375    -1082024.960 5   -795828.007 5         7.750           6.000
 93  3 20 19  6  0.0000000  0  6G29G14G19G27G18G28
  21092416.336     1253954.597 7    977106.397 6        24.000          17.000
  23209762.578     3516878.008 5   2740419.246 5        11.000           8.500
  21220852.258     -761041.045 7   -593018.188 6        20.500          16.750
  23814566.547    -1967823.315 5  -1533366.577 5         9.500           6.500
  20426592.438     -466069.000 7   -350255.789 6        27.250          17.750
  24121069.984    -1100859.725 5   -810504.378 5         7.750           6.250
 93  3 20 19  6 15.0000000  0  6G29G14G19G27G18G28
  21096733.867     1276647.362 7    994789.053 6        24.000          17.000
  23221150.297     3576730.892 5   2787057.749 5        11.250           8.500
  21218543.719     -773193.218 6   -602487.412 6        19.750          16.750
  23808176.234    -2001390.568 5  -1559522.844 5         9.500           6.750
  20425296.797     -472870.743 7   -355555.855 6        27.250          17.500
  24117496.367    -1119622.078 5   -825124.332 5         7.500           6.250
 93  3 20 19  6 30.0000000  0  6G29G14G19G27G18G28
  21101065.625     1299415.948 7   1012530.789 6        23.750          17.250
  23232546.211     3636614.439 5   2833720.152 5        11.250           8.250
  21216251.797     -785287.348 6   -611911.404 6        19.250          16.500
  23801794.016    -2034937.792 5  -1585663.496 5         9.750           6.500
  20424016.406     -479600.777 7   -360800.038 6        27.250          17.500
  24113941.758    -1138302.585 5   -839680.502 5         7.750           6.250
 93  3 20 19  6 45.0000000  0  6G29G14G19G27G18G28
  21105412.602     1322252.223 7   1030325.270 6        23.750          17.250
  23243945.430     3696524.269 5   2880403.035 5        10.750           8.500
  21213952.398     -797327.206 6   -621293.096 6        19.750          16.500
  23795418.906    -2068470.723 5  -1611793.007 5         9.750           6.750
  20422749.164     -486264.866 7   -365992.834 6        27.250          17.750
  24110407.844    -1156904.578 5   -854175.489 5         8.000           6.250
 93  3 20 19  7  0.0000000  0  6G29G14G19G27G18G28
  21109772.617     1345162.547 7   1048177.447 6        24.000          17.250
  23255351.914     3756467.931 5   2927112.274 5        11.000           8.500
  21211684.305     -809305.171 6   -630626.579 6        19.000          16.500
  23789039.750    -2101982.835 5  -1637906.290 5        10.250           6.750
  20421494.156     -492854.834 7   -371127.883 6        27.250          17.750
  24106877.008    -1175420.868 5   -868603.708 5         8.000           6.250
 93  3 20 19  7 15.0000000  0  6G29G14G19G27G18G28
  21114143.906     1368134.542 7   1066077.680 6        23.750          17.000
  23266760.273     3816432.963 5   2973838.174 5        11.000           8.500
  21209403.523     -821234.679 7   -639922.287 6        20.000          16.500
  23782660.914    -2135484.177 5  -1664011.181 5        10.000           7.000
  20420252.523     -499385.464 7   -376216.686 6        27.250          17.500
  24103366.781    -1193862.894 5   -882974.048 5         8.000           6.250
 93  3 20 19  7 30.0000000  0  6G29G14G19G27G18G28
  21118526.906     1391173.230 7   1084029.889 6        23.500          17.000
  23278180.820     3876422.524 5   3020583.171 5        11.500           8.250
  21207140.164     -833116.074 7   -649180.509 6        20.250          16.500
  23776288.781    -2168972.691 5  -1690106.084 5         9.750           7.000
  20419020.773     -505854.355 7   -381257.380 6        27.250          17.500
  24099876.906    -1212228.154 5   -897284.576 5         8.000           6.250
 93  3 20 19  7 45.0000000  0  6G29G14G19G27G18G28
  21122926.797     1414292.020 7   1102044.517 6        23.750          17.000
  23289605.695     3936449.272 5   3067357.153 5        11.250           8.250
  21204892.578     -844940.978 6   -658394.715 6        19.750          16.500
  23769925.039    -2202438.222 5  -1716183.071 5        10.000           7.000
  20417803.242     -512246.038 7   -386237.919 6        27.250          17.500
  24096396.383    -1230505.620 5   -911526.699 5         8.250           6.250
 93  3 20 19  8  0.0000000  0  6G29G14G19G27G18G28
  21127340.211     1437483.691 7   1120115.924 6        23.750          17.000
  23301038.359     3996507.533 5   3114155.697 5        11.500           8.250
  21202658.859     -856720.127 6   -667573.266 6        19.000          16.500
  23763556.242    -2235887.020 5  -1742247.019 5         9.750           7.000
  20416602.539     -518568.390 7   -391164.434 6        27.250          17.500
  24092935.180    -1248703.223 5   -925706.589 5         8.250           6.250
 93  3 20 19  8 15.0000000  0  6G29G14G19G27G18G28
  21131768.000     1460751.159 7   1138246.391 6        23.750          16.750
  23312468.125     4056596.060 5   3160977.811 5        11.250           8.250
  21200416.969     -868453.594 7   -676716.215 6        20.000          16.500
  23757198.539    -2269315.038 5  -1768294.769 5        10.000           7.250
  20415410.234     -524821.829 7   -396037.243 6        27.000          17.500
  24089485.633    -1266817.167 5   -939821.297 5         8.250           6.250
 93  3 20 19  8 30.0000000  0  6G29G14G19G27G18G28
  21136209.469     1484092.692 7   1156434.585 6        23.750          16.750
  23323904.789     4116709.214 5   3207819.127 5        11.000           8.000
  21198188.477     -880142.126 7   -685824.158 6        20.250          16.500
  23750836.023    -2302726.908 5  -1794329.947 5         9.750           7.250
  20414232.742     -531006.904 7   -400856.785 6        27.000          17.750
  24086052.875    -1284852.239 5   -953874.534 5         8.250           6.250
 93  3 20 19  8 45.0000000  0  6G29G14G19G27G18G28
  21140665.836     1507511.319 7   1174682.849 6        23.750          16.750
  23335351.867     4176847.799 5   3254680.249 5        11.000           8.000
  21195976.617     -891789.570 7   -694900.078 6        20.000          16.500
  23744480.375    -2336125.556 5  -1820354.808 5         9.750           7.250
  20413069.930     -537120.815 7   -405620.875 6        27.250          17.500
  24082639.852    -1302808.931 5   -967866.731 5         8.250           6.500
 93  3 20 19  9  0.0000000  0  6G29G14G19G27G18G28
  21145136.984     1531012.199 7   1192995.209 6        24.000          16.750
  23346800.539     4237015.219 5   3301563.835 5        11.000           8.000
  21193776.617     -903392.192 6   -703941.077 6        19.250          16.500
  23738128.141    -2369506.598 5  -1846365.968 5         9.750           7.250
  20411920.125     -543155.597 7   -410323.303 6        27.250          17.500
  24079234.102    -1320685.724 5   -981796.657 5         8.250           6.250
 93  3 20 19  9 15.0000000  0  6G29G14G19G27G18G28
  21149624.000     1554589.303 7   1211366.961 6        24.000          16.750
  23358251.953     4297204.224 5   3348464.239 5        10.750           8.000
  21191565.875     -914955.308 7   -712951.287 6        20.000          16.500
  23731780.055    -2402874.074 5  -1872366.537 5         9.750           7.250
  20410786.633     -549116.165 7   -414967.907 6        27.250          17.500
  24075847.328    -1338489.554 5   -995669.719 5         8.250           6.250
 93  3 20 19  9 30.0000000  0  6G29G14G19G27G18G28
  21154125.805     1578245.164 7   1229800.076 6        24.000          16.750
  23369713.664     4357415.006 5   3395381.616 5        11.000           8.000
  21189373.695     -926474.653 7   -721927.393 6        20.500          16.500
  23725436.961    -2436225.351 5  -1898354.504 5         9.750           7.250
  20409668.953     -554997.565 7   -419550.823 6        27.500          17.750
  24072472.445    -1356216.449 5  -1009482.851 5         8.250           6.250
 93  3 20 19  9 45.0000000  0  6G29G14G19G27G18G28
  21158642.203     1601978.722 7   1248293.748 6        24.250          16.750
  23381177.633     4417647.722 5   3442316.085 5        10.750           8.000
  21187194.367     -937944.666 7   -730865.062 6        20.000          16.750
  23719086.938    -2469557.678 5  -1924327.697 5         9.750           7.250
  20408564.109     -560794.734 7   -424068.098 6        27.250          17.750
  24069113.906    -1373864.256 5  -1023234.348 5         8.250           6.250
 93  3 20 19 10  0.0000000  0  6G29G14G19G27G18G28
  21163173.531     1625792.915 7   1266850.247 6        24.250          16.750
  23392641.039     4477903.784 5   3489268.737 5        10.500           8.000
  21185020.328     -949358.547 7   -739758.986 6        20.250          16.750
  23712753.289    -2502866.965 5  -1950282.934 5        10.000           7.250
  20407479.250     -566504.542 7   -428517.302 6        27.500          17.750
  24065769.875    -1391428.159 5  -1036920.460 5         8.500           6.250
 93  3 20 19 10 15.0000000  0  6G29G14G19G27G18G28
  21167721.047     1649687.850 7   1285469.663 6        24.000          16.750
  23404110.641     4538178.776 5   3536236.151 5        10.250           8.000
  21182859.359     -960714.806 7   -748608.010 6        20.000          16.750
  23706413.711    -2536152.198 5  -1976219.435 5        10.000           7.250
  20406407.328     -572129.120 7   -432900.094 6        27.750          17.500
  24062447.422    -1408908.577 5  -1050541.513 5         8.250           6.250
 93  3 20 19 10 30.0000000  0  6G29G14G19G27G18G28
  21172283.867     1673662.246 7   1304150.997 6        24.000          17.000
  23415584.781     4598472.570 5   3583218.200 5        10.250           8.000
  21180708.797     -972012.913 7   -757411.718 6        20.250          16.750
  23700090.422    -2569413.926 5  -2002137.612 5        10.250           7.250
  20405354.867     -577664.848 8   -437213.657 6        28.000          17.750
  24059135.602    -1426306.145 5  -1064098.047 5         8.250           6.250
 93  3 20 19 10 45.0000000  0  6G29G14G19G27G18G28
  21176861.859     1697714.402 7   1322892.914 6        24.000          17.000
  23427060.984     4658786.529 5   3630215.973 5        10.000           8.250
  21178571.938     -983255.584 6   -766172.233 6        19.750          16.750
  23693764.039    -2602651.140 5  -2028036.690 5        10.250           7.250
  20404320.477     -583110.977 8   -441457.396 6        28.000          17.500
  24055836.680    -1443624.357 5  -1077592.721 5         8.250           6.250
 93  3 20 19 11  0.0000000  0  6G29G14G19G27G18G28
  21181452.617     1721843.288 7   1341694.625 6        23.750          17.250
  23438544.078     4719121.307 5   3677229.959 5        10.000           8.000
  21176438.984     -994442.544 7   -774889.335 6        20.250          16.750
  23687441.344    -2635860.882 5  -2053914.369 5        10.250           7.250
  20403297.008     -588470.086 8   -445633.328 6        28.000          17.500
  24052557.063    -1460861.845 5  -1091024.508 5         8.250           6.250
 93  3 20 19 11 15.0000000  0  6G29G14G19G27G18G28
  21186057.461     1746043.005 7   1360551.527 6        23.500          17.250
  23450026.609     4779469.863 5   3724254.683 5         9.750           8.000
  21174320.844    -1005575.953 6   -783564.711 6        19.750          17.000
  23681124.781    -2669048.376 5  -2079774.708 5        10.250           7.250
  20402294.531     -593751.337 8   -449748.587 6        28.250          17.500
  24049298.563    -1478021.946 5  -1104395.988 5         8.250           6.250
 93  3 20 19 11 30.0000000  0  6G29G14G19G27G18G28
  21190676.461     1770318.219 7   1379467.255 6        23.500          17.000
  23461513.813     4839832.700 5   3771290.531 5        10.000           8.000
  21172211.602    -1016657.101 7   -792199.359 6        20.250          16.750
  23674816.258    -2702210.815 5  -2105615.524 5        10.500           7.250
  20401305.734     -598954.573 8   -453803.062 6        28.500          17.500
  24046041.875    -1495099.105 5  -1117702.848 5         8.250           6.250
 93  3 20 19 11 45.0000000  0  6G29G14G19G27G18G28
  21195310.047     1794667.139 7   1398440.422 6        23.250          17.000
  23473001.727     4900211.590 5   3818338.890 5         9.750           8.000
  21170114.156    -1027688.813 6   -800795.494 6        19.750          17.000
  23668512.219    -2735351.206 5  -2131439.157 5        10.750           7.500
  20400328.547     -604081.343 8   -457797.948 6        28.500          17.500
  24042811.141    -1512095.561 5  -1130946.817 5         8.250           6.250
 93  3 20 19 12  0.0000000  0  6G29G14G19G27G18G28
  21199957.852     1819090.411 7   1417471.517 6        23.750          17.250
  23484494.719     4960612.028 5   3865404.033 5         9.500           8.000
  21168023.008    -1038674.432 7   -809355.701 6        20.000          17.000
  23662209.305    -2768467.976 5  -2157244.386 5        10.750           7.500
  20399367.555     -609132.054 8   -461733.571 6        28.250          17.500
  24039595.086    -1529013.630 5  -1144129.717 5         8.500           6.250
 93  3 20 19 12 15.0000000  0  6G29G14G19G27G18G28
  21204621.945     1843592.476 7   1436564.015 6        23.750          17.250
  23495989.805     5021034.584 5   3912486.417 5         9.250           8.000
  21165943.695    -1049616.704 6   -817882.138 6        19.750          17.000
  23655910.523    -2801561.468 5  -2183031.485 5        10.750           7.750
  20398420.594     -614107.075 8   -465610.213 6        28.250          17.250
  24036386.414    -1545853.802 5  -1157251.922 5         8.250           6.500
 93  3 20 19 12 30.0000000  0  6G29G14G19G27G18G28
  21209297.055     1868167.751 7   1455713.559 6        23.750          17.250
  23507493.242     5081477.371 5   3959584.558 5         9.500           7.750
  21163864.320    -1060519.552 7   -826377.856 6        20.250          17.000
  23649618.141    -2834635.239 5  -2208803.214 5        10.500           7.500
  20397488.250     -619008.952 8   -469429.865 6        28.250          17.250
  24033196.570    -1562618.602 5  -1170315.374 5         8.500           6.250
 93  3 20 19 12 45.0000000  0  6G29G14G19G27G18G28
  21213986.367     1892818.502 7   1474921.917 6        24.000          17.000
  23518999.148     5141943.742 5   4006701.080 5         9.500           7.750
  21161801.469    -1071377.926 7   -834838.918 6        20.000          17.000
  23643326.797    -2867685.960 5  -2234556.988 5        10.250           7.500
  20396569.352     -623835.048 8   -473190.456 6        28.250          17.250
  24030018.680    -1579302.747 5  -1183315.996 5         8.500           6.250
 93  3 20 19 13  0.0000000  0  6G29G14G19G27G18G28
  21218692.414     1917534.996 7   1494181.503 6        24.000          17.000
  23530511.320     5202421.403 5   4053826.405 5         9.500           7.500
  21159748.094    -1082199.798 6   -843271.540 6        19.500          17.000
  23637040.289    -2900722.292 5  -2260299.541 5        10.250           7.500
  20395663.672     -628597.986 8   -476901.841 6        28.250          17.250
  24026860.703    -1595915.176 5  -1196260.734 5         8.500           6.500
 93  3 20 19 13 15.0000000  0  6G29G14G19G27G18G28
  21223408.289     1942327.109 7   1513500.012 6        24.000          17.000
  23542021.367     5262918.243 5   4100966.667 5         9.250           7.500
  21157692.398    -1092974.033 7   -851667.034 6        20.000          17.000
  23630758.797    -2933736.995 5  -2286025.252 5        10.250           7.500
  20394772.211     -633288.997 8   -480557.177 6        28.250          17.000
  24023720.313    -1612445.598 5  -1209141.580 5         8.500           6.250
 93  3 20 19 13 30.0000000  0  6G29G14G19G27G18G28
  21228145.328     1967203.610 7   1532884.279 6        24.000          17.000
  23553541.797     5323444.730 5   4148130.023 5         9.250           7.500
  21155650.391    -1103693.464 7   -860019.827 6        20.000          17.000
  23624482.383    -2966720.690 5  -2311726.780 5        10.250           7.250
  20393895.094     -637895.646 8   -484146.774 6        28.250          17.000
  24020589.570    -1628887.400 5  -1221953.372 5         8.750           6.250
 93  3 20 19 13 45.0000000  0  6G29G14G19G27G18G28
  21232889.969     1992152.236 7   1552324.744 6        23.750          17.000
  23565062.930     5383991.592 5   4195309.267 5         9.250           7.250
  21153620.813    -1114368.655 7   -868338.149 6        20.000          16.750
  23618212.984    -2999684.141 5  -2337412.559 5        10.250           7.250
  20393033.039     -642426.065 8   -487676.975 6        28.250          17.000
  24017471.977    -1645254.511 5  -1234706.958 5         8.500           6.250
 93  3 20 19 14  0.0000000  0  6G29G14G19G27G18G28
  21237652.656     2017172.995 7   1571821.422 6        24.000          17.000
  23576595.133     5444562.496 5   4242507.238 5         9.250           7.250
  21151593.180    -1124993.975 7   -876617.607 6        20.500          17.000
  23611938.234    -3032625.565 5  -2363081.155 5        10.500           7.250
  20392185.203     -646877.013 8   -491145.251 6        28.250          17.000
  24014374.250    -1661542.877 5  -1247399.195 5         8.750           6.250
 93  3 20 19 14 15.0000000  0  6G29G14G19G27G18G28
  21242424.469     2042267.102 7   1591375.255 6        24.000          17.000
  23588117.758     5505148.557 5   4289717.023 5         9.000           7.250
  21149587.547    -1135571.132 6   -884859.540 6        19.750          17.000
  23605676.477    -3065546.230 5  -2388733.588 5        10.250           7.250
  20391351.641     -651252.818 8   -494554.969 6        28.250          16.750
  24011290.758    -1677751.542 5  -1260029.312 5         8.750           6.250
 93  3 20 19 14 30.0000000  0  6G29G14G19G27G18G28
  21247216.977     2067437.898 7   1610988.841 6        24.000          16.750
  23599651.102     5565749.359 5   4336938.282 5         9.250           7.250
  21147593.109    -1146092.141 6   -893057.719 6        19.000          16.750
  23599413.117    -3098445.477 5  -2414369.331 5        10.750           7.250
  20390535.508     -655550.655 8   -497903.939 6        28.250          16.750
  24008224.703    -1693872.218 5  -1272590.890 5         8.750           6.250
 93  3 20 19 14 45.0000000  0  6G29G14G19G27G18G28
  21252020.453     2092683.859 7   1630661.006 6        24.000          17.000
  23611187.055     5626366.110 5   4384171.974 5         9.250           7.250
  21145593.125    -1156557.321 6   -901212.398 6        19.500          16.750
  23593156.180    -3131323.472 5  -2439988.510 5        10.750           7.250
  20389732.102     -659770.801 8   -501192.367 6        28.250          16.750
  24005167.727    -1709902.289 5  -1285081.849 5         9.000           6.250
 93  3 20 19 15  0.0000000  0  6G29G14G19G27G18G28
  21256839.320     2118005.486 7   1650392.123 6        23.750          16.750
  23622724.930     5686999.738 5   4431418.810 5         9.250           7.000
  21143617.766    -1166970.414 6   -909326.493 6        18.750          16.750
  23586906.078    -3164180.761 5  -2465591.552 5        10.750           7.250
  20388943.836     -663912.975 8   -504420.037 6        28.500          16.750
  24002132.109    -1725844.713 5  -1297504.522 5         9.000           6.500
 93  3 20 19 15 15.0000000  0  6G29G14G19G27G18G28
  21261673.172     2143405.834 7   1670184.588 6        23.250          17.000
  23634268.242     5747652.971 5   4478680.931 5         9.250           7.000
  21141641.516    -1177331.464 6   -917400.035 6        19.500          17.000
  23580661.977    -3197019.616 5  -2491180.237 5        11.000           7.250
  20388170.391     -667973.982 8   -507584.462 6        28.500          16.750
  23999120.617    -1741698.109 5  -1309857.824 5         9.250           6.500
 93  3 20 19 15 30.0000000  0  6G29G14G19G27G18G28
  21266521.219     2168881.208 7   1690035.507 6        23.500          16.750
  23645814.648     5808321.541 5   4525954.989 5         9.250           7.000
  21139684.742    -1187643.974 6   -925435.739 6        18.750          16.750
  23574413.750    -3229843.569 5  -2516757.304 5        11.000           7.250
  20387414.164     -671953.459 8   -510685.355 6        28.750          16.750
  23996123.461    -1757463.827 5  -1322142.817 5         9.250           6.500
 93  3 20 19 15 45.0000000  0  6G29G14G19G27G18G28
  21271382.180     2194430.310 7   1709943.883 6        23.250          16.750
  23657363.203     5869002.499 5   4573238.717 5         9.250           6.750
  21137724.633    -1197909.468 6   -933434.820 6        19.500          17.000
  23568165.203    -3262652.394 5  -2542322.589 5        10.750           7.500
  20386671.719     -675850.414 8   -513721.944 6        28.750          16.750
  23993138.234    -1773140.950 5  -1334358.755 5         9.250           6.750
 93  3 20 19 16  0.0000000  0  6G29G14G19G27G18G28
  21276258.922     2220052.261 7   1729909.018 6        23.500          16.750
  23668908.688     5929693.738 5   4620530.431 5         9.250           6.750
  21135771.227    -1208126.838 7   -941396.401 6        20.500          17.000
  23561927.523    -3295448.096 5  -2567877.639 5        10.750           7.500
  20385945.445     -679664.855 8   -516694.240 6        28.750          16.750
  23990173.461    -1788725.641 5  -1346502.679 5         9.250           6.500
 93  3 20 19 16 15.0000000  0  6G29G14G19G27G18G28
  21281149.367     2245749.706 7   1749932.984 6        23.500          17.000
  23680462.547     5990393.663 5   4667828.927 5         9.250           6.750
  21133844.453    -1218296.035 6   -949320.445 6        19.750          17.250
  23555690.508    -3328228.637 5  -2593420.878 5        11.000           7.750
  20385234.766     -683395.474 8   -519601.222 6        29.000          16.750
  23987223.453    -1804218.471 5  -1358575.012 5         9.250           6.750
 93  3 20 19 16 30.0000000  0  6G29G14G19G27G18G28
  21286055.109     2271526.379 7   1770018.685 6        23.500          17.000
  23692014.891     6051105.905 5   4715137.014 5         9.000           6.750
  21131923.656    -1228413.904 6   -957204.497 6        19.500          17.250
  23549454.953    -3360994.783 5  -2618952.899 5        10.750           7.750
  20384542.609     -687037.790 8   -522439.389 6        29.000          16.750
  23984293.930    -1819618.521 5  -1370575.055 5         9.250           6.750
 93  3 20 19 16 45.0000000  0  6G29G14G19G27G18G28
  21290972.992     2297379.107 7   1790163.644 6        23.500          17.000
  23703569.797     6111832.519 5   4762456.315 5         9.000           6.750
  21130003.336    -1238482.605 6   -965050.232 6        19.750          17.250
  23543221.867    -3393747.989 5  -2644474.840 5        10.750           7.750
  20383867.008     -690589.669 8   -525207.090 6        29.000          16.750
  23981376.820    -1834928.302 5  -1382504.756 5         9.000           6.750
 93  3 20 19 17  0.0000000  0  6G29G14G19G27G18G28
  21295908.453     2323304.157 7   1810364.968 6        23.500          17.000
  23715131.977     6172569.514 5   4809783.678 5         9.250           6.750
  21128104.828    -1248505.214 6   -972860.047 6        19.000          17.250
  23536992.578    -3426489.267 5  -2669987.476 5        11.000           7.500
  20383207.063     -694052.905 8   -527905.717 6        29.000          16.750
  23978479.953    -1850154.101 5  -1394369.017 5         9.250           6.750
 93  3 20 19 17 15.0000000  0  6G29G14G19G27G18G28
  21300855.055     2349300.940 7   1830622.182 6        23.250          17.000
  23726686.586     6233312.210 5   4857115.499 5         9.250           6.750
  21126198.180    -1258480.338 7   -980632.871 6        20.000          17.250
  23530759.969    -3459220.704 5  -2695492.444 5        10.750           7.750
  20382565.984     -697428.872 8   -530536.340 6        29.250          16.750
  23975600.305    -1865299.738 5  -1406170.814 5         9.250           6.750
 93  3 20 19 17 30.0000000  0  6G29G14G19G27G18G28
  21305815.625     2375367.734 7   1850933.949 6        23.500          17.000
  23738244.336     6294056.397 5   4904448.482 5         9.000           6.750
  21124304.336    -1268409.469 7   -988369.846 6        20.250          17.250
  23524530.383    -3491942.334 5  -2720989.778 5        10.750           7.750
  20381941.078     -700720.599 8   -533101.328 6        29.250          16.750
  23972736.336    -1880364.377 5  -1417909.501 5         9.000           6.750
 93  3 20 19 17 45.0000000  0  6G29G14G19G27G18G28
  21310789.164     2401504.947 7   1871300.591 6        23.250          17.000
  23749809.008     6354804.378 5   4951784.428 5         9.000           6.500
  21122429.609    -1278292.569 6   -996070.965 6        19.500          17.250
  23518313.461    -3524649.028 5  -2746475.465 5        11.250           7.750
  20381328.742     -703928.944 8   -535601.344 6        29.250          16.750
  23969882.961    -1895347.700 5  -1429584.812 5         9.000           7.000
 93  3 20 19 18  0.0000000  0  6G29G14G19G27G18G28
  21315775.914     2427716.997 7   1891725.543 6        23.000          17.000
  23761362.750     6415560.498 5   4999126.696 5         8.750           6.500
  21120550.266    -1288130.489 7  -1003736.870 6        20.500          17.250
  23512088.195    -3557341.242 5  -2771949.885 5        11.250           7.750
  20380733.742     -707054.520 8   -538036.857 6        29.250          16.750
  23967041.867    -1910248.936 5  -1441196.153 5         9.000           6.750
 93  3 20 19 18 15.0000000  0  6G29G14G19G27G18G28
  21320778.836     2454010.659 7   1912214.087 6        23.000          17.000
  23772931.125     6476331.296 5   5046480.407 5         8.750           6.500
  21118694.977    -1297917.612 6  -1011363.194 6        19.750          17.250
  23505875.414    -3590012.619 5  -2797408.060 5        11.500           7.500
  20380155.367     -710094.685 8   -540405.825 6        29.500          16.750
  23964220.117    -1925061.707 5  -1452738.575 5         8.750           6.750
 93  3 20 19 18 30.0000000  0  6G29G14G19G27G18G28
  21325798.305     2480379.009 7   1932760.837 6        23.000          17.000
  23784498.820     6537109.208 5   5093839.655 5         8.500           6.500
  21116833.461    -1307661.837 7  -1018956.092 6        20.500          17.250
  23499660.414    -3622669.795 5  -2822855.172 5        11.750           7.500
  20379590.430     -713058.492 8   -542715.285 6        29.500          16.750
  23961422.531    -1939791.665 5  -1464216.476 5         9.000           6.500
 93  3 20 19 18 45.0000000  0  6G29G14G19G27G18G28
  21330828.320     2506817.211 7   1953362.013 6        22.500          17.250
  23796066.672     6597889.242 5   5141200.561 5         8.750           6.500
  21114992.078    -1317368.973 6  -1026520.090 6        19.750          17.250
  23493443.227    -3655314.141 5  -2848292.286 5        11.500           7.500
  20379042.008     -715951.946 8   -544969.926 6        29.500          16.750
  23958640.891    -1954439.125 5  -1475630.084 5         9.000           6.500
 93  3 20 19 19  0.0000000  0  6G29G14G19G27G18G28
  21335871.852     2533325.856 7   1974018.076 6        22.500          17.250
  23807631.453     6658670.517 5   5188562.425 5         8.750           6.750
  21113158.852    -1327039.768 6  -1034055.772 6        19.000          17.250
  23487240.320    -3687940.535 5  -2873715.408 5        11.750           7.500
  20378502.664     -718776.277 8   -547170.710 6        29.500          16.750
  23955866.375    -1969002.890 5  -1486978.458 5         9.000           6.500
 93  3 20 19 19 15.0000000  0  6G29G14G19G27G18G28
  21340930.883     2559910.258 7   1994733.181 6        22.750          17.250
  23819202.031     6719458.122 5   5235929.224 5         8.750           6.500
  21111317.789    -1336671.368 6  -1041560.911 6        19.750          17.250
  23481037.992    -3720543.047 6  -2899119.918 5        12.000           7.250
  20377979.305     -721528.683 8   -549315.442 6        29.500          16.500
  23953117.430    -1983476.999 5  -1498256.987 5         9.000           6.500
 93  3 20 19 19 30.0000000  0  6G29G14G19G27G18G28
  21346006.148     2586571.898 7   2015508.453 6        23.000          17.250
  23830767.984     6780251.135 5   5283300.237 5         8.750           6.500
  21109504.391    -1346266.778 6  -1049037.848 6        18.500          17.250
  23474834.953    -3753121.685 5  -2924505.839 5        11.750           7.250
  20377467.398     -724209.675 8   -551404.531 6        29.500          16.500
  23950374.617    -1997857.634 5  -1509462.668 5         9.000           6.500
 93  3 20 19 19 45.0000000  0  6G29G14G19G27G18G28
  21351093.266     2613307.884 7   2036341.673 6        23.000          17.000
  23842338.711     6841047.167 5   5330673.601 5         9.000           6.750
  21107672.695    -1355829.524 6  -1056489.335 6        19.750          17.250
  23468641.398    -3785679.432 5  -2949875.479 5        11.750           7.500
  20376971.406     -726821.912 8   -553440.045 6        29.500          16.500
  23947656.055    -2012145.866 5  -1520596.354 5         9.000           6.750
 93  3 20 19 20  0.0000000  0  6G29G14G19G27G18G28
  21356196.313     2640119.753 7   2057234.017 6        23.250          17.000
  23853904.328     6901847.012 5   5378049.936 5         8.750           6.750
  21105858.953    -1365355.115 7  -1063911.869 6        20.250          17.250
  23462442.617    -3818215.442 5  -2975228.178 5        11.750           7.500
  20376490.102     -729362.069 8   -555419.391 6        29.000          16.500
  23944957.828    -2026339.614 5  -1531656.407 5         9.250           6.500
 93  3 20 19 20 15.0000000  0  6G29G14G19G27G18G28
  21361311.688     2667004.880 7   2078183.442 6        23.250          17.000
  23865476.016     6962648.336 5   5425427.412 5         8.750           6.750
  21104056.141    -1374841.204 7  -1071303.622 6        20.000          17.250
  23456258.367    -3850730.602 6  -3000564.639 5        12.000           7.500
  20376020.633     -731829.215 8   -557341.850 6        29.250          16.500
  23942267.625    -2040438.037 5  -1542642.179 5         9.000           6.750
 93  3 20 19 20 30.0000000  0  6G29G14G19G27G18G28
  21366441.945     2693960.295 7   2099187.643 6        23.000          16.750
  23877044.484     7023448.656 5   5472804.120 5         9.000           6.750
  21102269.313    -1384285.872 6  -1078663.101 6        19.000          17.250
  23450079.047    -3883225.386 5  -3025885.209 5        11.750           7.500
  20375562.602     -734223.580 8   -559207.596 6        29.500          16.500
  23939605.844    -2054444.787 5  -1553556.516 5         9.250           6.750
 93  3 20 19 20 45.0000000  0  6G29G14G19G27G18G28
  21371584.992     2720986.420 7   2120246.938 6        23.000          16.000
  23888607.875     7084247.896 2   5520179.999 4         4.750           4.000
  21100467.344    -1393689.390 7  -1085990.513 6        20.000          17.250
  23443895.695    -3915701.575 5  -3051191.306 5        11.500           7.750
  20375122.172     -736542.686 8   -561014.698 6        29.250          16.500
  23936960.961    -2068363.291 5  -1564402.095 5         9.750           7.000
 93  3 20 19 21  0.0000000  0  6G29G14G19G27G18G28
  21376741.359     2748089.610 7   2141366.284 6        22.750          16.500
  23900187.414     7145050.596 5   5567558.550 5         7.500           5.750
  21098683.328    -1403047.304 7  -1093282.386 6        20.750          17.250
  23437721.625    -3948156.687 5  -3076480.971 5        11.250           7.250
  20374695.469     -738778.752 8   -562757.091 6        29.500          16.500
  23934328.063    -2082190.159 5  -1575176.250 5         9.500           7.250
 93  3 20 19 21 15.0000000  0  6G29G14G19G27G18G28
  21381912.461     2775269.281 7   2162545.215 6        22.750          16.750
  23911748.609     7205858.366 5   5614941.022 5         8.750           6.500
  21096917.766    -1412356.544 6  -1100536.337 6        19.750          17.500
  23431547.375    -3980592.453 5  -3101755.536 5        11.500           7.750
  20374287.875     -740929.061 8   -564432.663 6        29.500          16.500
  23931715.695    -2095925.174 5  -1585878.849 5         9.500           7.000
 93  3 20 19 21 30.0000000  0  6G29G14G19G27G18G28
  21387101.805     2802528.858 7   2183786.424 6        22.750          16.750
  23923328.352     7266674.184 5   5662329.813 5         8.750           6.750
  21095161.992    -1421612.182 6  -1107748.518 6        19.250          17.500
  23425381.445    -4013006.961 5  -3127013.570 5        11.250           7.750
  20373895.492     -742990.399 8   -566038.910 6        29.750          16.500
  23929116.891    -2109566.211 5  -1596508.197 5         9.500           7.000
 93  3 20 19 21 45.0000000  0  6G29G14G19G27G18G28
  21392302.859     2829867.622 7   2205089.331 6        22.500          16.750
  23934904.891     7327497.200 5   5709724.190 5         9.000           6.750
  21093403.719    -1430813.371 7  -1114918.270 6        20.000          17.500
  23419214.992    -4045402.745 5  -3152257.004 5        11.500           7.750
  20373522.336     -744963.185 8   -567576.147 6        30.000          16.500
  23926542.117    -2123116.496 5  -1607066.833 5         9.500           7.000
 93  3 20 19 22  0.0000000  0  6G29G14G19G27G18G28
  21397519.969     2857282.089 7   2226451.228 6        22.250          16.500
  23946479.281     7388326.867 5   5757123.749 5         8.750           6.750
  21091665.344    -1439960.123 7  -1122045.601 6        20.250          17.500
  23413052.789    -4077779.923 5  -3177485.935 5        11.500           7.750
  20373160.164     -746848.080 8   -569044.908 6        29.750          16.500
  23923977.977    -2136580.893 5  -1617558.554 5         9.750           7.250
 93  3 20 19 22 15.0000000  0  6G29G14G19G27G18G28
  21402751.227     2884773.607 7   2247873.165 6        22.500          16.500
  23958059.578     7449165.121 5   5804529.995 5         9.000           6.750
  21089933.805    -1449053.427 6  -1129131.284 6        19.750          17.500
  23406899.258    -4110136.415 5  -3202698.757 5        11.000           7.750
  20372820.641     -748642.894 8   -570443.466 6        29.750          16.500
  23921433.016    -2149956.498 5  -1627981.067 5         9.750           7.250
 93  3 20 19 22 30.0000000  0  6G29G14G19G27G18G28
  21407996.891     2912345.272 7   2269357.557 6        22.250          16.500
  23969638.609     7510010.876 5   5851942.083 5         8.750           7.000
  21088207.984    -1458095.248 7  -1136176.852 6        20.000          17.500
  23400744.078    -4142475.136 5  -3227897.717 5        11.750           8.000
  20372498.758     -750346.575 8   -571771.013 6        29.750          16.500
  23918902.258    -2163244.811 5  -1638335.559 5         9.750           7.250
 93  3 20 19 22 45.0000000  0  6G29G14G19G27G18G28
  21413260.047     2940001.806 7   2290908.077 6        22.250          16.500
  23981221.688     7570864.218 5   5899360.090 5         8.500           6.750
  21086501.164    -1467088.651 6  -1143184.698 6        19.750          17.500
  23394586.977    -4174796.212 5  -3253082.947 5        11.500           8.000
  20372188.023     -751958.950 8   -573027.419 6        30.000          16.500
  23916391.352    -2176444.452 5  -1648620.965 5         9.750           7.250
 93  3 20 19 23  0.0000000  0  6G29G14G19G27G18G28
  21418539.602     2967742.402 7   2312524.104 6        22.500          16.500
  23992798.336     7631721.680 5   5946781.308 5         8.500           6.750
  21084796.289    -1476037.360 6  -1150157.708 6        19.750          17.500
  23388450.313    -4207098.823 5  -3278253.778 5        11.750           8.000
  20371899.609     -753480.577 8   -574213.105 6        30.250          16.500
  23913896.977    -2189554.111 5  -1658836.231 5         9.750           7.250
 93  3 20 19 23 15.0000000  0  6G29G14G19G27G18G28
  21423835.797     2995568.976 7   2334207.129 6        22.500          16.250
  24004379.930     7692585.731 5   5994207.644 5         8.500           6.500
  21083104.742    -1484937.096 6  -1157092.560 6        19.500          17.500
  23382299.680    -4239378.056 5  -3303406.396 5        11.750           8.000
  20371627.617     -754908.947 8   -575326.128 6        30.000          16.500
  23911418.852    -2202566.966 5  -1668976.091 5         9.750           7.000
 93  3 20 19 23 30.0000000  0  6G29G14G19G27G18G28
  21429150.453     3023475.614 7   2355952.537 6        22.500          16.250
  24015970.852     7753450.802 5   6041634.784 5         8.500           6.750
  21081417.383    -1493792.228 6  -1163992.660 6        19.750          17.500
  23376162.180    -4271635.411 5  -3328541.956 5        11.750           8.000
  20371370.398     -756251.273 8   -576372.102 6        29.750          16.500
  23908960.539    -2215487.121 5  -1679043.695 5         9.750           7.250
 93  3 20 19 23 45.0000000  0  6G29G14G19G27G18G28
  21434471.688     3051460.754 7   2377759.109 6        22.500          16.000
  24027550.047     7814317.114 5   6089062.873 5         8.250           6.500
  21079741.273    -1502605.401 6  -1170860.061 6        19.500          17.500
  23370029.773    -4303871.795 5  -3353661.185 5        11.750           8.000
  20371133.664     -757508.025 8   -577351.401 6        30.000          16.500
  23906517.977    -2228315.856 5  -1689040.065 5         9.500           7.250
 93  3 20 19 24  0.0000000  0  6G29G14G19G27G18G28
  21439812.430     3079524.441 7   2399626.898 6        22.500          16.000
  24039131.867     7875186.778 5   6136493.598 5         7.750           6.500
  21078071.586    -1511377.595 6  -1177695.533 6        19.750          17.500
  23363897.961    -4336087.044 6  -3378763.941 5        12.000           8.000
  20370911.672     -758675.095 8   -578260.809 6        30.000          16.500
  23904094.188    -2241049.638 5  -1698962.457 5         9.500           7.000
 93  3 20 19 24 15.0000000  0  6G29G14G19G27G18G28
  21445164.328     3107660.308 7   2421550.928 6        22.500          16.000
  24050711.906     7936051.922 5   6183920.771 5         7.750           6.250
  21076409.352    -1520112.807 6  -1184502.186 6        19.500          17.500
  23357770.016    -4368287.309 5  -3403855.021 5        11.750           8.000
  20370706.039     -759755.984 8   -579103.065 6        29.750          16.500
  23901689.586    -2253691.429 5  -1708813.155 5         9.750           7.000
 93  3 20 19 24 30.0000000  0  6G29G14G19G27G18G28
  21450533.977     3135873.955 7   2443535.560 6        22.250          16.000
  24062295.078     7996917.458 5   6231348.271 5         8.000           6.000
  21074753.023    -1528807.116 6  -1191276.968 6        19.750          17.500
  23351647.164    -4400471.876 6  -3428933.870 5        12.000           8.000
  20370519.266     -760747.598 8   -579875.757 6        30.000          16.500
  23899302.266    -2266235.346 5  -1718587.591 5         9.750           7.250
 93  3 20 19 24 45.0000000  0  6G29G14G19G27G18G28
  21455919.742     3164172.571 7   2465586.401 6        22.500          16.000
  24073875.852     8057792.813 5   6278783.419 5         7.750           6.000
  21073111.555    -1537448.751 6  -1198010.698 6        19.500          17.500
  23345531.539    -4432630.420 6  -3453992.442 5        12.250           8.000
  20370346.055     -761641.923 8   -580572.641 6        29.750          16.500
  23896935.523    -2278672.821 5  -1728279.091 5         9.500           7.250
 93  3 20 19 25  0.0000000  0  6G29G14G19G27G18G28
  21461319.109     3192541.925 7   2487692.364 6        22.500          16.000
  24085465.563     8118669.157 5   6326219.341 5         8.000           5.750
  21071472.367    -1546045.166 7  -1204709.203 6        20.000          17.500
  23339415.164    -4464768.486 6  -3479035.056 5        12.000           8.000
  20370193.875     -762448.982 8   -581201.526 6        30.000          16.500
  23894588.359    -2291011.760 5  -1737893.801 5         9.750           7.250
 93  3 20 19 25 15.0000000  0  6G29G14G19G27G18G28
  21466727.328     3220974.416 7   2509847.525 6        22.250          15.750
  24097046.172     8179544.930 5   6373654.797 5         7.500           5.750
  21069851.117    -1554595.758 6  -1211371.995 6        19.750          17.500
  23333301.555    -4496890.261 6  -3504064.971 5        12.000           8.250
  20370054.328     -763172.495 8   -581765.309 6        30.000          16.250
  23892258.297    -2303254.674 5  -1747433.693 5        10.000           7.250
 93  3 20 19 25 30.0000000  0  6G29G14G19G27G18G28
  21472150.781     3249467.815 7   2532050.141 6        22.000          15.750
  24108635.195     8240422.603 5   6421091.752 5         7.500           5.500
  21068237.680    -1563099.040 6  -1217997.924 6        19.250          17.500
  23327187.695    -4528998.343 5  -3529084.219 5        11.750           8.250
  20369933.500     -763814.953 8   -582265.934 6        30.000          16.250
  23889951.727    -2315400.236 5  -1756897.714 5        10.250           7.250
 93  3 20 19 25 45.0000000  0  6G29G14G19G27G18G28
  21477585.453     3278024.784 7   2554302.297 6        22.000          15.750
  24120214.688     8301304.498 5   6468531.984 5         7.500           5.250
  21066622.094    -1571554.034 6  -1224586.224 6        19.750          17.750
  23321078.930    -4561090.973 6  -3554091.416 5        12.000           8.500
  20369827.898     -764372.047 8   -582700.040 6        30.000          16.250
  23887655.117    -2327448.853 5  -1766286.202 5         9.750           7.250
 93  3 20 19 26  0.0000000  0  6G29G14G19G27G18G28
  21483031.469     3306648.624 7   2576606.562 6        22.000          15.750
  24131802.547     8362190.797 4   6515975.653 5         7.250           5.500
  21065022.242    -1579959.219 7  -1231135.720 6        20.000          17.750
  23314980.297    -4593170.172 5  -3579088.158 5        11.750           8.500
  20369737.188     -764840.967 8   -583065.438 6        30.000          16.250
  23885383.594    -2339398.047 5  -1775597.209 5        10.000           7.250
 93  3 20 19 26 15.0000000  0  6G29G14G19G27G18G28
  21488491.281     3335339.427 7   2598963.007 6        22.000          15.750
  24143385.125     8423075.623 4   6563418.159 5         6.750           5.250
  21063430.672    -1588315.487 7  -1237647.088 6        20.000          17.500
  23308877.094    -4625238.810 6  -3604076.659 5        12.250           8.750
  20369663.078     -765223.987 8   -583363.905 6        29.750          16.250
  23883128.008    -2351249.437 5  -1784832.003 5         9.750           7.250
 93  3 20 19 26 30.0000000  0  6G29G14G19G27G18G28
  21493964.047     3364104.217 7   2621377.099 6        22.000          15.750
  24154972.617     8483964.166 4   6610863.594 5         6.750           5.250
  21061848.031    -1596617.152 7  -1244115.917 6        20.500          17.500
  23302777.297    -4657288.281 6  -3629050.242 5        12.000           8.500
  20369608.359     -765518.495 8   -583593.399 6        29.750          16.250
  23880887.852    -2362997.303 5  -1793986.131 5         9.750           7.500
 93  3 20 19 26 45.0000000  0  6G29G14G19G27G18G28
  21499452.617     3392946.971 7   2643851.943 6        21.750          15.750
  24166564.133     8544861.465 4   6658315.822 5         6.750           5.250
  21060284.172    -1604861.951 6  -1250540.430 6        19.500          17.750
  23296682.391    -4689309.930 6  -3654002.131 5        12.000           8.750
  20369569.508     -765722.095 8   -583752.057 6        29.750          16.250
  23878674.141    -2374637.706 5  -1803056.519 5         9.750           7.250
 93  3 20 19 27  0.0000000  0  6G29G14G19G27G18G28
  21504957.398     3421868.940 7   2666388.510 6        21.250          15.750
  24178155.102     8605767.795 4   6705775.091 5         6.500           5.250
  21058732.641    -1613049.962 6  -1256920.697 6        19.000          17.750
  23290592.945    -4721299.634 6  -3678929.134 5        12.250           8.750
  20369546.641     -765832.270 8   -583837.916 6        29.750          16.250
  23876484.703    -2386169.987 5  -1812042.658 5         9.750           7.500
 93  3 20 19 27 15.0000000  0  6G29G14G19G27G18G28
  21510476.227     3450873.228 7   2688989.217 6        21.000          15.250
  24189745.656     8666681.101 4   6753239.786 5         6.500           5.000
  21057176.555    -1621184.397 6  -1263259.211 6        19.500          16.750
  23284514.508    -4753259.560 6  -3703832.932 5        12.250           8.250
  20369545.016     -765848.278 8   -583850.396 6        29.500          15.250
  23874306.266    -2397593.741 5  -1820944.238 5         9.750           7.500
 93  3 20 19 27 30.0000000  0  6G29G14G19G27G18G28
  21516011.031     3479959.761 7   2711654.021 6        21.250          15.250
  24201334.820     8727594.909 4   6800704.854 5         6.500           5.000
  21055643.672    -1629272.657 6  -1269561.748 6        19.000          17.000
  23278437.344    -4785194.044 6  -3728716.905 5        12.250           8.500
  20369562.734     -765774.884 8   -583793.220 6        29.500          15.500
  23872154.172    -2408911.658 5  -1829763.341 5         9.500           7.000
 93  3 20 19 27 45.0000000  0  6G29G14G19G27G18G28
  21521565.023     3509137.870 7   2734390.175 6        21.000          14.750
  24212926.086     8788512.150 3   6848172.625 5         6.000           5.250
  21054109.633    -1637311.204 6  -1275825.549 6        19.750          16.250
  23272368.188    -4817093.554 6  -3753573.647 5        12.250           7.750
  20369594.859     -765604.041 8   -583660.094 6        29.750          14.750
  23870022.500    -2420118.980 5  -1838496.272 5         9.500           7.000
 93  3 20 19 28  0.0000000  0  6G29G14G19G27G18G28
  21527135.313     3538408.015 7   2757198.052 6        21.250          15.750
  24224519.523     8849430.866 4   6895641.531 5         6.500           5.500
  21052594.156    -1645302.545 6  -1282052.560 6        19.250          17.250
  23266306.641    -4848961.003 6  -3778405.383 5        12.250           9.000
  20369644.203     -765336.588 8   -583451.700 6        29.750          16.000
  23867906.031    -2431218.994 5  -1847145.588 5         9.750           7.500
 93  3 20 19 28 15.0000000  0  6G29G14G19G27G18G28
  21532722.328     3567765.754 7   2780074.182 6        21.250          15.750
  24236114.750     8910347.625 4   6943108.912 5         6.750           5.500
  21051074.680    -1653249.147 6  -1288244.715 6        19.250          17.750
  23260243.773    -4880798.562 6  -3803213.831 5        12.250           9.000
  20369713.922     -764976.908 8   -583171.440 6        29.500          16.000
  23865818.125    -2442214.633 5  -1855713.572 5         9.750           7.500
 93  3 20 19 28 30.0000000  0  6G29G14G19G27G18G28
  21538321.406     3597211.069 7   2803018.548 6        21.250          15.750
  24247707.547     8971262.431 4   6990574.779 5         6.500           5.500
  21049562.859    -1661150.720 7  -1294401.783 6        20.750          17.750
  23254190.523    -4912601.207 6  -3827995.089 5        12.250           9.000
  20369797.219     -764525.183 8   -582819.454 6        29.750          16.000
  23863744.938    -2453107.112 5  -1864201.162 5         9.750           7.500
 93  3 20 19 28 45.0000000  0  6G29G14G19G27G18G28
  21543943.695     3626742.752 7   2826030.226 6        21.500          15.750
  24259305.258     9032176.875 4   7038040.347 5         6.750           5.750
  21048075.922    -1669007.445 6  -1300523.904 6        19.500          17.750
  23248148.898    -4944369.982 6  -3852749.939 5        12.250           9.250
  20369901.875     -763981.131 8   -582395.521 6        29.250          16.000
  23861688.383    -2463894.245 5  -1872606.680 5         9.750           7.500
 93  3 20 19 29  0.0000000  0  6G29G14G19G27G18G28
  21549579.023     3656357.118 7   2849106.324 6        21.250          15.750
  24270888.961     9093086.243 4   7085501.982 5         7.000           6.000
  21046595.953    -1676821.505 6  -1306612.779 6        19.250          17.750
  23242105.031    -4976110.591 6  -3877482.852 5        12.500           9.000
  20370020.320     -763346.193 8   -581900.776 6        29.500          16.000
  23859655.305    -2474580.730 5  -1880933.761 5         9.750           7.500
 93  3 20 19 29 15.0000000  0  6G29G14G19G27G18G28
  21555230.930     3686053.147 7   2872246.051 6        21.500          15.500
  24282477.664     9153986.265 4   7132956.328 5         7.250           6.000
  21045112.469    -1684591.547 6  -1312667.354 6        19.500          17.500
  23236070.375    -5007829.694 6  -3902199.003 5        12.500           9.000
  20370161.266     -762621.358 8   -581335.978 6        29.250          16.000
  23857642.422    -2485169.276 5  -1889184.531 5         9.750           7.500
 93  3 20 19 29 30.0000000  0  6G29G14G19G27G18G28
  21560899.016     3715839.212 7   2895455.947 6        21.500          15.500
  24294058.891     9214886.690 5   7180410.969 5         7.500           6.000
  21043652.578    -1692305.025 6  -1318677.851 6        18.750          17.750
  23230041.875    -5039518.155 6  -3926891.288 5        12.500           9.250
  20370315.703     -761797.186 8   -580693.775 6        29.500          16.000
  23855647.211    -2495651.471 5  -1897352.433 5         9.750           7.500
 93  3 20 19 29 45.0000000  0  6G29G14G19G27G18G28
  21566584.188     3745708.958 7   2918731.045 6        21.500          15.500
  24305651.820     9275784.445 5   7227863.539 5         7.500           6.250
  21042185.305    -1699962.744 6  -1324644.895 6        19.500          17.750
  23224015.664    -5071178.602 6  -3951561.731 5        12.500           9.500
  20370492.594     -760875.400 8   -579975.510 6        29.000          16.000
  23853673.313    -2506031.776 5  -1905440.936 5        10.000           7.500
 93  3 20 19 30  0.0000000  0  6G29G14G19G27G18G28
  21572280.500     3775658.522 7   2942068.330 6        21.500          15.500
  24317241.852     9336680.454 5   7275314.741 5         7.500           6.250
  21040735.063    -1707566.288 7  -1330569.735 6        20.250          17.750
  23217992.508    -5102815.922 6  -3976214.157 5        12.500           9.250
  20370685.172     -759857.551 8   -579182.390 6        29.250          15.750
  23851713.164    -2516314.073 5  -1913453.094 5         9.750           7.500
 93  3 20 19 30 15.0000000  0  6G29G14G19G27G18G28
  21577995.008     3805684.408 7   2965465.100 6        21.250          15.500
  24328833.711     9397572.574 5   7322762.914 5         7.750           6.250
  21039305.289    -1715117.785 6  -1336454.012 6        19.500          17.750
  23211976.609    -5134433.738 6  -4000851.389 5        12.500           9.500
  20370896.656     -758744.676 8   -578315.224 6        29.250          15.750
  23849773.742    -2526500.191 5  -1921390.286 5        10.000           7.500
 93  3 20 19 30 30.0000000  0  5G29G19G27G18G28
  21583722.875     3835783.801 7   2988919.136 6        21.250          15.500
  21037869.188    -1722620.189 7  -1342300.037 6        20.250          17.750
  23205969.602    -5166033.497 6  -4025474.550 5        12.750           9.250
  20371127.625     -757538.980 8   -577375.724 6        29.000          15.750
  23847856.211    -2536592.770 5  -1929254.603 5        10.000           7.500
 93  3 20 19 30 45.0000000  0  5G29G19G27G18G28
  21589466.422     3865956.871 7   3012430.589 6        21.250          15.500
  21036457.477    -1730074.733 6  -1348108.769 6        19.750          17.750
  23199957.031    -5197616.399 6  -4050084.577 5        12.750           9.500
  20371373.711     -756242.934 8   -576365.832 6        29.500          16.000
  23845957.297    -2546590.338 5  -1937044.883 5        10.250           7.750
 93  3 20 19 31  0.0000000  0  5G29G19G27G18G28
  21595223.164     3896208.444 7   3036003.217 6        21.250          15.500
  21035042.313    -1737477.594 7  -1353877.222 6        20.500          18.000
  23193948.289    -5229180.525 6  -4074679.967 5        12.500           9.500
  20371637.859     -754852.102 8   -575282.078 6        29.250          15.750
  23844067.633    -2556489.044 5  -1944758.132 5        10.000           7.750
 93  3 20 19 31 15.0000000  0  5G29G19G27G18G28
  21600992.328     3926534.247 7   3059633.681 6        21.250          15.500
  21033647.227    -1744833.652 6  -1359609.220 6        19.750          17.750
  23187947.477    -5260726.254 6  -4099261.019 5        12.750           9.500
  20371920.773     -753371.234 8   -574128.163 6        29.250          16.000
  23842201.594    -2566293.264 5  -1952397.767 5        10.250           7.500
 93  3 20 19 31 30.0000000  0  5G29G19G27G18G28
  21606775.664     3956939.375 7   3083325.967 6        20.750          15.500
  21032264.484    -1752140.611 6  -1365302.947 6        19.000          18.000
  23181947.922    -5292248.526 6  -4123823.804 5        13.000           9.500
  20372219.453     -751795.023 8   -572899.955 6        29.500          16.000
  23840360.117    -2575995.372 5  -1959957.830 5        10.250           7.500
 93  3 20 19 31 45.0000000  0  5G29G19G27G18G28
  21612577.703     3987418.679 7   3107076.044 6        20.750          15.500
  21030876.148    -1759405.385 6  -1370963.808 6        19.750          18.000
  23175951.781    -5323750.527 6  -4148370.784 5        13.000           9.500
  20372538.961     -750126.283 8   -571599.647 6        29.500          15.750
  23838528.313    -2585593.980 5  -1967437.249 5        10.000           7.500
 93  3 20 19 32  0.0000000  0  5G29G19G27G18G28
  21618391.430     4017970.964 7   3130882.995 6        20.750          15.500
  21029514.539    -1766633.490 6  -1376596.095 6        18.500          18.000
  23169959.477    -5355238.403 6  -4172906.762 5        13.250           9.500
  20372870.977     -748368.847 8   -570230.230 6        29.750          16.000
  23836725.539    -2595088.738 5  -1974835.754 5        10.250           7.750
 93  3 20 19 32 15.0000000  0  5G29G19G27G18G28
  21624220.500     4048598.734 7   3154748.757 6        20.500          15.500
  21028130.977    -1773825.613 6  -1382200.347 6        19.500          17.750
  23163971.305    -5386710.909 6  -4197430.758 5        13.000           9.500
  20373222.883     -746521.821 8   -568790.999 6        29.250          15.750
  23834940.836    -2604478.514 5  -1982152.439 5        10.250           7.500
 93  3 20 19 32 30.0000000  0  5G29G19G27G18G28
  21630062.672     4079302.531 7   3178673.762 6        20.500          15.500
  21026766.531    -1780977.815 6  -1387773.495 6        19.750          18.000
  23157985.836    -5418163.672 6  -4221939.372 5        13.500           9.750
  20373593.492     -744584.909 8   -567281.726 6        29.750          15.750
  23833168.008    -2613758.672 5  -1989383.718 5        10.250           7.750
 93  3 20 19 32 45.0000000  0  5G29G19G27G18G28
  21635920.945     4110082.352 7   3202658.012 6        20.750          15.500
  21025417.977    -1788088.457 6  -1393314.243 6        19.500          18.000
  23152006.250    -5449595.478 6  -4246431.655 5        13.500           9.750
  20373977.344     -742559.243 8   -565703.298 6        29.750          15.750
  23831430.086    -2622925.385 5  -1996526.594 5        10.000           7.750
 93  3 20 19 33  0.0000000  0  5G29G19G27G18G28
  21641791.430     4140935.562 7   3226699.448 6        20.500          15.500
  21024079.531    -1795159.156 6  -1398823.880 6        18.500          18.000
  23146029.992    -5481009.544 6  -4270910.116 5        13.750           9.750
  20374378.828     -740445.841 8   -564056.499 6        30.000          15.750
  23829707.852    -2631977.579 5  -2003580.244 5        10.250           7.750
 93  3 20 19 33 15.0000000  0  5G29G19G27G18G28
  21647676.727     4171857.064 7   3250794.097 6        20.750          15.750
  21022734.500    -1802191.342 6  -1404303.504 6        19.500          18.000
  23140050.727    -5512410.117 6  -4295378.069 5        13.500           9.750
  20374798.789     -738245.028 8   -562341.589 6        29.750          15.750
  23828001.602    -2640918.188 5  -2010546.937 5        10.250           8.000
 93  3 20 19 33 30.0000000  0  5G29G19G27G18G28
  21653575.281     4202860.117 7   3274952.290 6        20.250          15.500
  21021401.680    -1809171.885 7  -1409742.885 6        20.000          17.750
  23134082.539    -5543786.516 6  -4319827.171 5        13.750           9.750
  20375237.313     -735942.724 8   -560547.594 6        30.000          15.750
  23826324.984    -2649734.643 5  -2017416.890 5        10.250           8.000
 93  3 20 19 33 45.0000000  0  5G29G19G27G18G28
  21659489.961     4233946.460 7   3299175.375 6        20.750          15.750
  21020088.250    -1816099.059 6  -1415140.680 6        19.500          17.750
  23128114.133    -5575139.735 6  -4344258.212 5        13.500           9.750
  20375695.703     -733538.046 8   -558673.829 6        30.000          15.750
  23824672.219    -2658427.916 5  -2024190.858 5        10.250           7.750
 93  3 20 19 34  0.0000000  0  5G29G19G27G18G28
  21665423.922     4265120.746 7   3323467.003 6        21.000          15.750
  21018787.320    -1822967.605 6  -1420492.792 6        19.000          17.750
  23122153.797    -5606462.299 6  -4368665.372 5        13.500           9.750
  20376172.367     -731027.182 8   -556717.322 6        30.250          15.750
  23823039.719    -2666995.258 5  -2030866.704 5        10.250           8.000
 93  3 20 19 34 15.0000000  0  5G29G19G27G18G28
  21671372.422     4296384.531 7   3347828.364 6        21.000          15.750
  21017487.523    -1829774.343 6  -1425796.738 6        19.750          18.000
  23116203.219    -5637748.574 6  -4393044.256 5        13.500           9.750
  20376670.484     -728408.608 8   -554676.881 6        30.250          15.750
  23821434.945    -2675438.456 5  -2037445.818 5        10.250           7.750
 93  3 20 19 34 30.0000000  0  5G29G19G27G18G28
  21677341.523     4327739.999 7   3372261.165 6        21.250          15.750
  21016198.781    -1836515.438 7  -1431049.538 6        20.250          17.750
  23110255.297    -5668994.176 6  -4417391.442 5        13.500           9.750
  20377190.438     -725679.042 8   -552549.959 6        30.000          15.750
  23819849.750    -2683756.317 5  -2043927.265 5        10.250           8.000
 93  3 20 19 34 45.0000000  0  5G29G19G27G18G28
  21683322.883     4359183.534 7   3396762.588 6        21.500          15.500
  21014932.047    -1843195.078 6  -1436254.452 6        19.750          17.750
  23104314.531    -5700205.426 6  -4441711.857 5        13.500           9.750
  20377729.664     -722844.741 8   -550341.421 6        30.000          15.750
  23818288.219    -2691952.679 5  -2050314.044 5        10.250           7.750
 93  3 20 19 35  0.0000000  0  5G29G19G27G18G28
  21689324.727     4390722.628 7   3421338.473 6        21.500          15.500
  21013668.211    -1849811.885 7  -1441410.400 6        20.000          18.000
  23098383.969    -5731378.820 6  -4466002.776 5        13.750           9.750
  20378292.258     -719897.398 8   -548044.801 6        30.250          15.750
  23816758.727    -2700025.632 5  -2056604.661 5        10.250           7.750
 93  3 20 19 35 15.0000000  0  5G29G19G27G18G28
  21695347.492     4422362.973 7   3445993.260 6        21.500          15.500
  21012425.828    -1856359.935 6  -1446512.774 6        19.500          17.750
  23092461.406    -5762509.893 6  -4490260.712 5        13.750           9.750
  20378873.625     -716833.111 8   -545657.053 6        30.250          15.750
  23815239.156    -2707974.031 5  -2062798.207 5        10.250           7.750
 93  3 20 19 35 30.0000000  0  5G29G19G27G18G28
  21701386.953     4454103.142 7   3470725.826 6        21.250          15.250
  21011187.742    -1862845.457 7  -1451566.428 6        20.000          17.750
  23086542.344    -5793601.825 6  -4514488.159 5        13.250          10.000
  20379477.797     -713656.033 8   -543181.413 6        30.250          15.750
  23813751.414    -2715805.364 5  -2068900.555 5        10.250           7.750
 93  3 20 19 35 45.0000000  0  5G29G19G27G18G28
  21707443.727     4485940.559 7   3495534.173 6        21.250          15.250
  21009966.844    -1869273.450 6  -1456575.253 6        19.750          18.000
  23080632.750    -5824655.219 6  -4538685.569 5        13.500          10.000
  20380103.227     -710370.771 8   -540621.477 6        30.500          15.750
  23812283.336    -2723520.957 5  -2074912.703 5        10.250           7.750
 93  3 20 19 36  0.0000000  0  5G29G19G27G18G28
  21713518.695     4517873.128 7   3520416.662 6        21.000          15.500
  21008753.453    -1875642.619 7  -1461538.241 6        20.000          18.000
  23074731.336    -5855667.996 6  -4562851.337 5        13.750          10.000
  20380749.398     -706977.662 8   -537977.506 6        30.500          15.750
  23810842.953    -2731118.177 5  -2080832.630 5        10.250           7.750
 93  3 20 19 36 15.0000000  0  5G29G19G27G18G28
  21719616.438     4549902.815 7   3545374.834 6        21.250          15.250
  21007556.188    -1881948.995 6  -1466452.290 6        19.750          17.750
  23068840.852    -5886638.048 6  -4586983.805 5        13.500          10.000
  20381413.813     -703472.250 8   -535246.025 6        30.500          15.750
  23809416.156    -2738594.468 5  -2086658.302 5        10.250           7.750
 93  3 20 19 36 30.0000000  0  5G29G19G27G18G28
  21725725.234     4582023.506 7   3570403.908 6        20.750          15.250
  21006361.203    -1888198.926 7  -1471322.369 6        20.000          18.000
  23062950.648    -5917575.314 6  -4611090.727 5        13.750          10.000
  20382103.914     -699861.804 8   -532432.700 6        30.500          15.750
  23808011.648    -2745957.031 5  -2092395.375 5        10.250           7.750
 93  3 20 19 36 45.0000000  0  5G29G19G27G18G28
  21731857.070     4614233.458 7   3595502.539 6        21.000          15.250
  21005189.469    -1894395.862 6  -1476151.145 6        19.500          17.750
  23057066.477    -5948485.876 6  -4635176.839 5        13.500          10.000
  20382808.258     -696151.381 8   -529541.470 6        30.750          15.750
  23806631.578    -2753207.550 5  -2098045.140 5        10.250           7.750
 93  3 20 19 37  0.0000000  0  5G29G19G27G18G28
  21738001.758     4646524.532 7   3620664.377 6        21.000          15.000
  21004014.289    -1900545.589 7  -1480943.143 6        20.000          18.000
  23051191.883    -5979373.838 6  -4659245.346 5        14.000          10.000
  20383532.906     -692347.230 8   -526577.204 6        30.750          15.750
  23805279.070    -2760352.367 5  -2103612.523 5        10.500           7.750
 93  3 20 19 37 15.0000000  0  5G29G19G27G18G28
  21744164.055     4678897.990 7   3645890.416 6        21.000          15.000
  21002859.477    -1906643.031 6  -1485694.395 6        19.500          18.000
  23045315.992    -6010234.647 6  -4683292.692 5        13.750          10.000
  20384275.844     -688445.793 8   -523537.130 6        30.750          16.000
  23803936.031    -2767387.197 5  -2109094.218 5        10.250           7.750
 93  3 20 19 37 30.0000000  0  5G29G19G27G18G28
  21750339.477     4711353.968 7   3671180.749 6        21.000          15.000
  21001702.523    -1912684.509 6  -1490402.030 6        19.750          17.750
  23039453.609    -6041063.858 6  -4707315.416 5        14.250          10.000
  20385038.359     -684444.550 8   -520419.287 6        30.750          15.750
  23802622.094    -2774307.228 5  -2114486.462 5        10.250           7.750
 93  3 20 19 37 45.0000000  0  5G29G19G27G18G28
  21756533.648     4743896.397 7   3696538.460 6        21.000          14.750
  21000569.047    -1918667.996 6  -1495064.500 6        19.750          18.000
  23033592.969    -6071855.278 6  -4731308.700 5        13.750          10.000
  20385818.688     -680337.708 8   -517219.158 6        30.750          15.750
  23801326.656    -2781104.587 5  -2119783.105 5        10.250           7.750
 93  3 20 19 38  0.0000000  0  5G29G19G27G18G28
  21762742.156     4776524.042 7   3721962.566 6        21.000          14.750
  20999446.797    -1924592.097 6  -1499680.674 6        19.000          18.000
  23027740.445    -6102609.738 6  -4755273.179 5        14.000          10.000
  20386620.539     -676124.989 8   -513936.530 6        30.750          16.000
  23800055.094    -2787778.990 5  -2124983.942 5        10.000           7.750
 93  3 20 19 38 15.0000000  0  5G29G19G27G18G28
  21768965.391     4809233.277 7   3747450.244 6        20.750          14.500
  20998326.953    -1930460.983 6  -1504253.827 6        19.750          18.000
  23021892.766    -6133332.067 6  -4779212.618 5        14.000          10.000
  20387441.438     -671808.206 8   -510572.806 6        30.750          15.750
  23798802.391    -2794335.476 5  -2130092.891 5        10.000           7.750
 93  3 20 19 38 30.0000000  0  5G29G19G27G18G28
  21775205.117     4842024.716 7   3773001.979 6        21.000          14.500
  20997218.445    -1936277.111 6  -1508785.880 6        19.750          18.000
  23016052.844    -6164023.442 6  -4803127.950 5        14.000          10.000
  20388281.828     -667388.983 8   -507129.269 6        30.500          16.000
  23797585.273    -2800775.555 5  -2135111.152 5        10.250           7.750
 93  3 20 19 38 45.0000000  0  5G29G19G27G18G28
  21781463.727     4874904.275 7   3798622.374 6        21.000          14.750
  20996118.586    -1942037.407 6  -1513274.422 6        19.750          18.000
  23010219.617    -6194679.123 6  -4827015.461 5        14.000          10.000
  20389144.820     -662864.004 8   -503603.320 6        30.750          16.000
  23796386.289    -2807093.748 5  -2140034.418 5        10.250           7.750
 93  3 20 19 39  0.0000000  0  5G29G19G27G18G28
  21787735.203     4907876.975 7   3824315.350 6        21.000          14.500
  20995031.828    -1947738.601 7  -1517716.913 6        20.250          18.000
  23004393.781    -6225291.771 6  -4850869.453 5        13.750          10.000
  20390025.875     -658224.124 8   -499987.832 6        30.750          15.750
  23795207.219    -2813285.251 5  -2144858.965 5        10.000           7.750
 93  3 20 19 39 15.0000000  0  5G29G19G27G18G28
  21794030.172     4940941.737 7   3850080.059 6        21.250          14.500
  20993961.531    -1953382.282 6  -1522114.583 6        19.500          18.000
  22998577.016    -6255862.280 6  -4874690.591 5        14.000          10.000
  20390932.125     -653467.370 8   -496281.281 6        30.750          15.750
  23794055.148    -2819350.836 5  -2149585.402 5        10.000           8.000
 93  3 20 19 39 30.0000000  0  5G29G19G27G18G28
  21800337.578     4974097.538 7   3875915.715 6        20.750          14.500
  20992904.359    -1958973.999 6  -1526471.764 6        18.500          18.000
  22992769.516    -6286395.736 6  -4898482.870 5        14.000          10.000
  20391859.664     -648595.906 8   -492485.341 6        30.500          16.000
  23792921.945    -2825292.925 5  -2154215.579 5        10.250           7.750
 93  3 20 19 39 45.0000000  0  5G29G19G27G18G28
  21806665.398     5007353.910 7   3901829.732 6        21.000          14.750
  20991845.250    -1964507.280 6  -1530783.414 6        19.250          18.250
  22986965.945    -6316885.227 6  -4922240.888 5        14.000          10.000
  20392809.688     -643603.558 8   -488595.210 6        30.500          15.750
  23791805.688    -2831104.615 5  -2158744.167 5        10.000           7.750
 93  3 20 19 40  0.0000000  0  5G29G19G27G18G28
  21813012.109     5040703.162 7   3927816.124 6        21.000          14.750
  20990809.867    -1969990.649 6  -1535056.172 6        18.500          18.000
  22981169.586    -6347343.423 6  -4945974.514 5        13.750          10.000
  20393780.211     -638501.120 8   -484619.294 6        30.750          15.750
  23790729.539    -2836794.869 5  -2163178.118 5        10.000           7.750
 93  3 20 19 40 15.0000000  0  5G29G19G27G18G28
  21819376.539     5074142.184 7   3953872.460 6        21.250          14.500
  20989767.109    -1975424.078 6  -1539290.012 6        19.250          18.000
  22975379.734    -6377775.174 6  -4969687.539 5        14.000          10.000
  20394771.641     -633293.786 8   -480561.638 6        30.500          15.750
  23789670.016    -2842367.331 5  -2167520.295 5        10.000           7.750
 93  3 20 19 40 30.0000000  0  5G29G19G27G18G28
  21825756.453     5107676.611 7   3980003.146 6        21.000          14.500
  20988751.875    -1980802.158 6  -1543480.720 6        18.750          18.000
  22969593.367    -6408176.386 6  -4993376.776 5        13.750          10.000
  20395782.164     -627978.584 8   -476419.929 6        30.750          15.750
  23788628.781    -2847815.842 5  -2171765.900 5        10.250           7.750
 93  3 20 19 40 45.0000000  0  5G29G19G27G18G28
  21832157.133     5141305.365 7   4006207.337 6        21.000          14.500
  20987733.094    -1986125.759 6  -1547628.984 6        19.250          18.250
  22963814.633    -6438548.072 6  -5017042.998 5        14.000          10.000
  20396814.273     -622558.505 8   -472196.499 6        30.500          15.750
  23787613.320    -2853141.421 5  -2175915.667 5        10.250           7.750
 93  3 20 19 41  0.0000000  0  5G29G19G27G18G28
  21838571.961     5175027.989 7   4032484.661 6        20.750          14.500
  20986718.984    -1991393.458 7  -1551733.685 6        20.000          18.250
  22958038.500    -6468889.065 6  -5040685.303 5        14.000          10.000
  20397866.727     -617031.041 8   -467889.393 6        30.500          15.750
  23786627.281    -2858342.031 5  -2179968.072 5        10.000           7.750
 93  3 20 19 41 15.0000000  0  5G29G19G27G18G28
  21845008.852     5208845.134 7   4058835.648 6        20.750          14.000
  20985736.469    -1996598.727 6  -1555789.745 6        19.000          17.750
  22952269.828    -6499195.805 6  -5064300.919 5        14.000          10.000
  20398938.922     -611393.535 8   -463496.538 6        30.750          15.500
  23785666.633    -2863411.344 5  -2183918.186 5        10.250           7.750
 93  3 20 19 41 30.0000000  0  5G29G19G27G18G28
  21851460.953     5242754.840 7   4085258.746 6        20.750          14.250
  20984761.313    -2001740.248 6  -1559796.126 6        18.500          18.250
  22946508.336    -6529471.180 6  -5087892.102 5        14.000          10.500
  20400033.086     -605648.792 8   -459020.125 6        30.750          15.750
  23784727.586    -2868347.766 5  -2187764.745 5        10.500           8.000
 93  3 20 19 41 45.0000000  0  5G29G19G27G18G28
  21857930.914     5276755.138 7   4111752.441 6        20.750          14.250
  20983791.695    -2006820.800 6  -1563755.000 6        19.000          18.250
  22940755.438    -6559718.478 6  -5111461.392 5        14.250          10.250
  20401144.289     -599801.829 8   -454464.058 6        30.750          15.750
  23783818.289    -2873155.596 5  -2191511.085 5        10.250           7.750
 93  3 20 19 42  0.0000000  0  5G29G19G27G18G28
  21864418.391     5310842.448 7   4138313.933 6        20.750          14.000
  20982846.805    -2011841.758 6  -1567667.442 6        18.250          18.250
  22935002.930    -6589941.160 6  -5135011.512 5        14.000          10.250
  20402277.445     -593851.118 8   -449827.149 6        30.750          15.750
  23782921.641    -2877836.802 5  -2195158.765 5        10.250           7.750
 93  3 20 19 42 15.0000000  0  5G29G19G27G18G28
  21870920.453     5345010.139 7   4164938.070 6        20.500          14.250
  20981893.766    -2016806.099 6  -1571535.758 6        19.000          18.250
  22929255.953    -6620140.525 6  -5158543.460 5        14.000          10.250
  20403429.641     -587797.326 8   -445109.916 6        30.750          15.750
  23782049.570    -2882395.655 5  -2198711.117 5        10.000           7.750
 93  3 20 19 42 30.0000000  0  5G29G19G27G18G28
  21877435.617     5379258.950 7   4191625.417 6        20.500          14.000
  20980955.172    -2021711.353 6  -1575358.034 6        19.500          18.250
  22923515.500    -6650311.466 6  -5182053.260 5        13.750          10.000
  20404602.008     -581634.171 8   -440307.471 6        30.750          15.750
  23781207.750    -2886830.712 5  -2202166.988 5        10.500           7.750
 93  3 20 19 42 45.0000000  0  5G29G19G27G18G28
  21883967.703     5413583.025 7   4218371.412 6        20.250          14.000
  20980035.750    -2026564.995 6  -1579140.098 6        19.000          18.250
  22917780.070    -6680457.996 6  -5205544.046 5        14.000          10.250
  20405794.891     -575362.431 8   -435420.405 6        31.000          15.750
  23780388.070    -2891147.286 5  -2205530.537 5        10.250           7.750
 93  3 20 19 43  0.0000000  0  5G29G19G27G18G28
  21890515.641     5447984.614 7   4245177.802 6        20.250          14.000
  20979115.750    -2031363.495 6  -1582879.192 6        19.500          18.250
  22912048.602    -6710575.691 6  -5229012.349 5        14.000          10.250
  20407009.992     -568977.092 8   -430444.830 6        30.750          15.750
  23779582.148    -2895342.607 5  -2208799.605 5        10.250           7.750
 93  3 20 19 43 15.0000000  0  5G29G19G27G18G28
  21897075.688     5482459.022 7   4272040.928 6        20.250          13.750
  20978220.336    -2036110.214 6  -1586577.941 6        19.000          18.250
  22906317.594    -6740669.150 6  -5252461.777 5        14.000          10.250
  20408246.344     -562481.229 8   -425383.129 6        30.750          15.750
  23778815.289    -2899419.070 5  -2211976.052 5        10.500           7.750
 93  3 20 19 43 30.0000000  0  5G29G19G27G18G28
  21903652.531     5517007.972 7   4298962.147 6        20.250          13.750
  20977319.477    -2040805.606 7  -1590236.687 6        20.000          18.500
  22900601.211    -6770738.104 6  -5275892.096 5        14.000          10.250
  20409502.766     -555875.865 8   -420236.107 6        30.750          15.500
  23778056.336    -2903378.663 5  -2215061.439 5        10.500           7.750
 93  3 20 19 43 45.0000000  0  5G29G19G27G18G28
  21910243.109     5551634.656 7   4325943.932 6        20.500          13.750
  20976443.250    -2045452.206 6  -1593857.412 6        19.250          18.500
  22894882.273    -6800779.381 6  -5299300.854 5        14.250          10.250
  20410782.352     -549160.414 8   -415003.293 6        30.750          15.500
  23777326.906    -2907223.424 5  -2218057.342 5        10.500           7.750
 93  3 20 19 44  0.0000000  0  5G29G19G27G18G28
  21916846.516     5586343.053 7   4352989.399 6        20.500          13.750
  20975576.070    -2050045.526 6  -1597436.619 6        18.500          18.250
  22889171.148    -6830784.416 6  -5322681.374 5        14.250          10.500
  20412081.852     -542329.454 8   -409680.477 6        30.750          15.500
  23776620.344    -2910946.895 5  -2220958.734 5        10.500           7.750
 93  3 20 19 44 15.0000000  0  5G29G19G27G18G28
  21923465.445     5621134.487 7   4380099.562 6        20.250          13.500
  20974705.078    -2054582.399 6  -1600971.851 6        19.000          18.500
  22883471.305    -6860748.296 6  -5346029.822 5        14.750          10.250
  20413403.336     -535381.253 8   -404266.306 6        31.000          15.750
  23775931.133    -2914545.909 5  -2223763.144 5        10.000           7.500
 93  3 20 19 44 30.0000000  0  5G29G19G27G18G28
  21930101.414     5656009.114 7   4407274.549 6        20.250          13.500
  20973865.891    -2059064.163 6  -1604464.136 6        18.250          18.500
  22877777.086    -6890671.642 6  -5369346.686 5        14.500          10.250
  20414747.086     -528321.341 8   -398765.093 6        30.750          15.750
  23775269.297    -2918021.993 5  -2226471.763 5        10.250           7.500
 93  3 20 19 44 45.0000000  0  5G29G19G27G18G28
  21936753.773     5690968.185 7   4434515.344 6        20.250          13.750
  20973007.703    -2063494.645 6  -1607916.462 6        19.250          18.500
  22872086.930    -6920556.724 6  -5392633.734 5        14.500          10.500
  20416111.344     -521154.022 8   -393180.179 6        31.000          15.750
  23774633.156    -2921376.843 5  -2229085.919 5        10.250           7.500
 93  3 20 19 45  0.0000000  0  5G29G19G27G18G28
  21943422.508     5726009.383 7   4461820.131 6        20.250          13.500
  20972172.883    -2067875.665 6  -1611330.245 6        19.500          18.500
  22866411.461    -6950407.823 6  -5415894.303 5        14.750          10.250
  20417493.852     -513887.953 8   -387518.320 6        31.000          15.750
  23774018.125    -2924613.108 5  -2231607.663 5        10.250           7.500
 93  3 20 19 45 15.0000000  0  5G29G19G27G18G28
  21950110.453     5761141.339 7   4489195.641 6        20.250          13.500
  20971352.625    -2072203.807 6  -1614702.823 6        19.250          18.500
  22860734.961    -6980219.192 6  -5439123.905 5        15.000          10.250
  20418894.813     -506520.690 8   -381777.607 6        31.000          16.000
  23773426.508    -2927722.762 5  -2234030.760 5        10.000           7.500
 93  3 20 19 45 30.0000000  0  5G29G19G27G18G28
  21956810.422     5796365.763 7   4516643.196 6        20.000          13.500
  20970545.883    -2076482.073 6  -1618036.536 6        18.500          18.500
  22855069.094    -7009991.500 6  -5462323.077 5        15.000          10.500
  20420317.148     -499053.123 8   -375958.735 6        31.000          15.750
  23772857.320    -2930706.342 5  -2236355.605 5        10.250           7.500
 93  3 20 19 45 45.0000000  0  5G29G19G27G18G28
  21963531.219     5831682.365 7   4544162.589 6        20.000          13.500
  20969732.945    -2080713.438 6  -1621333.705 6        19.250          18.500
  22849409.813    -7039727.080 6  -5485493.635 5        14.750          10.250
  20421755.867     -491486.230 8   -370062.471 6        31.000          16.000
  23772308.078    -2933567.943 5  -2238585.406 5        10.250           7.500
 93  3 20 19 46  0.0000000  0  5G29G19G27G18G28
  21970268.281     5867086.750 6   4571750.381 6        19.750          13.250
  20968929.133    -2084903.514 6  -1624598.698 6        19.750          18.500
  22843758.672    -7069431.862 6  -5508640.182 5        15.000          10.250
  20423214.039     -483823.539 8   -364091.559 6        31.000          16.000
  23771789.773    -2936309.449 5  -2240721.623 5        10.500           7.750
 93  3 20 19 46 15.0000000  0  5G29G19G27G18G28
  21977023.016     5902582.633 6   4599409.468 6        19.750          13.250
  20968146.313    -2089047.023 6  -1627827.405 6        19.250          18.500
  22838114.367    -7099104.364 6  -5531761.589 5        15.250          10.250
  20424692.492     -476058.706 8   -358041.044 6        31.000          16.000
  23771296.961    -2938926.653 5  -2242760.989 5        10.750           7.750
 93  3 20 19 46 30.0000000  0  5G29G19G27G18G28
  21983795.969     5938167.282 6   4627137.723 6        19.750          13.250
  20967373.984    -2093147.608 6  -1631022.669 6        18.750          18.500
  22832471.711    -7128750.823 6  -5554862.699 5        15.000          10.250
  20426188.758     -468195.044 8   -351913.529 6        31.000          16.000
  23770817.133    -2941424.683 5  -2244707.484 5        10.500           7.500
 93  3 20 19 46 45.0000000  0  5G29G19G27G18G28
  21990584.250     5973839.986 6   4654934.594 6        19.750          13.250
  20966595.070    -2097203.964 6  -1634183.465 6        19.250          18.500
  22826835.820    -7158370.152 6  -5577942.664 5        15.250          10.500
  20427704.461     -460229.667 8   -345706.753 6        31.000          16.000
  23770364.313    -2943802.587 5  -2246560.392 5        10.750           7.750
 93  3 20 19 47  0.0000000  0  5G29G19G27G18G28
  21997391.414     6009607.836 6   4682805.599 6        19.750          13.500
  20965829.898    -2101208.136 6  -1637303.601 6        19.500          18.500
  22821208.797    -7187954.300 6  -5600995.219 5        15.500          10.500
  20429240.969     -452154.328 8   -339414.298 6        30.750          16.000
  23769938.430    -2946052.104 5  -2248313.242 5        11.000           7.750
 93  3 20 19 47 15.0000000  0  5G29G19G27G18G28
  22004213.813     6045466.422 6   4710747.317 6        19.750          13.250
  20965079.180    -2105164.117 6  -1640386.182 6        19.250          18.500
  22815581.992    -7217508.766 6  -5624024.639 5        15.500          10.500
  20430798.719     -443971.521 8   -333038.096 6        30.750          15.750
  23769532.625    -2948175.466 5  -2249967.795 5        10.750           7.750
 93  3 20 19 47 30.0000000  0  5G29G19G27G18G28
  22011051.867     6081414.330 6   4738758.626 6        19.750          13.500
  20964331.891    -2109072.993 6  -1643432.065 6        19.750          18.500
  22809963.359    -7247031.194 6  -5647029.104 5        15.250          10.500
  20432376.961     -435675.992 8   -326574.058 6        31.000          16.000
  23769154.078    -2950173.455 5  -2251524.666 5        11.000           7.750
 93  3 20 19 47 45.0000000  0  5G29G19G27G18G28
  22017910.484     6117447.235 6   4766836.172 6        19.750          13.500
  20963601.711    -2112929.628 6  -1646437.233 6        19.250          18.500
  22804348.781    -7276522.223 6  -5670009.102 5        15.250          10.500
  20433977.500     -427264.495 8   -320019.655 6        30.750          16.000
  23768795.234    -2952048.980 5  -2252986.096 5        11.000           7.750
 93  3 20 19 48  0.0000000  0  5G29G19G27G18G28
  22024782.039     6153562.406 6   4794977.821 6        19.750          13.250
  20962875.703    -2116728.961 6  -1649397.755 6        19.500          18.500
  22798745.023    -7305979.814 6  -5692963.046 5        15.500          10.750
  20435599.578     -418736.341 8   -313374.358 6        30.750          15.750
  23768462.055    -2953797.904 5  -2254348.883 5        11.000           7.750
 93  3 20 19 48 15.0000000  0  5G29G19G27G18G28
  22031670.195     6189754.480 6   4823179.398 6        19.750          13.500
  20962165.875    -2120470.854 6  -1652313.518 6        19.250          18.500
  22793147.180    -7335405.078 6  -5715891.795 5        15.500          10.750
  20437246.047     -410092.394 8   -306638.819 6        31.000          15.750
  23768154.367    -2955422.308 5  -2255614.647 5        11.000           7.750
 93  3 20 19 48 30.0000000  0  5G29G19G27G18G28
  22038574.539     6226026.564 6   4851443.314 6        19.750          13.250
  20961463.883    -2124151.184 6  -1655181.308 6        19.500          18.500
  22787552.219    -7364796.103 6  -5738793.868 5        15.500          10.750
  20438913.672     -401330.099 8   -299811.074 6        30.750          15.750
  23767865.680    -2956920.497 5  -2256782.056 5        11.000           7.750
 93  3 20 19 48 45.0000000  0  5G29G19G27G18G28
  22045490.391     6262379.685 6   4879770.374 6        19.500          13.500
  20960778.102    -2127768.028 6  -1657999.627 6        19.250          18.500
  22781968.336    -7394148.987 6  -5761666.222 5        15.750          10.750
  20440602.750     -392449.210 8   -292890.912 6        30.750          15.750
  23767615.039    -2958289.050 5  -2257848.451 5        10.750           7.750
 93  3 20 19 49  0.0000000  0  5G29G19G27G18G28
  22052425.172     6298810.973 6   4908158.345 6        19.500          13.250
  20960099.523    -2131326.160 6  -1660772.200 6        19.750          18.500
  22776388.328    -7423468.711 6  -5784512.735 5        16.000          10.750
  20442312.813     -383455.490 8   -285882.828 6        30.500          15.750
  23767369.461    -2959531.464 5  -2258816.566 5        11.000           7.750
 93  3 20 19 49 15.0000000  0  5G29G19G27G18G28
  22059371.727     6335323.934 6   4936609.957 6        19.250          13.250
  20959435.016    -2134823.876 6  -1663497.695 6        19.250          18.500
  22770814.867    -7452755.143 6  -5807333.308 5        15.750          11.000
  20444046.773     -374348.148 8   -278786.214 6        31.000          15.750
  23767161.836    -2960642.960 5  -2259682.656 5        10.750           7.750
 93  3 20 19 49 30.0000000  0  5G29G19G27G18G28
  22066334.633     6371914.666 6   4965122.171 6        19.500          13.500
  20958777.813    -2138263.142 6  -1666177.644 6        19.750          18.500
  22765248.945    -7482009.318 6  -5830128.746 5        16.000          10.750
  20445802.086     -365127.208 8   -271601.076 6        30.750          15.750
  23766973.984    -2961623.914 5  -2260447.023 5        10.250           7.750
 93  3 20 19 49 45.0000000  0  5G29G19G27G18G28
  22073311.234     6408582.863 6   4993694.749 6        19.500          13.250
  20958137.063    -2141642.114 6  -1668810.607 6        19.250          18.500
  22759687.922    -7511230.227 6  -5852898.268 5        16.250          11.000
  20447578.094     -355793.346 8   -264327.947 6        30.750          15.750
  23766811.523    -2962474.631 5  -2261109.913 5        10.750           7.750
 93  3 20 19 50  0.0000000  0  5G29G19G27G18G28
  22080305.398     6445328.558 6   5022327.715 6        19.500          13.500
  20957503.484    -2144962.858 6  -1671398.200 6        19.750          18.500
  22754132.750    -7540420.288 6  -5875643.753 5        16.000          10.750
  20449374.805     -346352.013 8   -256971.077 6        30.750          15.500
  23766677.047    -2963195.148 5  -2261671.353 5        10.750           7.500
 93  3 20 19 50 15.0000000  0  5G29G19G27G18G28
  22087313.555     6482156.082 6   5051024.443 6        19.250          13.250
  20956883.836    -2148229.667 6  -1673943.773 6        19.750          18.500
  22748582.219    -7569577.636 6  -5898363.748 5        15.750          11.000
  20451191.859     -336803.216 8   -249530.466 6        30.750          15.500
  23766563.305    -2963784.753 5  -2262130.789 5        10.750           7.500
 93  3 20 19 50 30.0000000  0  5G29G19G27G18G28
  22094337.242     6519060.067 6   5079780.753 6        19.250          13.500
  20956277.859    -2151454.448 6  -1676456.589 6        19.000          18.500
  22743041.109    -7598712.123 6  -5921065.921 5        16.250          11.000
  20453027.250     -327155.888 8   -242013.078 6        30.500          15.750
  23766475.656    -2964251.977 5  -2262494.857 5        11.000           7.750
 93  3 20 19 50 45.0000000  0  5G29G19G27G18G28
  22101376.859     6556051.200 6   5108604.971 6        19.250          13.250
  20955669.141    -2154627.846 6  -1678929.366 6        19.750          18.500
  22737503.836    -7627812.613 6  -5943741.611 5        16.000          11.000
  20454883.180     -317404.076 8   -234414.280 6        30.250          15.500
  23766409.805    -2964584.025 5  -2262753.599 5        10.500           7.500
 93  3 20 19 51  0.0000000  0  5G29G19G27G18G28
  22108429.219     6593126.473 6   5137494.756 6        18.750          13.250
  20955071.805    -2157754.282 7  -1681365.550 6        20.000          18.500
  22731971.781    -7656881.553 6  -5966392.710 5        16.000          11.000
  20456758.836     -307551.491 8   -226736.950 6        30.500          15.500
  23766373.469    -2964784.557 5  -2262909.865 5        10.500           7.750
 93  3 20 19 51 15.0000000  0  5G29G19G27G18G28
  22115499.828     6630282.043 6   5166447.108 6        19.000          13.500
  20954485.359    -2160841.354 6  -1683771.059 6        19.500          18.250
  22726441.789    -7685926.366 6  -5989025.021 5        16.000          11.250
  20458650.023     -297602.676 8   -218984.639 6        30.250          15.500
  23766358.922    -2964859.357 5  -2262968.160 5        10.500           7.500
 93  3 20 19 51 30.0000000  0  5G29G19G27G18G28
  22122588.836     6667523.770 6   5195466.582 6        18.750          13.250
  20953899.461    -2163882.745 7  -1686140.976 6        20.250          18.250
  22720924.188    -7714938.877 6  -6011632.150 5        16.000          11.250
  20460564.375     -287547.465 8   -211149.420 6        30.250          15.500
  23766371.453    -2964800.828 5  -2262922.555 5        10.750           7.500
 93  3 20 19 51 45.0000000  0  5G29G19G27G18G28
  22129689.969     6704849.361 6   5224551.423 6        18.750          13.250
  20953336.195    -2166881.841 6  -1688477.932 6        19.500          18.500
  22715407.906    -7743920.581 6  -6034215.279 5        16.250          11.250
  20462499.141     -277387.801 8   -203232.805 6        30.000          15.500
  23766406.391    -2964616.122 5  -2262778.625 5        11.000           7.750
 93  3 20 19 52  0.0000000  0  5G29G19G27G18G28
  22136812.227     6742266.744 6   5253707.781 6        18.750          13.250
  20952781.258    -2169832.029 6  -1690776.780 6        18.750          18.500
  22709900.180    -7772866.124 6  -6056770.236 5        16.000          11.250
  20464451.977     -267118.763 8   -195230.974 6        30.000          15.500
  23766465.500    -2964300.671 5  -2262532.826 5        11.000           7.500
 93  3 20 19 52 15.0000000  0  5G29G19G27G18G28
  22143949.719     6779775.803 6   5282935.571 6        18.750          13.250
  20952222.086    -2172733.324 6  -1693037.530 6        19.500          18.500
  22704397.992    -7801775.900 6  -6079297.315 5        16.250          11.250
  20466427.727     -256738.528 8   -187142.488 6        29.750          15.750
  23766554.219    -2963852.845 5  -2262183.875 5        10.750           7.500
 93  3 20 19 52 30.0000000  0  5G29G19G27G18G28
  22151103.188     6817366.975 6   5312227.357 6        18.750          13.250
  20951684.367    -2175595.251 6  -1695267.605 6        18.500          18.500
  22698901.313    -7830660.643 6  -6101804.887 5        16.250          11.250
  20468420.781     -246255.585 8   -178973.973 6        29.750          15.500
  23766660.430    -2963282.137 5  -2261739.174 5        10.750           7.750
 93  3 20 19 52 45.0000000  0  5G29G19G27G18G28
  22158270.352     6855034.967 6   5341579.006 6        18.750          13.250
  20951139.602    -2178418.400 6  -1697467.455 6        19.250          18.500
  22693410.875    -7859524.499 6  -6124296.184 5        16.250          11.250
  20470435.055     -235675.084 8   -170729.440 6        30.000          15.500
  23766791.156    -2962590.202 5  -2261200.008 5        10.750           7.750
 93  3 20 19 53  0.0000000  0  5G29G19G27G18G28
  22165455.773     6892792.817 6   5371000.661 6        18.750          13.250
  20950618.898    -2181188.926 6  -1699626.313 6        18.750          18.750
  22687924.461    -7888352.777 6  -6146759.762 5        16.500          11.250
  20472470.461     -224980.282 8   -162395.840 6        30.250          15.500
  23766951.539    -2961766.110 5  -2260557.855 5        10.750           7.750
 93  3 20 19 53 15.0000000  0  5G29G19G27G18G28
  22172654.492     6930636.164 6   5400488.945 6        18.250          13.250
  20950094.047    -2183911.713 6  -1701747.967 6        19.000          18.750
  22682442.734    -7917153.170 6  -6169201.610 5        16.000          11.500
  20474525.617     -214169.698 8   -153972.022 6        30.000          15.750
  23767126.828    -2960816.152 5  -2259817.627 5        10.750           7.750
 93  3 20 19 53 30.0000000  0  5G29G19G27G18G28
  22179873.273     6968560.977 6   5430040.710 6        18.250          13.250
  20949579.148    -2186587.007 7  -1703832.610 6        20.000          18.750
  22676966.195    -7945928.433 6  -6191623.866 5        16.250          11.500
  20476607.070     -203245.230 8   -145459.463 6        29.750          15.500
  23767333.492    -2959743.371 5  -2258981.697 5        10.250           7.750
 93  3 20 19 53 45.0000000  0  5G29G19G27G18G28
  22187105.680     7006571.810 6   5459659.500 6        18.250          13.250
  20949086.773    -2189204.605 6  -1705872.299 6        19.000          18.500
  22671502.969    -7974672.847 6  -6214022.089 5        16.500          11.500
  20478709.359     -192198.929 8   -136851.966 6        30.000          15.500
  23767561.828    -2958544.135 5  -2258047.239 5        10.750           8.000
 93  3 20 19 54  0.0000000  0  5G29G19G27G18G28
  22194355.922     7044665.184 6   5489342.609 6        18.500          13.250
  20948604.914    -2191768.784 6  -1707870.362 6        18.750          18.500
  22666032.266    -8003392.317 6  -6236400.878 5        16.000          11.500
  20480832.133     -181037.830 8   -128155.019 6        30.250          15.500
  23767807.203    -2957224.828 5  -2257019.208 5        10.500           8.000
 93  3 20 19 54 15.0000000  0  5G29G19G27G18G28
  22201621.781     7082842.206 6   5519090.899 6        18.250          13.250
  20948120.992    -2194276.747 6  -1709824.626 6        19.000          18.500
  22660568.945    -8032086.628 6  -6258760.064 5        16.000          11.750
  20482979.328     -169759.763 8   -119366.923 6        30.000          15.750
  23768090.422    -2955780.581 5  -2255893.816 5        10.500           8.000
 93  3 20 19 54 30.0000000  0  5G29G19G27G18G28
  22208901.266     7121106.330 6   5548907.059 6        18.250          13.250
  20947664.125    -2196725.766 6  -1711732.954 6        18.250          18.500
  22655116.375    -8060750.327 6  -6281095.386 5        16.250          11.750
  20485148.406     -158358.783 8   -110483.059 6        30.000          15.750
  23768386.992    -2954206.498 5  -2254667.268 5        10.750           8.250
 93  3 20 19 54 45.0000000  0  5G29G19G27G18G28
  22216201.969     7159456.736 6   5578790.450 6        18.000          13.250
  20947201.156    -2199116.655 6  -1713595.988 6        18.750          18.500
  22649668.492    -8089384.851 6  -6303407.981 5        16.250          11.750
  20487341.703     -146838.010 8   -101505.846 6        30.250          15.500
  23768711.719    -2952506.273 5  -2253342.416 5        10.500           8.000
 93  3 20 19 55  0.0000000  0  5G29G19G27G18G28
  22223510.891     7197889.279 6   5608737.846 6        18.000          13.000
  20946753.047    -2201450.380 6  -1715414.477 6        19.750          18.500
  22644225.500    -8117992.174 6  -6325699.380 5        16.250          11.750
  20489555.094     -135199.298 8    -92436.728 6        30.000          15.500
  23769057.703    -2950684.747 5  -2251923.035 5        10.500           8.000
 93  3 20 19 55 15.0000000  0  5G29G19G27G18G28
  22230842.852     7236404.133 6   5638749.371 5        18.250          10.000
  20946323.664    -2203727.468 6  -1717188.840 6        19.250          14.500
  22638789.047    -8146573.509 6  -6347970.529 5        16.500           9.000
  20491791.898     -123441.508 8    -83274.837 6        29.750          12.000
  23769424.477    -2948742.518 5  -2250409.610 5        10.750           5.500
 93  3 20 19 55 30.0000000  0  5G29G19G27G18G28
  22238184.922     7275004.559 6   5668827.586 5        18.000           9.750
  20945898.656    -2205943.207 7  -1718915.398 6        20.000          14.500
  22633351.109    -8175122.453 6  -6370216.433 5        16.500          10.000
  20494053.750     -111564.205 8    -74019.809 6        29.750          14.250
  23769821.203    -2946673.481 5  -2248797.377 5        10.750           7.250
 93  3 20 19 55 45.0000000  0  5G29G19G27G18G28
  22245549.313     7313693.074 6   5698974.436 6        18.000          12.250
  20945491.406    -2208096.714 6  -1720593.452 6        19.250          16.750
  22627927.578    -8203635.386 6  -6392434.280 5        16.750          10.750
  20496335.992      -99569.968 8    -64673.659 6        30.000          14.000
  23770240.750    -2944475.366 5  -2247084.552 5        10.500           7.500
 93  3 20 19 56  0.0000000  0  5G29G19G27G18G28
  22252929.820     7352468.992 6   5729189.397 6        18.250          12.750
  20945086.492    -2210191.574 7  -1722225.817 6        20.250          18.500
  22622508.211    -8232108.571 6  -6414621.146 5        17.000          11.750
  20498638.969      -87460.637 8    -55237.825 6        29.750          15.500
  23770680.711    -2942144.422 5  -2245268.226 5        10.500           8.000
 93  3 20 19 56 15.0000000  0  5G29G19G27G18G28
  22260325.672     7391326.486 6   5759467.915 6        18.000          12.750
  20944702.727    -2212235.635 6  -1723818.596 6        19.250          18.500
  22617095.266    -8260543.702 6  -6436778.362 5        17.000          11.750
  20500963.242      -75242.525 8    -45717.235 6        29.500          15.500
  23771148.000    -2939680.482 5  -2243348.272 5        10.000           8.250
 93  3 20 19 56 30.0000000  0  5G29G19G27G18G28
  22267736.156     7430268.209 6   5789812.072 6        18.000          12.750
  20944334.125    -2214225.130 6  -1725368.860 6        18.750          18.500
  22611695.148    -8288933.960 6  -6458900.616 5        17.250          11.750
  20503312.188      -62908.692 8    -36106.470 6        29.500          15.500
  23771647.898    -2937076.333 5  -2241319.061 5        10.250           8.000
 93  3 20 19 56 45.0000000  0  5G29G19G27G18G28
  22275158.883     7469291.478 6   5820219.773 6        18.000          12.750
  20943957.563    -2216164.855 6  -1726880.335 6        19.500          18.250
  22606302.008    -8317282.843 6  -6480990.628 5        17.250          11.750
  20505678.344      -50464.321 8    -26409.570 6        29.500          15.500
  23772167.328    -2934335.316 5  -2239183.196 5        10.250           8.000
 93  3 20 19 57  0.0000000  0  5G29G19G27G18G28
  22282599.297     7508392.237 6   5850687.847 6        18.000          12.750
  20943610.023    -2218055.821 6  -1728353.822 6        18.250          18.500
  22600912.727    -8345591.225 6  -6503049.079 6        17.500          12.000
  20508067.328      -37911.454 8    -16628.133 6        29.500          15.500
  23772711.609    -2931458.781 5  -2236941.726 5        10.000           8.000
 93  3 20 19 57 15.0000000  0  5G29G19G27G18G28
  22290055.078     7547577.155 6   5881221.507 6        18.000          12.750
  20943246.609    -2219893.645 6  -1729785.901 6        19.250          18.500
  22595535.367    -8373852.938 6  -6525071.173 6        17.500          12.000
  20510479.430      -25242.587 8     -6756.306 6        29.500          15.500
  23773288.766    -2928439.750 5  -2234589.232 5        10.000           8.000
 93  3 20 19 57 30.0000000  0  5G29G19G27G18G28
  22297529.344     7586841.823 6   5911817.304 6        18.000          12.500
  20942905.266    -2221686.630 6  -1731183.038 6        19.750          18.750
  22590163.805    -8402072.449 6  -6547060.378 6        17.250          12.000
  20512909.617      -12460.777 8      3203.534 6        29.250          15.500
  23773890.969    -2925280.189 5  -2232127.219 5        10.250           7.750
 93  3 20 19 57 45.0000000  0  5G29G19G27G18G28
  22305016.539     7626188.599 6   5942477.083 6        17.750          12.500
  20942573.227    -2223432.259 6  -1732543.267 6        19.500          18.500
  22584804.875    -8430249.153 6  -6569016.235 5        17.250          11.750
  20515366.281         434.424 8     13251.731 6        29.500          15.500
  23774518.961    -2921979.006 5  -2229554.866 5        10.500           8.000
 93  3 20 19 58  0.0000000  0  5G29G19G27G18G28
  22312517.305     7665614.579 6   5973198.583 6        17.750          12.250
  20942260.070    -2225131.835 6  -1733867.624 6        18.500          18.250
  22579449.914    -8458385.878 6  -6590940.934 5        17.500          11.750
  20517840.594       13441.248 8     23386.901 6        29.500          15.250
  23775174.648    -2918538.699 5  -2226874.087 5        10.500           7.750
 93  3 20 19 58 15.0000000  0  5G29G19G27G18G28
  22320036.063     7705121.106 6   6003982.846 6        17.750          12.500
  20941935.992    -2226782.274 6  -1735153.691 6        19.500          18.500
  22574103.078    -8486482.412 6  -6612834.315 6        17.250          12.000
  20520336.727       26562.747 8     33611.436 6        29.750          15.500
  23775851.367    -2914958.046 5  -2224083.948 5        10.500           7.750
 93  3 20 19 58 30.0000000  0  5G29G19G27G18G28
  22327569.227     7744703.044 6   6034825.872 6        17.750          12.250
  20941627.023    -2228385.371 7  -1736402.861 6        20.250          18.500
  22568761.063    -8514549.582 6  -6634704.812 6        17.250          12.000
  20522855.039       39794.833 8     43922.135 6        29.750          15.500
  23776561.914    -2911246.074 5  -2221191.490 5        10.500           8.000
 93  3 20 19 58 45.0000000  0  5G29G19G27G18G28
  22335118.367     7784374.319 6   6065738.506 6        18.000          12.250
  20941334.383    -2229929.197 6  -1737605.850 6        19.500          18.750
  22563427.422    -8542580.566 6  -6656547.115 6        17.500          12.000
  20525396.422       53146.688 8     54326.159 6        29.750          15.500
  23777293.781    -2907395.871 5  -2218191.318 5        10.500           7.750
 93  3 20 19 59  0.0000000  0  5G29G19G27G18G28
  22342683.797     7824126.952 6   6096714.538 6        18.000          12.250
  20941063.852    -2231422.027 6  -1738769.103 6        19.000          18.750
  22558098.531    -8570585.863 6  -6678369.404 6        17.500          12.000
  20527956.625       66607.704 8     64815.247 6        29.750          15.500
  23778046.445    -2903417.996 5  -2215091.656 5        10.500           7.750
 93  3 20 19 59 15.0000000  0  5G29G19G27G18G28
  22350262.969     7863958.759 6   6127752.260 6        17.750          12.250
  20940777.609    -2232865.503 6  -1739893.894 6        19.750          18.750
  22552773.961    -8598568.667 6  -6700174.163 6        17.750          12.000
  20530540.727       80177.247 8     75388.904 6        29.250          15.500
  23778831.047    -2899315.654 5  -2211895.012 5        10.500           7.750
 93  3 20 19 59 30.0000000  0  5G29G19G27G18G28
  22357858.070     7903878.040 6   6158858.152 6        17.750          12.250
  20940511.039    -2234256.204 7  -1740977.564 6        20.000          18.500
  22547452.805    -8626525.444 6  -6721958.648 6        17.750          12.250
  20533143.117       93858.559 8     86049.652 6        29.750          15.500
  23779635.750    -2895082.773 5  -2208596.642 5        10.750           7.750
 93  3 20 19 59 45.0000000  0  5G29G19G27G18G28
  22365470.625     7943881.044 6   6190029.275 6        17.750          12.000
  20940259.141    -2235594.966 6  -1742020.757 6        19.750          18.500
  22542138.781    -8654458.932 6  -6743724.983 6        17.750          12.000
  20535767.867      107646.412 8     96793.421 6        29.750          15.500
  23780461.102    -2890722.806 5  -2205199.251 5        10.750           7.750
 93  3 20 20  0  0.0000000  0  5G29G19G27G18G28
  22373101.359     7983971.807 6   6221268.777 6        17.500          12.250
  20940011.180    -2236873.804 7  -1743017.257 6        20.000          18.750
  22536827.336    -8682363.720 6  -6765468.954 6        17.750          12.000
  20538412.039      121543.766 8    107622.512 6        29.500          15.750
  23781320.023    -2886231.814 5  -2201699.763 5        10.500           7.750
 93  3 20 20  0 15.0000000  0  5G29G19G27G18G28
  22380743.977     8024145.209 6   6252572.680 6        17.500          12.000
  20939777.102    -2238100.778 7  -1743973.351 6        20.500          18.500
  22531521.156    -8710242.623 6  -6787192.755 6        18.000          12.250
  20541076.781      135549.060 8    118535.712 6        29.750          15.750
  23782200.477    -2881615.275 5  -2198102.433 5        10.500           7.750
 93  3 20 20  0 30.0000000  0  5G29G19G27G18G28
  22388406.977     8064406.603 6   6283945.150 6        17.750          12.000
  20939558.203    -2239271.225 7  -1744885.391 6        20.250          18.750
  22526222.477    -8738091.701 6  -6808893.323 6        18.000          12.250
  20543763.734      149669.512 8    129538.641 6        29.500          15.750
  23783102.273    -2876868.185 5  -2194403.394 5        10.500           7.750
 93  3 20 20  0 45.0000000  0  5G29G19G27G18G28
  22396084.695     8104750.122 6   6315381.606 6        17.500          12.000
  20939339.508    -2240394.907 7  -1745760.990 6        20.500          18.750
  22520927.313    -8765916.783 6  -6830575.189 6        18.000          12.250
  20546472.656      163898.015 8    140625.778 6        29.500          15.750
  23784033.172    -2871998.036 5  -2190608.451 5        10.750           8.000
 93  3 20 20  1  0.0000000  0  5G29G19G27G18G28
  22403777.211     8145179.547 6   6346885.005 6        17.250          12.000
  20939140.484    -2241471.221 7  -1746599.683 6        20.250          18.750
  22515639.969    -8793708.127 6  -6852230.763 6        18.250          12.250
  20549201.477      178237.166 8    151799.125 6        29.250          15.750
  23784984.430    -2867000.193 5  -2186714.015 5        10.500           8.000
 93  3 20 20  1 15.0000000  0  5G29G19G27G18G28
  22411487.633     8185693.643 6   6378454.382 6        17.000          12.000
  20938941.406    -2242500.253 7  -1747401.535 6        20.250          18.750
  22510357.203    -8821462.701 6  -6873857.692 6        18.000          12.250
  20551949.180      192689.225 8    163060.453 6        29.500          15.750
  23785958.016    -2861872.876 5  -2182718.682 5        10.750           8.000
 93  3 20 20  1 30.0000000  0  5G29G19G27G18G28
  22419213.188     8226290.018 6   6410087.866 6        17.250          12.000
  20938755.938    -2243483.072 7  -1748167.373 6        20.000          18.500
  22505081.141    -8849180.660 6  -6895456.085 6        18.000          12.250
  20554721.875      207252.361 8    174408.339 6        29.500          16.000
  23786959.047    -2856615.605 5  -2178622.089 5        10.750           8.000
 93  3 20 20  1 45.0000000  0  6G29G 2G19G27G18G28
  22426952.352     8266968.802 6   6441785.568 6        17.250          12.000
  24578846.000          -0.98814                         7.000
  20938574.773    -2244416.505 7  -1748894.727 6        20.250          18.750
  22499815.797    -8876858.690 6  -6917023.374 6        18.250          12.250
  20557517.164      221929.881 8    185845.351 6        29.500          15.750
  23787978.195    -2851226.848 5  -2174423.046 5        10.750           8.250
 93  3 20 20  2  0.0000000  0  6G29G 2G19G27G18G28
  22434707.383     8307724.271 6   6473543.029 6        17.000          12.000
  24570343.031      -44737.887 4                         7.250
  20938409.977    -2245302.628 6  -1749585.213 6        19.750          18.500
  22494556.531    -8904499.702 6  -6938561.803 6        18.250          12.250
  20560329.375      236722.250 8    197371.856 6        29.250          16.000
  23789034.195    -2845708.530 5  -2170123.039 5        10.750           8.250
 93  3 20 20  2 15.0000000  0  6G29G 2G19G27G18G28
  22442480.570     8348564.663 6   6505366.655 6        17.000          12.000
  24561840.086      -89447.233 4        -0.81515         7.250           5.500
  20938247.922    -2246136.941 6  -1750235.337 6        19.750          18.750
  22489304.336    -8932095.346 6  -6960064.890 6        18.250          12.250
  20563169.438      251640.005 8    208996.065 6        29.250          16.000
  23790107.961    -2840050.787 5  -2165714.397 5        10.750           8.000
 93  3 20 20  2 30.0000000  0  6G29G 2G19G27G18G28
  22450267.180     8389482.923 6   6537250.965 6        17.000          12.000
  24553331.289     -134136.813 4    -34823.728 5         7.250           5.500
  20938100.547    -2246927.576 6  -1750851.430 6        19.750          18.750
  22484062.070    -8959654.317 6  -6981539.397 6        18.500          12.250
  20566029.664      266674.446 8    220711.197 6        29.250          16.000
  23791209.766    -2834260.360 5  -2161202.363 5        10.500           8.250
 93  3 20 20  2 45.0000000  0  6G29G 2G19G27G18G28
  22458068.195     8430476.573 6   6569194.013 6        17.000          12.000
  24544830.742     -178805.354 5    -69630.225 5         7.500           5.750
  20937953.172    -2247674.218 7  -1751433.228 6        20.000          18.750
  22478822.547    -8987179.896 6  -7002987.880 6        18.000          12.250
  20568911.914      281823.209 8    232515.412 6        29.000          16.000
  23792340.055    -2828337.074 5  -2156586.818 5        10.750           8.250
 93  3 20 20  3  0.0000000  0  6G29G 2G19G27G18G28
  22465885.375     8471552.231 6   6601200.971 6        17.000          12.000
  24536342.430     -223442.643 5   -104412.415 5         7.500           5.750
  20937835.641    -2248368.792 6  -1751974.460 6        18.750          18.500
  22473594.727    -9014662.011 6  -7024402.500 6        18.500          12.500
  20571817.258      297092.515 8    244413.556 6        29.000          16.000
  23793491.414    -2822271.338 5  -2151860.256 5        10.500           8.250
 93  3 20 20  3 15.0000000  0  6G29G 2G19G27G18G28
  22473714.727     8512703.641 6   6633266.953 5        16.750          11.750
  24527848.203     -268048.846 5   -139170.348 5         7.500           5.750
  20937700.961    -2249011.675 7  -1752475.409 6        20.000          18.500
  22468370.813    -9042106.606 6  -7045787.885 6        18.500          12.500
  20574746.172      312481.655 8    256405.078 6        29.000          16.000
  23794671.875    -2816066.074 5  -2147024.986 5        10.500           8.250
 93  3 20 20  3 30.0000000  0  6G29G 2G19G27G18G28
  22481560.531     8553931.455 6   6665392.469 5        17.000          11.750
  24519365.219     -312620.452 5   -173901.336 5         7.500           5.750
  20937595.453    -2249597.172 6  -1752931.647 6        19.750          18.500
  22463154.656    -9069515.173 6  -7067145.188 6        18.500          12.500
  20577697.938      327993.593 8    268492.288 6        29.000          16.000
  23795880.758    -2809719.500 5  -2142079.601 5        10.500           8.250
 93  3 20 20  3 45.0000000  0  6G29G 2G19G27G18G28
  22489419.211     8595233.930 6   6697576.157 5        16.750          11.750
  24510883.289     -357158.039 4   -208605.819 5         7.250           5.750
  20937490.273    -2250125.478 7  -1753343.326 6        20.000          18.500
  22457945.492    -9096890.003 6  -7088476.209 6        18.750          12.500
  20580672.586      343626.999 8    280674.148 6        29.250          16.000
  23797114.797    -2803235.031 5  -2137026.762 5        10.750           8.250
 93  3 20 20  4  0.0000000  0  6G29G 2G19G27G18G28
  22497291.867     8636606.824 6   6729814.718 5        16.750          11.500
  24502417.750     -401666.158 5   -243287.341 5         7.500           6.000
  20937397.914    -2250603.485 7  -1753715.801 6        20.000          18.500
  22452741.820    -9124235.227 6  -7109784.160 6        18.750          12.500
  20583669.875      359377.173 8    292946.990 6        29.000          16.000
  23798374.055    -2796618.806 5  -2131871.261 5        10.750           8.500
 93  3 20 20  4 15.0000000  0  6G29G 2G19G27G18G28
  22505180.945     8678052.722 6   6762110.173 5        16.750          11.500
  24493953.930     -446139.329 5   -277941.611 5         7.750           6.000
  20937317.789    -2251031.028 7  -1754048.952 6        20.000          18.500
  22447543.914    -9151549.988 6  -7131068.371 6        18.750          12.500
  20586689.141      375243.617 8    305310.439 6        29.250          16.000
  23799656.016    -2789870.425 5  -2126612.786 5        10.500           8.500
 93  3 20 20  4 30.0000000  0  6G29G 2G19G27G18G28
  22513081.750     8719575.607 6   6794465.610 5        16.750          11.500
  24485496.828     -490567.465 4   -312560.825 5         7.250           6.000
  20937260.461    -2251405.440 6  -1754340.718 6        18.500          18.500
  22442351.805    -9178832.448 6  -7152327.415 6        18.750          12.500
  20589730.492      391226.486 8    317764.608 6        29.000          16.000
  23800967.250    -2782990.795 5  -2121252.039 5        10.750           8.500
 93  3 20 20  4 45.0000000  0  6G29G 2G19G27G18G28
  22520999.422     8761180.354 6   6826884.845 5        16.500          11.500
  24477061.063     -534941.791 5   -347138.091 5         7.500           6.000
  20937184.367    -2251718.444 7  -1754584.614 6        20.000          18.500
  22437167.297    -9206079.593 6  -7173558.942 6        19.000          12.500
  20592797.039      407333.524 8    330315.527 6        29.000          16.250
  23802300.867    -2775975.211 5  -2115785.358 5        10.750           8.500
 93  3 20 20  5  0.0000000  0  6G29G 2G19G27G18G28
  22528929.680     8802862.977 6   6859364.755 5        16.500          11.500
  24468610.984     -579268.447 4   -381678.209 5         7.250           6.000
  20937151.867    -2251977.181 6  -1754786.233 6        18.500          18.500
  22431988.773    -9233295.099 6  -7194765.809 6        19.000          12.500
  20595884.719      423560.901 8    342960.221 6        29.250          16.250
  23803662.203    -2768830.156 5  -2110217.797 5        11.000           8.500
 93  3 20 20  5 15.0000000  0  6G29G 2G19G27G18G28
  22536878.367     8844621.279 6   6891903.631 5        16.750          11.500
  24460198.359     -623552.494 5   -416185.128 5         7.500           6.000
  20937097.336    -2252186.644 6  -1754949.461 6        19.750          18.500
  22426813.617    -9260482.199 6  -7215950.546 6        18.750          12.750
  20598994.188      439904.491 8    355695.468 6        29.000          16.250
  23805045.234    -2761560.402 5  -2104553.058 5        10.750           8.500
 93  3 20 20  5 30.0000000  0  6G29G 2G19G27G18G28
  22544838.000     8886457.695 6   6924503.378 5        16.750          11.500
  24451775.406     -667795.435 5   -450660.023 5         7.750           6.000
  20937078.266    -2252347.250 6  -1755074.612 6        18.500          18.500
  22421649.109    -9287641.148 6  -7237113.335 6        19.000          12.750
  20602128.117      456365.234 8    368522.000 6        29.000          16.250
  23806450.063    -2754166.632 5  -2098791.692 5        11.250           8.500
 93  3 20 20  5 45.0000000  0  6G29G 2G19G27G18G28
  22552812.227     8928366.679 6   6957159.670 5        16.750          11.500
  24443358.984     -712004.862 5   -485108.810 5         7.750           6.000
  20937041.469    -2252471.884 6  -1755171.737 6        19.750          18.500
  22416485.406    -9314777.391 6  -7258258.441 6        19.250          12.750
  20605279.391      472933.104 8    381432.015 6        29.000          16.250
  23807883.219    -2746655.025 5  -2092938.504 5        11.000           8.500
 93  3 20 20  6  0.0000000  0  6G29G 2G19G27G18G28
  22560805.109     8970364.396 6   6989885.109 5        17.000          11.500
  24434950.203     -756165.447 4   -519519.529 5         7.000           6.250
  20937022.258    -2252550.123 7  -1755232.709 6        20.000          18.500
  22411324.172    -9341875.621 6  -7279373.926 6        19.250          12.750
  20608454.320      489620.521 8    394435.177 6        29.000          16.500
  23809333.227    -2739009.268 5  -2086980.797 5        11.000           8.500
 93  3 20 20  6 15.0000000  0  6G29G 2G19G27G18G28
  22568814.602     9012446.609 6   7022676.385 5        16.750          11.500
  24426550.797     -800280.986 4   -553895.149 5         7.000           6.250
  20937018.805    -2252586.904 6  -1755261.373 6        19.500          18.750
  22406177.625    -9368943.658 6  -7300465.884 6        19.250          12.750
  20611650.844      506420.741 8    407526.237 6        29.000          16.250
  23810814.766    -2731232.439 5  -2080920.939 5        11.000           8.500
 93  3 20 20  6 30.0000000  0  6G29G 2G19G27G18G28
  22576837.664     9054610.060 6   7055530.961 5        17.000          11.500
  24418174.188     -844354.211 4   -588237.804 5         7.000           6.250
  20937031.570    -2252582.070 6  -1755257.615 6        18.750          18.500
  22401027.641    -9395986.226 6  -7321537.994 6        19.250          13.000
  20614869.609      523330.179 8    420702.403 6        29.000          16.250
  23812324.359    -2723325.776 5  -2074759.931 5        11.000           8.250
 93  3 20 20  6 45.0000000  0  6G29G 2G19G27G18G28
  22584876.695     9096856.196 6   7088449.970 5        16.750          11.250
  24409799.336     -888389.471 4   -622550.863 5         7.250           6.250
  20937031.727    -2252531.079 6  -1755217.888 6        19.750          18.500
  22395891.172    -9422998.053 6  -7342586.146 6        19.250          13.000
  20618110.172      540351.754 8    433965.957 6        29.250          16.500
  23813852.938    -2715283.703 5  -2068493.387 5        10.750           8.250
 93  3 20 20  7  0.0000000  0  6G29G 2G19G27G18G28
  22592931.594     9139187.454 6   7121435.313 5        17.000          11.500
  24401427.688     -932387.612 4   -656835.011 5         7.250           6.250
  20937064.563    -2252429.150 6  -1755138.470 6        18.250          18.500
  22390755.820    -9449972.857 6  -7363605.461 6        19.250          13.000
  20621369.250      557487.639 8    447318.575 6        29.000          16.250
  23815405.430    -2707101.253 5  -2062117.482 5        10.750           8.250
 93  3 20 20  7 15.0000000  0  6G29G 2G19G27G18G28
  22601002.125     9181594.444 6   7154479.655 5        17.000          11.500
  24393051.859     -976357.535 4   -691097.171 5         7.250           6.250
  20937078.992    -2252284.911 6  -1755026.079 6        19.750          18.750
  22385626.617    -9476917.800 6  -7384601.493 6        19.250          13.000
  20624648.734      574721.458 8    460747.509 6        29.000          16.500
  23816991.078    -2698787.555 5  -2055639.293 5        10.750           8.250
 93  3 20 20  7 30.0000000  0  6G29G 2G19G27G18G28
  22609087.047     9224084.511 6   7187588.737 5        16.750          11.250
  24384701.250    -1020289.344 5   -725329.620 5         7.500           6.250
  20937118.570    -2252085.805 6  -1754870.935 6        19.500          18.750
  22380507.141    -9503823.988 6  -7405567.339 6        19.250          13.000
  20627950.250      592061.942 8    474259.556 6        29.000          16.250
  23818598.289    -2690333.585 5  -2049051.810 5        10.750           8.250
 93  3 20 20  7 45.0000000  0  6G29G 2G19G27G18G28
  22617186.234     9266650.846 6   7220757.246 5        16.750          11.500
  24376343.961    -1064188.893 5   -759536.947 5         7.750           6.500
  20937163.250    -2251836.506 6  -1754676.682 6        19.500          18.750
  22375396.164    -9530697.724 6  -7426507.889 6        19.500          13.000
  20631268.008      609503.385 8    487850.275 6        29.250          16.250
  23820233.031    -2681745.429 5  -2042359.769 5        10.750           8.250
 93  3 20 20  8  0.0000000  0  6G29G 2G19G27G18G28
  22625303.078     9309304.457 6   7253993.768 5        16.500          11.250
  24368003.711    -1108042.530 5   -793708.502 5         7.750           6.250
  20937223.547    -2251521.898 7  -1754431.541 6        20.000          18.750
  22370289.563    -9557525.537 6  -7447412.658 6        19.250          13.000
  20634608.727      627058.533 8    501529.592 6        29.000          16.500
  23821896.336    -2673009.421 5  -2035552.523 5        11.000           8.000
 93  3 20 20  8 15.0000000  0  6G29G 2G19G27G18G28
  22633434.758     9352029.673 6   7287286.083 5        16.500          11.250
  24359656.094    -1151864.747 5   -827855.553 5         8.000           6.250
  20937295.320    -2251150.085 6  -1754141.821 6        19.750          18.750
  22365189.445    -9584322.910 6  -7468293.704 6        19.250          13.250
  20637968.828      644716.336 8    515288.900 6        29.250          16.250
  23823582.891    -2664141.171 5  -2028642.216 5        10.750           8.250
 93  3 20 20  8 30.0000000  0  6G29G 2G19G27G18G28
  22641578.609     9394828.639 6   7320635.865 5        16.500          11.250
  24351329.336    -1195648.680 5   -861972.791 5         7.750           6.250
  20937376.445    -2250715.110 6  -1753802.885 6        19.750          18.750
  22360100.172    -9611081.780 6  -7489144.749 6        19.500          13.250
  20641350.445      662485.902 8    529135.296 6        29.000          16.250
  23825299.539    -2655134.713 5  -2021624.217 5        10.750           8.250
 93  3 20 20  8 45.0000000  0  6G29G 2G19G27G18G28
  22649737.109     9437696.866 6   7354039.613 5        16.500          11.250
  24343001.383    -1239396.151 5   -896061.629 5         8.000           6.000
  20937471.500    -2250221.410 6  -1753418.189 6        19.500          18.750
  22355014.445    -9637800.274 6  -7509964.335 6        19.500          13.250
  20644751.273      680367.632 8    543069.093 6        29.000          16.250
  23827039.172    -2645992.996 5  -2014500.829 5        10.750           8.250
 93  3 20 20  9  0.0000000  0  6G29G 2G19G27G18G28
  22657905.742     9480634.710 6   7387497.610 5        16.250          11.250
  24334684.086    -1283105.619 5   -930120.835 5         8.250           6.250
  20937592.008    -2249672.109 6  -1752990.162 6        18.500          18.500
  22349936.555    -9664478.763 6  -7530752.747 6        19.500          13.250
  20648178.563      698364.506 8    557092.613 6        29.250          16.250
  23828804.891    -2636718.982 5  -2007274.350 5        11.000           8.250
 93  3 20 20  9 15.0000000  0  6G29G 2G19G27G18G28
  22666090.266     9523642.568 6   7421010.163 5        16.250          11.250
  24326381.883    -1326767.941 5   -964143.302 5         8.250           6.250
  20937691.195    -2249068.813 6  -1752520.068 6        19.500          18.750
  22344867.336    -9691119.260 6  -7551511.557 6        19.500          13.250
  20651625.102      716479.922 8    571208.503 6        29.000          16.250
  23830586.414    -2627312.343 5  -1999944.529 5        10.500           8.250
 93  3 20 20  9 30.0000000  0  6G29G 2G19G27G18G28
  22674288.055     9566716.217 6   7454573.976 5        16.250          11.000
  24318073.398    -1370387.776 5   -998132.687 5         8.500           6.250
  20937835.617    -2248418.745 6  -1752013.529 6        18.000          18.750
  22339803.305    -9717731.314 6  -7572248.205 6        19.500          13.250
  20655093.219      734711.627 8    585415.015 6        29.000          16.250
  23832404.492    -2617779.876 5  -1992516.648 5        10.750           8.500
 93  3 20 20  9 45.0000000  0  6G29G 2G19G27G18G28
  22682497.414     9609858.340 6   7488191.160 5        16.250          11.000
  24309785.602    -1413963.413 5  -1032087.593 5         8.500           6.000
  20937947.164    -2247721.367 6  -1751470.122 6        19.500          18.500
  22334744.219    -9744315.682 6  -7592963.271 6        19.250          13.250
  20658588.781      753067.974 8    599718.648 6        29.250          16.250
  23834237.828    -2608117.937 5  -1984987.898 5        10.750           8.500
 93  3 20 20 10  0.0000000  0  6G29G 2G19G27G18G28
  22690719.320     9653067.779 6   7521860.786 5        16.250          11.000
  24301496.250    -1457495.151 5  -1066008.337 5         8.500           6.250
  20938091.102    -2246980.513 6  -1750892.842 6        19.250          18.500
  22329690.500    -9770873.604 6  -7613657.741 6        19.750          13.500
  20662102.758      771546.215 8    614117.259 6        29.000          16.250
  23836110.406    -2598324.856 5  -1977356.942 5        10.750           8.500
 93  3 20 20 10 15.0000000  0  6G29G 2G19G27G18G28
  22698957.125     9696341.828 6   7555580.763 5        16.250          11.000
  24293218.555    -1500986.019 5  -1099897.194 5         8.500           6.000
  20938234.789    -2246198.669 6  -1750283.615 6        19.500          18.500
  22324640.945    -9797407.047 6  -7634333.133 6        19.250          13.500
  20665642.102      790141.377 8    628606.977 6        29.000          16.250
  23837991.828    -2588404.032 5  -1969626.457 5        10.500           8.500
 93  3 20 20 10 30.0000000  0  6G29G 2G19G27G18G28
  22707201.328     9739682.889 6   7589352.954 5        16.250          11.000
  24284958.883    -1544435.522 5  -1133753.848 5         8.500           6.250
  20938408.438    -2245377.514 6  -1749643.763 6        18.250          18.500
  22319596.328    -9823914.841 6  -7654988.539 6        19.500          13.500
  20669202.813      808853.248 8    643187.637 6        29.000          16.250
  23839905.672    -2578355.809 5  -1961796.694 5        10.750           8.500
 93  3 20 20 10 45.0000000  0  6G29G 2G19G27G18G28
  22715461.383     9783095.667 6   7623181.023 5        16.000          11.000
  24276695.008    -1587845.857 5  -1167579.955 5         8.500           6.250
  20938556.289    -2244518.324 6  -1748974.271 6        19.750          18.500
  22314561.359    -9850398.363 6  -7675625.033 6        19.750          13.500
  20672785.492      827679.129 8    657857.139 6        28.750          16.500
  23841845.586    -2568181.973 5  -1953869.050 5        10.750           8.750
 93  3 20 20 11  0.0000000  0  6G29G 2G19G27G18G28
  22723740.391     9826586.989 6   7657070.304 5        15.750          11.000
  24268440.711    -1631216.011 5  -1201374.766 5         8.750           6.250
  20938731.398    -2243616.539 6  -1748271.582 6        19.750          18.500
  22309522.781    -9876858.386 6  -7696243.216 6        19.500          13.500
  20676388.531      846619.050 8    672615.504 6        29.000          16.500
  23843803.883    -2557882.550 5  -1945843.541 5        10.750           8.500
 93  3 20 20 11 15.0000000  0  6G29G 2G19G27G18G28
  22732031.992     9870161.404 6   7691024.328 5        15.750          11.000
  24260190.664    -1674541.937 5  -1235135.114 5         8.500           6.250
  20938908.516    -2242665.048 6  -1747530.175 6        19.750          18.500
  22304489.898    -9903292.790 6  -7716841.433 6        19.500          13.500
  20680016.164      865672.348 8    687462.214 6        29.000          16.500
  23845787.063    -2547452.691 5  -1937716.405 5        10.500           8.500
 93  3 20 20 11 30.0000000  0  6G29G 2G19G27G18G28
  22740339.883     9913815.694 6   7725040.589 5        15.500          11.000
  24251960.969    -1717831.472 5  -1268867.104 5         8.750           6.250
  20939111.844    -2241666.943 6  -1746752.436 6        18.500          18.500
  22299464.875    -9929705.481 6  -7737422.728 6        19.250          13.750
  20683661.844      884830.143 8    702390.345 6        29.000          16.500
  23847800.375    -2536895.232 5  -1929489.829 5        10.750           8.500
 93  3 20 20 11 45.0010000  0  6G29G 2G19G27G18G28
  22748665.372     9957559.459 6   7759126.569 5        15.500          11.000
  24243725.466    -1761086.879 5  -1302572.502 5         8.750           6.250
  20939299.388    -2240617.211 6  -1745934.475 6        19.750          18.500
  22294447.200    -9956089.106 6  -7757981.384 6        19.500          13.750
  20687327.208      904095.776 8    717402.512 6        28.750          16.500
  23849832.599    -2526204.663 5  -1921159.532 5        10.750           8.500
 93  3 20 20 12  0.0010000  0  7G29G 2G19G27G18G28G11
  22757005.161    10001384.467 6   7793275.859 5        15.750          10.750
  24235507.161    -1804302.616 5  -1336246.985 5         8.750           6.250
  20939511.380    -2239515.592 6  -1745076.081 6        19.500          18.500
  22289434.825    -9982435.422 6  -7778510.961 6        19.500          14.000
  20691013.927      923465.918 8    732496.113 6        28.750          16.500
  23851892.146    -2515380.431 5  -1912725.084 5        10.750           8.500
  24677747.005          -0.62214                         7.250
 93  3 20 20 12 15.0010000  0  7G29G 2G19G27G18G28G11
  22765360.997    10045297.846 6   7827494.012 5        15.750          10.750
  24227288.333    -1847473.008 5  -1369886.123 5         8.750           6.250
  20939728.310    -2238357.037 6  -1744173.311 6        19.750          18.500
  22284426.747   -10008737.331 6  -7799005.933 6        19.500          13.750
  20694720.614      942946.311 8    747675.623 6        28.750          16.500
  23853977.442    -2504419.293 5  -1904183.951 5        11.250           8.500
  24671094.208      -34959.866 4                         7.250
 93  3 20 20 12 30.0010000  0  7G29G 2G19G27G18G28G11
  22773735.997    10089302.219 6   7861783.061 5        16.000          11.000
  24219081.935    -1890599.255 5  -1403490.868 5         8.750           6.250
  20939962.021    -2237139.572 6  -1743224.647 6        19.500          18.500
  22279430.880   -10034994.713 6  -7819466.219 6        19.500          14.000
  20698449.849      962541.283 8    762944.416 6        28.750          16.500
  23856091.278    -2493321.751 5  -1895536.524 5        11.000           8.500
  24664457.763      -69858.883 5                         7.500
 93  3 20 20 12 45.0010000  0  7G29G 2G19G27G18G28G11
  22782124.208    10133397.045 6   7896142.603 5        15.750          10.750
  24210884.942    -1933681.037 5  -1437060.968 5         9.250           6.500
  20940202.685    -2235866.826 6  -1742232.904 6        19.750          18.500
  22274441.146   -10061208.303 6  -7839892.376 6        19.500          14.000
  20702200.278      982251.884 8    778303.303 6        28.500          16.750
  23858227.997    -2482085.791 5  -1886781.246 5        11.000           8.500
  24657818.685     -104698.554 5        -0.49015         7.500           4.750
 93  3 20 20 13  0.0010000  0  7G29G 2G19G27G18G28G11
  22790532.356    10177575.151 6   7930567.031 5        15.500          10.750
  24202695.263    -1976722.184 5  -1470599.422 5         9.250           6.750
  20940457.849    -2234542.073 6  -1741200.644 6        19.500          18.500
  22269461.989   -10087383.186 6  -7860288.372 6        19.750          14.000
  20705972.497     1002074.335 8    793749.352 6        28.500          16.500
  23860396.091    -2470712.604 5  -1877919.031 5        10.750           8.500
  24651204.442     -139481.946 4    -27104.343 5         7.250           4.750
 93  3 20 20 13 15.0010000  0  7G29G 2G19G27G18G28G11
  22798953.247    10221835.646 6   7965055.660 5        15.250          10.750
  24194512.286    -2019714.581 5  -1504099.863 5         9.250           6.750
  20940715.661    -2233161.647 7  -1740124.997 6        20.000          18.500
  22264489.060   -10113510.465 7  -7880647.273 6        20.000          14.000
  20709764.747     1022014.230 8    809286.911 6        28.500          16.500
  23862584.974    -2459193.079 5  -1868942.783 5        10.750           8.500
  24644601.653     -174201.561 4    -54158.523 5         7.000           4.750
 93  3 20 20 13 30.0010000  0  7G29G 2G19G27G18G28G11
  22807392.474    10266178.760 6   7999608.662 5        15.250          10.750
  24186342.294    -2062654.895 5  -1537559.723 5         9.250           6.750
  20940994.192    -2231726.182 6  -1739006.463 6        19.750          18.250
  22259525.052   -10139586.290 6  -7900966.089 6        19.750          14.000
  20713583.341     1042076.542 8    824919.870 6        28.500          16.500
  23864807.442    -2447521.587 5  -1859848.123 5        10.750           8.500
  24638000.583     -208854.712 4    -81160.886 5         7.000           4.750
 93  3 20 20 13 45.0010000  0  7G29G 2G19G27G18G28G11
  22815842.614    10310595.540 6   8034219.070 5        15.250          10.500
  24178176.810    -2105552.803 5  -1570986.540 5         9.250           7.000
  20941274.005    -2230247.195 7  -1737854.012 6        20.250          18.500
  22254571.575   -10165617.926 6  -7921250.462 6        19.750          14.000
  20717424.599     1062256.845 8    840644.770 6        28.500          16.500
  23867051.427    -2435707.787 5  -1850642.566 5        10.750           8.500
  24631417.919     -243450.426 4   -108118.500 5         7.000           4.750
 93  3 20 20 14  0.0010000  0  7G29G 2G19G27G18G28G11
  22824310.677    10355082.450 6   8068884.126 5        14.750          10.500
  24170023.849    -2148404.846 5  -1604377.629 5         9.250           7.000
  20941564.200    -2228724.649 7  -1736667.627 6        20.000          18.250
  22249628.880   -10191605.788 7  -7941500.734 6        20.000          14.250
  20721289.263     1082558.406 8    856464.144 6        28.500          16.500
  23869327.911    -2423750.201 5  -1841324.970 5        10.750           8.500
  24624852.747     -277988.069 4   -135030.825 5         7.250           4.750
 93  3 20 20 14 15.0010000  0  7G29G 2G19G27G18G28G11
  22832788.161    10399637.816 6   8103602.521 5        15.000          10.500
  24161877.231    -2191210.181 5  -1637732.305 5         9.250           7.000
  20941856.685    -2227159.696 7  -1735448.193 6        20.000          18.500
  22244689.013   -10217556.657 7  -7961722.174 6        20.000          14.000
  20725174.372     1102979.201 8    872376.432 6        28.500          16.500
  23871630.638    -2411652.722 5  -1831898.371 5        10.500           8.500
  24618283.388     -312467.876 4   -161898.137 5         7.000           4.750
 93  3 20 20 14 30.0010000  0  7G29G 2G19G27G18G28G11
  22841281.950    10444266.892 6   8138378.367 5        14.750          10.500
  24153740.466    -2233969.043 5  -1671050.782 5         9.000           7.000
  20942170.247    -2225548.510 6  -1734192.733 6        19.750          18.250
  22239757.396   -10243471.607 7  -7981915.629 6        20.000          14.250
  20729084.294     1123519.672 8    888381.977 6        28.500          16.500
  23873957.903    -2399414.539 5  -1822362.127 5        10.750           8.500
  24611735.755     -346887.455 4   -188718.508 5         6.750           4.750
 93  3 20 20 14 45.0010000  0  7G29G 2G19G27G18G28G11
  22849787.739    10488966.718 6   8173209.319 5        15.000          10.500
  24145605.435    -2276682.531 5  -1704333.904 5         9.250           7.250
  20942482.935    -2223891.505 7  -1732901.568 6        20.000          18.250
  22234833.724   -10269353.523 7  -8002083.342 6        20.000          14.500
  20733012.896     1144177.646 8    904479.075 6        28.500          16.500
  23876315.786    -2387035.344 5  -1812716.004 5        10.250           8.500
  24605194.458     -381247.500 4   -215492.488 5         7.000           4.750
 93  3 20 20 15  0.0010000  0  7G29G 2G19G27G18G28G11
  22858306.755    10533734.932 6   8208093.573 5        14.750          10.500
  24137490.919    -2319348.271 5  -1737579.797 5         9.000           7.250
  20942808.138    -2222187.013 7  -1731573.407 6        20.000          18.250
  22229914.435   -10295201.739 7  -8022224.800 6        20.250          14.250
  20736966.286     1164952.203 8    920667.024 6        28.250          16.500
  23878696.169    -2374516.486 5  -1802961.045 5        10.500           8.500
  24598668.778     -415546.287 4   -242218.746 5         7.000           4.750
 93  3 20 20 15 15.0010000  0  7G29G 2G19G27G18G28G11
  22866838.841    10578572.962 6   8243032.230 5        14.750          10.500
  24129387.700    -2361962.735 5  -1770785.765 5         9.250           7.250
  20943140.380    -2220430.779 7  -1730204.920 6        20.000          18.250
  22225002.216   -10321015.519 7  -8042339.429 6        20.250          14.250
  20740942.169     1185844.989 8    936947.099 6        28.250          16.500
  23881104.817    -2361858.369 5  -1793097.585 5        10.500           8.500
  24592147.942     -449779.916 4   -268894.210 5         6.750           4.750
 93  3 20 20 15 30.0010000  0  7G29G 2G19G27G18G28G11
  22875386.388    10623475.244 6   8278020.947 5        14.750          10.500
  24121282.192    -2404533.137 5  -1803957.388 5         9.250           7.250
  20943495.560    -2218629.803 6  -1728801.575 6        19.000          18.250
  22220094.997   -10346802.573 7  -8062433.217 6        20.250          14.250
  20744940.677     1206849.783 8    953314.450 6        28.500          16.500
  23883539.731    -2349072.222 5  -1783134.356 5        10.500           8.250
  24585652.560     -483955.323 4   -295524.301 5         7.000           4.750
 93  3 20 20 15 45.0010000  0  7G29G 2G19G27G18G28G11
  22883939.646    10668445.284 6   8313062.468 5        14.750          10.500
  24113196.052    -2447059.525 5  -1837094.716 5         9.000           7.250
  20943834.872    -2216779.934 7  -1727360.131 6        20.000          18.250
  22215196.771   -10372562.753 7  -8082506.067 6        20.500          14.250
  20748958.685     1227967.159 8    969769.525 6        28.000          16.500
  23885997.130    -2336160.573 5  -1773073.340 5        10.750           8.500
  24579160.896     -518071.230 4   -322108.071 5         7.250           4.750
 93  3 20 20 16  0.0010000  0  7G29G 2G19G27G18G28G11
  22892513.583    10713485.811 6   8348158.917 5        14.500          10.500
  24105106.528    -2489539.250 5  -1870195.675 5         8.750           7.500
  20944203.083    -2214877.244 6  -1725877.523 6        19.750          18.500
  22210295.138   -10398294.502 7  -8102556.766 6        20.250          14.250
  20752998.278     1249196.309 8    986311.695 6        28.000          16.500
  23888476.411    -2323123.562 5  -1762914.625 5        11.000           8.500
  24572682.255     -552125.049 4   -348643.438 5         7.250           4.500
 93  3 20 20 16 15.0010000  0  7G29G 2G19G27G18G28G11
  22901095.997    10758596.274 6   8383309.852 5        14.500          10.500
  24097030.841    -2531972.260 5  -1903260.239 5         9.000           7.500
  20944572.075    -2212920.892 7  -1724353.102 6        20.000          18.500
  22205403.271   -10424000.700 7  -8122587.558 6        20.250          14.250
  20757057.692     1270537.015 8   1002940.797 6        28.000          16.500
  23890981.138    -2309964.268 5  -1752660.637 5        10.750           8.500
  24566213.528     -586116.208 5   -375129.984 5         7.500           4.500
 93  3 20 20 16 30.0010000  0  7G29G 2G19G27G18G28G11
  22909695.044    10803776.277 6   8418514.981 5        14.250          10.500
  24088962.302    -2574363.599 5  -1936292.328 5         9.500           7.500
  20944951.833    -2210911.216 7  -1722787.135 6        20.250          18.500
  22200517.278   -10449682.012 7  -8142598.955 6        20.250          14.250
  20761140.396     1291988.037 8   1019655.858 6        28.000          16.500
  23893508.396    -2296685.638 5  -1742313.645 5        10.750           8.500
  24559750.497     -620046.583 5   -401569.140 5         7.500           4.500
 93  3 20 20 16 45.0010000  0  7G29G 2G19G27G18G28G11
  22918306.747    10849023.453 6   8453772.451 5        14.250          10.500
  24080903.989    -2616712.734 5  -1969291.539 5         9.500           7.500
  20945344.513    -2208849.257 7  -1721180.423 6        20.250          18.500
  22195635.606   -10475335.551 7  -8162588.710 6        20.500          14.250
  20765245.130     1313551.024 8   1036458.169 6        28.000          16.500
  23896060.544    -2283285.221 5  -1731871.755 5        11.000           8.500
  24553305.606     -653915.865 5   -427960.729 5         7.500           4.500
 93  3 20 20 17  0.0010000  0  7G29G 2G19G27G18G28G11
  22926927.396    10894338.445 6   8489082.764 5        14.500          10.250
  24072847.692    -2659015.469 5  -2002254.603 5         9.000           7.500
  20945759.302    -2206734.254 6  -1719532.385 6        18.750          18.500
  22190760.591   -10500956.037 7  -8182552.717 6        20.750          14.500
  20769371.044     1335230.385 8   1053351.157 6        28.000          16.750
  23898631.521    -2269759.431 5  -1721332.187 5        11.000           8.500
  24546875.364     -687719.366 5   -454301.055 5         7.500           4.500
 93  3 20 20 17 15.0010000  0  7G29G 2G19G27G18G28G11
  22935562.083    10939719.875 6   8524444.846 5        14.500          10.250
  24064812.771    -2701276.769 5  -2035185.373 5         9.250           7.500
  20946157.677    -2204570.739 7  -1717846.534 6        20.000          18.500
  22185890.786   -10526548.337 7  -8202494.755 6        20.750          14.250
  20773516.802     1357022.175 7   1070331.749 6        27.750          16.750
  23901228.583    -2256115.476 5  -1710700.539 5        10.750           8.500
  24540455.481     -721461.081 5   -480593.226 5         7.500           4.750
 93  3 20 20 17 30.0010000  0  7G29G 2G19G27G18G28G11
  22944211.888    10985170.448 6   8559860.810 5        14.500          10.250
  24056776.872    -2743495.934 5  -2068083.312 5         9.250           7.500
  20946593.685    -2202358.916 6  -1716123.047 6        18.500          18.500
  22181023.771   -10552110.363 7  -8222413.200 6        20.750          14.500
  20777685.247     1378927.010 8   1087400.430 6        28.000          16.750
  23903850.911    -2242351.996 5  -1699975.755 5        11.250           8.500
  24534042.575     -755140.424 4   -506836.806 5         7.250           4.500
 93  3 20 20 17 45.0010000  0  7G29G 2G19G27G18G28G11
  22952876.396    11030699.337 6   8595337.797 5        14.500          10.250
  24048753.794    -2785665.383 5  -2100942.510 5         9.250           7.500
  20947012.091    -2200091.245 7  -1714356.044 6        20.000          18.500
  22176169.497   -10577631.978 7  -8242300.155 6        20.750          14.500
  20781876.966     1400951.651 8   1104562.463 6        28.000          16.750
  23906487.739    -2228459.002 5  -1689150.046 5        11.000           8.500
  24527653.271     -788750.575 5   -533026.475 5         7.500           4.750
 93  3 20 20 18  0.0010000  0  8G29G 2G19G27G18G28G11G16
  22961556.013    11076301.099 6   8630871.563 5        14.500          10.250
  24040740.802    -2827792.126 5  -2133768.440 5         9.250           7.500
  20947461.794    -2197776.536 6  -1712552.381 6        18.750          18.250
  22171321.278   -10603119.422 7  -8262160.485 6        20.750          14.500
  20786088.013     1423090.474 8   1121813.471 6        28.000          16.750
  23909159.708    -2214440.714 5  -1678226.715 5        11.250           8.500
  24521267.778     -822298.536 5   -559167.668 5         7.500           4.750
  24504010.396                                           8.750
 93  3 20 20 18 15.0010000  0  8G29G 2G19G27G18G28G11G16
  22970245.466    11121974.453 6   8666461.126 5        14.500          10.250
  24032731.060    -2869877.032 5  -2166561.766 5         9.500           7.500
  20947900.161    -2195417.846 7  -1710714.453 6        20.000          18.500
  22166473.442   -10628574.587 7  -8281995.664 6        20.500          14.500
  20790322.380     1445343.146 8   1139153.190 6        28.000          16.750
  23911849.286    -2200297.031 5  -1667205.663 5        11.250           8.500
  24514891.942     -855784.435 5   -585260.512 5         7.500           4.750
  24498728.614      -27717.375 5                         8.500
 93  3 20 20 18 30.0010000  0  8G29G 2G19G27G18G28G11G16
  22978951.153    11167722.493 6   8702108.876 5        14.250          10.250
  24024728.724    -2911917.408 5  -2199320.393 5         9.250           7.500
  20948354.122    -2193012.268 7  -1708839.990 6        20.250          18.500
  22161636.778   -10653993.010 7  -8301802.210 6        20.750          14.500
  20794581.560     1467712.255 8   1156583.642 6        28.000          16.750
  23914565.685    -2186022.129 5  -1656082.367 5        11.250           8.500
  24508533.271     -889203.985 5   -611301.634 5         7.500           4.750
  24493476.989      -55331.690 5                         8.500
 93  3 20 20 18 45.0010000  0  8G29G 2G19G27G18G28G11G16
  22987671.364    11213545.645 6   8737815.162 5        14.250          10.250
  24016735.489    -2953911.241 5  -2232042.756 5         9.500           7.500
  20948824.935    -2190561.418 7  -1706930.246 6        20.000          18.500
  22156807.489   -10679372.814 7  -8321578.665 6        20.750          14.500
  20798859.028     1490197.394 7   1174104.507 6        27.750          16.750
  23917308.981    -2171611.481 5  -1644853.303 5        11.250           8.500
  24502181.919     -922555.241 5   -637289.548 5         7.750           4.750
  24488246.763      -82838.318 5        -0.45815         9.000           6.250
 93  3 20 20 19  0.0010000  0  8G29G 2G19G27G18G28G11G16
  22996403.161    11259440.147 6   8773577.038 5        14.250          10.250
  24008756.708    -2995858.849 5  -2264729.101 5         9.750           7.500
  20949308.411    -2188069.725 6  -1704988.676 6        19.000          18.500
  22151985.747   -10704717.840 7  -8341328.023 6        20.750          14.500
  20803159.794     1512794.489 7   1191712.612 6        27.750          16.750
  23920077.630    -2157069.274 5  -1633521.717 5        11.000           8.500
  24495847.786     -955841.007 5   -663226.454 5         7.500           4.750
  24483027.630     -110236.880 5    -21349.979 5         8.750           6.000
 93  3 20 20 19 15.0010000  0  8G29G 2G19G27G18G28G11G16
  23005150.974    11305412.917 6   8809399.909 5        14.000          10.250
  24000781.747    -3037755.272 5  -2297375.567 5         9.750           7.250
  20949781.630    -2185529.130 6  -1703009.000 6        19.750          18.500
  22147171.692   -10730026.148 7  -8361048.765 6        20.750          14.500
  20807480.872     1535507.829 8   1209411.301 6        28.000          16.750
  23922869.989    -2142390.407 5  -1622083.654 5        11.000           8.500
  24489535.833     -989057.442 5   -689109.311 5         7.500           4.750
  24477837.747     -137520.898 5    -42610.248 5         8.250           6.000
 93  3 20 20 19 30.0010000  0  8G29G 2G19G27G18G28G11G16
  23013918.786    11351465.251 6   8845284.775 5        14.250          10.250
  23992823.403    -3079599.005 5  -2329980.962 5         9.750           7.250
  20950291.224    -2182936.744 6  -1700988.968 6        18.250          18.500
  22142361.411   -10755296.862 7  -8380740.217 6        20.750          14.500
  20811824.692     1558337.500 8   1227200.630 6        28.000          16.750
  23925687.911    -2127570.830 5  -1610535.938 5        11.000           8.250
  24483225.255    -1022204.222 5   -714937.905 5         8.000           5.000
  24472666.950     -164687.333 5    -63778.900 5         8.750           6.250
 93  3 20 20 19 45.0010000  0  8G29G 2G19G27G18G28G11G16
  23022696.474    11397591.993 6   8881227.614 5        14.000          10.000
  23984866.638    -3121395.719 5  -2362549.752 5         9.750           7.250
  20950778.794    -2180295.470 6  -1698930.839 6        19.750          18.500
  22137561.005   -10780532.103 7  -8400404.028 6        20.750          14.750
  20816191.044     1581280.524 8   1245078.284 6        28.000          17.000
  23928535.403    -2112611.810 5  -1598879.566 5        11.000           8.250
  24476927.411    -1055284.949 5   -740715.012 5         7.750           5.000
  24467515.231     -191737.948 5    -84857.294 5         8.750           6.250
 93  3 20 20 20  0.0010000  0  8G29G 2G19G27G18G28G11G16
  23031486.333    11443796.145 6   8917230.786 5        13.750          10.250
  23976922.021    -3163141.364 5  -2395078.730 5        10.250           7.250
  20951292.825    -2177601.453 6  -1696831.611 6        19.750          18.500
  22132764.755   -10805727.273 7  -8420036.614 6        20.750          14.750
  20820581.427     1604344.566 8   1263050.251 6        28.000          17.000
  23931410.333    -2097507.649 5  -1587110.102 5        11.000           8.250
  24470644.958    -1088293.415 5   -766435.838 5         7.750           5.000
  24462394.950     -218662.569 5   -105837.522 5         9.000           6.250
 93  3 20 20 20 15.0010000  0  8G29G 2G19G27G18G28G11G16
  23040290.599    11490070.382 6   8953288.561 5        13.750          10.000
  23968988.927    -3204840.150 5  -2427571.195 5        10.250           7.250
  20951812.825    -2174857.656 6  -1694693.601 6        19.750          18.250
  22127976.974   -10830888.461 7  -8439642.718 6        21.000          14.500
  20824992.591     1627525.727 8   1281113.468 6        28.000          17.000
  23934311.263    -2082265.043 5  -1575232.759 5        11.000           8.250
  24464378.536    -1121233.004 5   -792102.947 5         8.000           5.000
  24457296.255     -245461.922 5   -126720.141 5         8.750           6.250
 93  3 20 20 20 30.0010000  0  8G29G 2G19G27G18G28G11G16
  23049112.606    11536407.850 6   8989395.604 5        13.750          10.250
  23961055.599    -3246492.242 5  -2460027.276 5        10.250           7.250
  20952342.747    -2172065.755 6  -1692518.096 6        19.750          18.250
  22123192.278   -10856018.581 7  -8459224.618 6        21.000          14.500
  20829424.521     1650821.517 8   1299266.009 6        28.000          17.000
  23937241.028    -2066885.724 5  -1563248.884 5        11.000           8.250
  24458126.513    -1154105.735 5   -817718.007 5         8.000           5.000
  24452216.356     -272138.180 5   -147506.830 5         8.750           6.250
 93  3 20 20 20 45.0010000  0  8G29G 2G19G27G18G28G11G16
  23057942.685    11582810.493 6   9025553.431 5        13.750          10.250
  23953141.802    -3288092.307 5  -2492442.825 5        10.250           7.250
  20952884.966    -2169219.863 6  -1690300.526 6        19.750          18.250
  22118417.989   -10881113.532 7  -8478779.115 6        21.250          14.750
  20833880.778     1674238.616 7   1317513.075 6        27.750          17.000
  23940196.567    -2051365.902 5  -1551155.528 5        11.000           8.250
  24451889.216    -1186907.938 5   -843278.086 5         7.750           5.000
  24447166.067     -298689.516 5   -168196.177 5         9.000           6.250
 93  3 20 20 21  0.0010000  0  8G29G 2G19G27G18G28G11G16
  23066783.872    11629285.264 6   9061767.459 5        13.250          10.000
  23945242.411    -3329631.766 5  -2524811.149 5        10.500           7.250
  20953439.856    -2166311.297 7  -1688034.115 6        20.000          18.250
  22113651.880   -10906165.411 7  -8498300.046 6        21.250          14.500
  20838361.896     1697784.012 8   1335860.116 6        28.000          17.000
  23943172.200    -2035699.947 5  -1538948.294 5        11.000           8.000
  24445657.388    -1219632.237 5   -868777.454 5         8.000           5.000
  24442143.099     -325111.036 5   -188784.385 5         9.000           6.250
 93  3 20 20 21 15.0010000  0  8G29G 2G19G27G18G28G11G16
  23075642.669    11675831.047 6   9098036.829 5        13.500          10.000
  23937346.841    -3371113.682 5  -2557134.634 5        10.500           7.250
  20954004.669    -2163337.483 6  -1685716.866 6        19.750          18.250
  22108891.075   -10931175.045 7  -8517788.055 6        21.000          14.500
  20842866.771     1721453.615 8   1354303.938 6        28.000          17.000
  23946179.177    -2019888.722 5  -1526627.887 5        11.000           8.000
  24439446.349    -1252279.968 5   -894217.162 5         7.750           5.000
  24437134.497     -351407.686 5   -209275.271 5         9.000           6.250
 93  3 20 20 21 30.0010000  0  8G29G 2G19G27G18G28G11G16
  23084511.942    11722444.315 6   9134358.781 5        13.250          10.000
  23929461.489    -3412541.942 5  -2589416.301 5        10.500           7.250
  20954597.021    -2160302.890 6  -1683352.260 6        18.500          18.250
  22104140.614   -10956144.049 7  -8537244.409 6        21.000          14.500
  20847392.356     1745245.048 8   1372842.697 6        28.250          17.250
  23949216.778    -2003935.061 5  -1514196.463 5        11.250           8.000
  24433238.708    -1284852.869 5   -919598.566 5         7.750           5.000
  24432155.989     -377583.247 5   -229671.811 5         9.250           6.250
 93  3 20 20 21 45.0010000  0  8G29G 2G19G27G18G28G11G16
  23093399.185    11769122.108 6   9170731.013 5        13.500          10.000
  23921585.005    -3453919.362 5  -2621658.381 5        10.500           7.250
  20955170.731    -2157214.292 6  -1680945.564 6        19.750          18.250
  22099397.146   -10981073.062 7  -8556669.612 6        21.000          14.500
  20851942.919     1769155.908 8   1391474.518 6        28.250          17.250
  23952278.685    -1987845.006 5  -1501658.775 5        11.000           8.000
  24427060.849    -1317352.294 5   -944922.715 5         8.000           5.250
  24427195.606     -403639.878 5   -249975.687 5         9.000           6.000
 93  3 20 20 22  0.0010000  0  8G29G 2G19G27G18G28G11G16
  23102288.192    11815857.054 6   9207147.775 5        13.500          10.000
  23913721.286    -3495250.819 5  -2653864.622 5        10.250           7.250
  20955786.833    -2154081.466 6  -1678504.410 6        17.750          18.250
  22094657.450   -11005968.691 7  -8576068.789 6        21.000          14.500
  20856515.771     1793178.824 8   1410193.649 6        28.500          17.250
  23955361.450    -1971625.712 5  -1489020.363 5        11.000           8.000
  24420891.052    -1349783.762 5   -970193.912 5         8.250           5.250
  24422260.747     -429585.469 5   -270193.023 5         8.750           6.000
 93  3 20 20 22 15.0010000  0  8G29G 2G19G27G18G28G11G16
  23111197.177    11862662.936 6   9243619.818 5        13.500           9.750
  23905876.700    -3536521.670 5  -2686023.642 5        10.500           7.250
  20956371.544    -2150891.197 6  -1676018.491 6        19.500          18.250
  22089930.989   -11030819.730 7  -8595433.220 6        21.000          14.500
  20861108.146     1817322.390 8   1429006.792 6        28.000          17.500
  23958476.153    -1955264.760 5  -1476271.589 5        11.000           8.000
  24414732.513    -1382133.799 5   -995401.649 5         8.250           5.000
  24417349.466     -455408.720 5   -290315.037 5         9.000           6.250
 93  3 20 20 22 30.0010000  0  8G29G 2G19G27G18G28G11G16
  23120112.935    11909534.829 6   9280143.281 5        13.500          10.000
  23898025.083    -3577737.357 5  -2718139.692 5        10.500           7.250
  20956992.427    -2147649.256 6  -1673492.311 6        19.500          18.250
  22085210.208   -11055634.242 7  -8614769.203 6        21.250          14.500
  20865724.060     1841576.571 8   1447906.130 6        28.250          17.250
  23961618.638    -1938770.996 5  -1463419.326 5        10.750           8.000
  24408593.200    -1414409.120 5  -1020551.187 5         8.500           5.000
  24412448.606     -481121.804 5   -310351.204 5         8.500           6.000
 93  3 20 20 22 45.0010000  0  8G29G 2G19G27G18G28G11G16
  23129049.638    11956483.975 6   9316726.965 5        13.500           9.750
  23890194.856    -3618891.513 5  -2750207.776 5        10.500           7.250
  20957618.021    -2144348.712 6  -1670920.464 6        19.750          18.250
  22080493.263   -11080402.941 7  -8634069.473 6        21.000          14.500
  20870362.724     1865948.071 8   1466896.891 6        28.000          17.500
  23964785.091    -1922134.421 5  -1450455.777 5        11.000           8.000
  24402459.575    -1446601.281 5  -1045635.885 5         8.500           5.250
  24407581.067     -506718.595 5   -330296.767 5         8.750           6.000
 93  3 20 20 23  0.0010000  0  8G29G 2G19G27G18G28G11G16
  23137997.731    12003510.648 6   9353371.044 5        13.500           9.750
  23882373.185    -3659989.408 5  -2782232.055 5        10.500           7.250
  20958273.380    -2140994.355 6  -1668306.695 6        18.250          18.250
  22075788.255   -11105129.915 7  -8653337.240 6        21.250          14.500
  20875021.091     1890430.313 8   1485973.936 6        28.000          17.500
  23967975.638    -1905360.845 5  -1437385.480 5        11.250           8.000
  24396352.692    -1478713.580 5  -1070658.382 5         8.250           5.000
  24402729.185     -532203.012 5   -350154.758 5         9.000           6.000
 93  3 20 20 23 15.0010000  0  8G29G 2G19G27G18G28G11G16
  23146960.778    12050612.182 6   9390073.454 5        13.250           9.500
  23874565.630    -3701037.553 5  -2814217.534 5        10.500           7.250
  20958903.731    -2137594.291 6  -1665657.300 6        19.500          18.250
  22071091.771   -11129821.649 7  -8672577.544 6        21.250          14.500
  20879699.474     1915014.944 8   1505130.773 6        28.000          17.500
  23971192.489    -1888455.475 5  -1424212.480 5        11.000           7.750
  24390260.505    -1510751.879 5  -1095623.207 5         8.500           5.000
  24397901.388     -557581.174 5   -369929.942 5         8.750           6.000
 93  3 20 20 23 30.0010000  0  8G29G 2G19G27G18G28G11G16
  23155942.435    12097797.950 6   9426841.512 5        13.500           9.750
  23866758.794    -3742028.328 5  -2846158.330 5        10.500           7.250
  20959561.474    -2134142.929 6  -1662967.932 6        19.500          18.250
  22066399.731   -11154469.907 7  -8691783.978 6        21.250          14.750
  20884399.411     1939712.513 8   1524375.606 6        28.000          17.500
  23974437.708    -1871412.184 5  -1410932.015 5        11.500           7.750
  24384176.278    -1542707.979 5  -1120523.978 5         8.250           5.250
  24393088.356     -582843.439 5   -389614.830 5         8.500           6.000
 93  3 20 20 23 45.0010000  0  8G29G 2G19G27G18G28G11G16
  23164935.685    12145072.525 6   9463678.758 5        13.250           9.750
  23858974.583    -3782957.472 5  -2878051.089 5        10.500           7.500
  20960226.989    -2130640.870 6  -1660239.065 6        19.500          18.250
  22061718.528   -11179074.891 7  -8710956.682 6        21.500          14.500
  20889120.075     1964527.252 7   1543711.745 6        27.750          17.500
  23977702.989    -1854231.519 5  -1397544.507 5        11.500           7.750
  24378107.966    -1574579.293 5  -1145358.679 5         8.500           5.000
  24388307.294     -607985.698 5   -409206.213 5         8.750           6.000
 93  3 20 20 24  0.0010000  0  8G29G 2G19G27G18G28G11G16
  23173944.810    12192425.645 6   9500577.210 5        13.000           9.750
  23851191.560    -3823834.223 5  -2909903.038 5        10.500           7.500
  20960914.138    -2127095.775 6  -1657476.665 6        18.500          18.250
  22057041.161   -11203646.127 7  -8730103.097 6        21.500          14.750
  20893862.067     1989448.150 7   1563130.597 6        27.750          17.750
  23980999.708    -1836920.272 5  -1384055.233 5        11.500           7.750
  24372056.302    -1606374.567 5  -1170134.149 5         8.500           5.250
  24383548.442     -633017.384 5   -428711.413 5         8.750           6.000
 93  3 20 20 24 15.0010000  0  8G29G 2G19G27G18G28G11G16
  23182976.224    12239856.001 6   9537535.848 5        13.250           9.500
  23843426.435    -3864659.529 5  -2941714.906 5        10.500           7.500
  20961584.372    -2123506.945 6  -1654680.183 6        19.750          18.000
  22052371.278   -11228184.093 7  -8749223.581 6        21.500          14.750
  20898624.849     2014473.452 7   1582630.804 6        27.750          17.750
  23984313.935    -1819479.426 5  -1370464.987 5        11.250           7.750
  24366023.021    -1638094.005 5  -1194850.494 5         8.500           5.250
  24378806.271     -657938.177 5   -448130.228 5         8.250           6.000
 93  3 20 20 24 30.0010000  0  8G29G 2G19G27G18G28G11G16
  23192017.052    12287370.961 6   9574560.408 5        13.000           9.500
  23835667.599    -3905428.166 5  -2973482.599 5        10.500           7.500
  20962280.341    -2119865.967 6  -1651843.058 6        19.500          18.250
  22047710.153   -11252682.117 7  -8768312.945 6        21.750          14.750
  20903409.255     2039615.586 7   1602222.068 6        27.750          17.750
  23987658.880    -1801904.904 5  -1356770.567 5        11.250           7.750
  24360002.427    -1669730.303 5  -1219502.074 5         8.750           5.250
  24374085.075     -682739.669 5   -467456.053 5         8.750           5.750
 93  3 20 20 24 45.0010000  0  8G29G 2G19G27G18G28G11G16
  23201073.255    12334966.344 6   9611647.632 5        13.000           9.250
  23827919.106    -3946143.598 5  -3005208.845 5        10.750           7.500
  20962978.310    -2116177.855 6  -1648969.218 6        19.500          18.000
  22043057.302   -11277143.880 7  -8787374.053 6        21.750          14.750
  20908217.060     2064874.423 7   1621904.237 6        27.500          17.750
  23991034.560    -1784198.938 5  -1342973.747 5        11.250           7.750
  24354001.864    -1701287.513 5  -1244092.014 5         9.000           5.250
  24369384.638     -707422.791 5   -486689.660 5         8.500           6.000
 93  3 20 20 25  0.0010000  0  8G29G 2G19G27G18G28G11G16
  23210144.528    12382648.594 6   9648802.549 5        13.250           9.250
  23820183.341    -3986799.248 5  -3036888.515 5        10.750           7.500
  20963694.544    -2112436.116 6  -1646053.587 6        19.250          18.000
  22038408.544   -11301561.646 7  -8806400.878 6        21.500          14.750
  20913046.739     2090257.294 7   1641683.070 6        27.750          17.750
  23994427.200    -1766355.164 5  -1329069.526 5        10.750           7.750
  24348011.302    -1732758.927 5  -1268615.118 5         9.250           5.250
  24364715.122     -731975.887 5   -505821.940 5         8.750           6.000
 93  3 20 20 25 15.0010000  0  8G29G 2G19G27G18G28G11G16
  23219236.989    12430407.175 6   9686016.944 5        13.000           9.250
  23812454.646    -4027403.052 5  -3068527.783 5        10.750           7.500
  20964410.755    -2108650.245 6  -1643103.566 6        19.500          18.000
  22033769.646   -11325943.412 7  -8825399.652 6        22.000          14.750
  20917900.591     2115757.150 7   1661553.066 6        27.500          17.750
  23997845.364    -1748383.972 5  -1315066.013 5        10.750           7.500
  24342032.942    -1764152.663 5  -1293077.674 5         9.250           5.500
  24360059.638     -756406.787 5   -524859.040 5         8.750           6.000
 93  3 20 20 25 30.0010000  0  8G29G 2G19G27G18G28G11G16
  23228338.310    12478244.885 6   9723292.996 5        13.250           9.250
  23804739.739    -4067950.664 5  -3100123.268 5        10.750           7.500
  20965144.849    -2104814.902 6  -1640114.993 6        19.250          18.000
  22029139.403   -11350283.085 7  -8844365.628 6        22.000          14.750
  20922775.122     2141380.380 7   1681519.193 6        27.500          17.750
  24001289.981    -1730279.169 5  -1300958.406 5        10.500           7.500
  24336080.286    -1795462.301 5  -1317474.704 5         9.000           5.500
  24355445.661     -780706.986 5   -543794.236 5         9.250           6.000
 93  3 20 20 25 45.0010000  0  8G29G 2G19G27G18G28G11G16
  23237453.575    12526152.364 6   9760623.411 5        13.000           9.000
  23797036.427    -4108447.333 5  -3131679.059 5        10.750           7.500
  20965878.552    -2100936.097 6  -1637092.564 6        19.500          18.000
  22024513.903   -11374587.601 7  -8863304.203 6        22.250          15.000
  20927673.700     2167123.035 7   1701578.377 6        27.750          17.500
  24004761.716    -1712045.395 5  -1286750.291 5        10.500           7.750
  24330132.044    -1826691.937 5  -1341809.397 5         9.000           5.500
  24350840.028     -804879.998 5   -562630.369 5         9.250           6.000
 93  3 20 20 26  0.0010000  0  8G29G 2G19G27G18G28G11G16
  23246582.489    12574132.504 6   9798010.446 5        12.750           9.250
  23789337.317    -4148885.809 5  -3163189.503 5        10.750           7.750
  20966630.325    -2097008.009 6  -1634031.726 6        19.250          18.000
  22019894.669   -11398851.032 7  -8882210.768 6        22.000          15.000
  20932595.028     2192991.095 7   1721735.283 6        27.500          17.750
  24008257.646    -1693674.130 5  -1272435.046 5        10.500           7.500
  24324207.653    -1857835.340 5  -1366076.888 5         9.250           5.500
  24346265.036     -828920.193 5   -581362.985 5         9.250           6.000
 93  3 20 20 26 15.0010000  0  8G29G 2G19G27G18G28G11G16
  23255731.567    12622183.431 6   9835452.640 5        13.000           9.000
  23781655.177    -4189264.832 5  -3194653.615 5        11.000           7.750
  20967384.489    -2093026.604 6  -1630929.345 6        19.500          18.000
  22015287.661   -11423067.765 7  -8901080.943 6        22.250          15.000
  20937542.403     2218986.178 7   1741991.165 6        27.500          17.750
  24011780.739    -1675162.661 5  -1258010.569 5        10.500           7.750
  24318300.411    -1888889.650 5  -1390274.956 5         9.000           5.500
  24341725.466     -852825.232 5   -599990.282 5         9.000           6.000
 93  3 20 20 26 30.0010000  0  8G29G 2G19G27G18G28G11G16
  23264884.606    12670299.341 6   9872945.459 5        13.000           9.000
  23773979.286    -4229591.109 5  -3226076.638 5        11.000           8.000
  20968154.622    -2088997.051 6  -1627789.441 6        19.250          18.000
  22010686.013   -11447247.281 7  -8919922.113 6        22.250          15.000
  20942512.169     2245103.324 7   1762342.169 6        27.250          17.750
  24015333.747    -1656518.174 5  -1243482.425 5        10.750           7.750
  24312401.942    -1919861.759 5  -1414408.982 5         9.000           5.500
  24337197.028     -876600.831 5   -618516.738 5         9.500           6.000
 93  3 20 20 26 45.0010000  0  8G29G 2G19G27G18G28G11G16
  23274055.349    12718481.103 6   9910489.615 5        13.000           9.000
  23766319.552    -4269863.722 5  -3257457.844 5        11.250           8.000
  20968928.161    -2084918.413 6  -1624611.292 6        19.500          17.750
  22006093.458   -11471390.176 7  -8938734.750 6        22.250          15.000
  20947507.177     2271340.168 7   1782786.431 6        27.250          17.750
  24018897.130    -1637737.526 5  -1228848.178 5        10.500           7.750
  24306528.958    -1950752.157 5  -1438479.352 5         9.250           5.500
  24332693.013     -900248.508 5   -636943.498 5         9.250           6.000
 93  3 20 20 27  0.0010000  0  8G29G 2G19G27G18G28G11G16
  23283234.544    12766728.013 6   9948084.511 5        13.000           9.000
  23758667.114    -4310080.112 5  -3288795.235 5        11.250           8.000
  20969717.310    -2080789.070 6  -1621393.632 6        19.250          17.750
  22001504.817   -11495492.740 7  -8957515.956 6        22.500          15.000
  20952521.364     2297694.597 7   1803322.329 6        27.250          17.750
  24022505.700    -1618816.101 5  -1214104.251 5        10.500           7.750
  24300659.599    -1981558.029 5  -1462483.827 5         8.750           5.750
  24328221.466     -923767.624 5   -655270.093 5         9.750           6.000
 93  3 20 20 27 15.0010000  0  8G29G 2G19G27G18G28G11G16
  23292429.450    12815040.422 6   9985730.460 5        13.000           9.000
  23751023.325    -4350238.818 5  -3320087.680 5        11.500           8.250
  20970507.380    -2076606.802 6  -1618134.732 6        19.250          17.750
  21996926.349   -11519552.876 7  -8976264.104 6        22.500          15.250
  20957560.185     2324167.873 7   1823950.824 6        27.250          17.500
  24026132.669    -1599752.145 5  -1199249.257 5        10.500           7.750
  24294819.606    -2012276.396 5  -1486420.124 5         8.750           5.750
  24323769.497     -947159.513 5   -673497.531 5         9.500           6.000
 93  3 20 20 27 30.0010000  0  8G29G 2G19G27G18G28G11G16
  23301632.380    12863415.875 6  10023425.529 5        13.000           9.000
  23743393.153    -4390341.253 5  -3351336.284 5        11.250           8.250
  20971316.450    -2072371.780 6  -1614834.730 6        19.000          17.750
  21992355.364   -11543573.235 7  -8994981.253 6        22.500          15.250
  20962619.786     2350758.343 7   1844670.647 6        27.250          17.750
  24029789.396    -1580543.867 5  -1184281.805 5        10.500           7.750
  24288987.528    -2042907.047 5  -1510288.087 5         8.750           5.750
  24319342.380     -970426.134 5   -691627.385 5        10.000           6.000
 93  3 20 20 27 45.0010000  0  8G29G 2G19G27G18G28G11G16
  23310849.630    12911848.228 6  10061164.931 5        12.750           9.000
  23735770.286    -4430389.789 5  -3382542.883 5        11.750           8.250
  20972130.169    -2068086.474 6  -1611495.542 6        19.250          17.750
  21987793.997   -11567559.174 7  -9013671.590 6        22.500          15.250
  20967700.856     2377461.424 7   1865478.213 6        27.000          17.750
  24033468.185    -1561195.885 5  -1169205.505 5        10.250           7.750
  24283176.731    -2073453.648 5  -1534090.539 5         9.000           5.750
  24314937.106     -993572.191 5   -709663.272 5        10.000           6.250
 93  3 20 20 28  0.0010000  0  8G29G 2G19G27G18G28G11G16
  23320076.638    12960339.905 6  10098950.567 5        12.750           9.000
  23728164.294    -4470381.155 5  -3413704.948 5        11.500           8.500
  20972967.474    -2063746.539 6  -1608113.781 6        18.250          17.750
  21983234.489   -11591506.618 7  -9032331.923 6        22.750          15.250
  20972803.403     2404278.869 7   1886374.899 6        27.000          17.500
  24037175.263    -1541708.745 5  -1154020.743 5        10.000           7.500
  24277380.021    -2103914.536 5  -1557826.202 5         9.250           5.750
  24310552.317    -1016598.193 5   -727605.617 5         9.500           6.000
 93  3 20 20 28 15.0010000  0  8G29G 2G19G27G18G28G11G16
  23329318.833    13008896.856 6  10136787.069 5        13.000           9.000
  23720560.974    -4510315.337 5  -3444822.435 5        11.750           8.500
  20973791.067    -2059346.326 6  -1604685.060 6        19.250          17.750
  21978686.255   -11615410.859 7  -9050958.594 6        22.500          15.250
  20977928.450     2431211.445 7   1907361.290 6        26.750          17.500
  24040914.075    -1522082.143 5  -1138727.345 5        10.000           7.500
  24271600.005    -2134286.647 5  -1581492.721 5         9.000           5.500
  24306196.771    -1039502.549 5   -745453.165 5        10.250           6.250
 93  3 20 20 28 30.0010000  0  8G29G 2G19G27G18G28G11G16
  23338569.349    13057521.340 6  10174676.189 5        12.750           9.000
  23712976.013    -4550196.364 6  -3475898.517 5        12.000           8.250
  20974648.091    -2054886.892 6  -1601210.183 6        18.750          17.750
  21974143.138   -11639275.323 7  -9069554.272 6        22.500          15.250
  20983073.778     2458257.604 7   1928436.194 6        27.000          17.500
  24044671.771    -1502319.270 5  -1123327.740 5         9.750           7.500
  24265834.919    -2164571.392 5  -1605091.123 5         9.250           5.500
  24301858.763    -1062288.636 5   -763208.566 5         9.750           6.250
 93  3 20 20 28 45.0010000  0  8G29G 2G19G27G18G28G11G16
  23347837.817    13106218.518 6  10212621.950 5        12.500           9.000
  23705397.114    -4590020.498 5  -3506930.257 5        11.500           8.500
  20975500.380    -2050368.440 6  -1597689.322 6        19.500          17.750
  21969610.177   -11663098.354 7  -9088117.658 6        22.500          15.250
  20988244.052     2485420.406 7   1949601.985 6        27.000          17.500
  24048460.802    -1482418.814 5  -1107820.922 5        10.250           7.500
  24260095.974    -2194765.818 5  -1628619.184 5         9.000           5.750
  24297544.286    -1084955.310 5   -780870.901 5         9.500           6.250
 93  3 20 20 29  0.0010000  0  8G29G 2G19G27G18G28G11G16
  23357114.763    13154984.005 6  10250620.945 5        12.250           8.750
  23697824.505    -4629789.296 5  -3537918.883 5        11.500           8.250
  20976374.341    -2045795.709 6  -1594126.164 6        19.750          17.750
  21965086.380   -11686880.443 7  -9106649.143 6        22.500          15.250
  20993435.411     2512698.688 7   1970857.766 6        26.750          17.500
  24052276.942    -1462384.633 5  -1092209.924 5        10.250           7.500
  24254364.044    -2224871.176 5  -1652077.807 5         9.250           5.750
  24293260.286    -1107506.550 5   -798443.318 5         9.500           6.250
 93  3 20 20 29 15.0010000  0  8G29G 2G19G27G18G28G11G16
  23366407.716    13203814.532 6  10288670.616 5        12.000           8.750
  23690268.536    -4669506.217 5  -3568867.086 5        11.500           8.500
  20977252.606    -2041172.769 6  -1590523.880 6        19.750          17.750
  21960567.638   -11710625.267 7  -9125151.592 6        22.750          15.250
  20998646.685     2540092.038 7   1992203.207 6        26.750          17.250
  24056109.146    -1442222.865 5  -1076499.501 5        10.250           7.750
  24248648.692    -2254889.768 5  -1675468.849 5         9.500           6.000
  24288983.403    -1129944.584 5   -815927.498 5         9.500           6.250
 93  3 20 20 29 30.0010000  0  8G29G 2G19G27G18G28G11G16
  23375717.966    13252718.519 6  10326777.529 5        12.000           8.750
  23682712.138    -4709164.930 5  -3599769.930 5        11.500           8.500
  20978156.161    -2036494.069 6  -1586878.148 6        18.250          17.750
  21956056.013   -11734330.191 7  -9143622.948 6        22.750          15.250
  21003884.372     2567606.329 7   2013642.889 6        26.750          17.500
  24059982.224    -1421931.764 5  -1060688.294 5        10.000           7.750
  24242957.810    -2284816.832 5  -1698788.563 5        10.000           6.000
  24284741.528    -1152263.563 5   -833318.896 5        10.000           6.250
 93  3 20 20 29 45.0010000  0  8G29G 2G19G27G18G28G11G16
  23385032.349    13301693.356 5  10364939.646 5        11.500           8.500
  23675183.544    -4748767.591 6  -3630629.105 5        12.000           8.500
  20979040.435    -2031763.302 6  -1583191.841 6        19.750          17.750
  21951553.302   -11757996.803 7  -9162064.451 6        23.000          15.500
  21009142.474     2595240.074 7   2035175.651 6        26.250          17.500
  24063853.411    -1401517.364 5  -1044781.024 5         9.750           7.750
  24237275.771    -2314655.473 5  -1722039.381 5         9.750           5.750
  24280510.380    -1174464.856 5   -850618.624 5         9.250           6.500
 93  3 20 20 30  0.0010000  0  8G29G 2G19G27G18G28G11G16
  23394370.692    13350743.424 5  10403160.383 5        11.500           8.500
  23667663.091    -4788310.550 6  -3661441.760 5        12.000           8.500
  20979970.013    -2026978.129 6  -1579463.145 6        18.500          17.750
  21947059.349   -11781621.349 7  -9180473.177 6        22.750          15.500
  21014424.356     2622998.785 7   2056805.781 6        26.250          17.500
  24067761.958    -1380979.053 5  -1028777.174 5        10.000           7.750
  24231617.841    -2344403.841 5  -1745219.863 5        10.250           5.750
  24276311.036    -1196547.164 5   -867825.612 5         9.250           6.250
 93  3 20 20 30 15.0010000  0  8G29G 2G19G27G18G28G11G16
  23403719.513    13399869.372 5  10441440.254 5        11.500           8.750
  23660148.606    -4827795.659 6  -3692209.328 5        12.500           8.750
  20980875.349    -2022139.839 7  -1575693.059 6        20.000          17.750
  21942569.536   -11805205.608 7  -9198850.511 6        22.500          15.750
  21019730.638     2650881.314 7   2078532.396 6        26.250          17.500
  24071693.810    -1360314.008 5  -1012674.594 5        10.000           7.500
  24225973.216    -2374062.471 5  -1768330.425 5        10.000           5.750
  24272132.036    -1218508.708 5   -884938.513 5         9.500           6.250
 93  3 20 20 30 30.0010000  0  8G29G 2G19G27G18G28G11G16
  23413079.372    13449070.638 5  10479778.814 5        11.000           8.500
  23652647.177    -4867220.345 6  -3722929.815 5        12.250           8.750
  20981815.419    -2017249.947 6  -1571882.761 6        18.750          17.750
  21938090.560   -11828751.823 7  -9217198.201 6        22.500          16.000
  21025057.208     2678886.789 7   2100354.817 6        26.500          17.500
  24075653.528    -1339518.465 5   -996470.310 5        10.000           7.750
  24220346.536    -2403630.971 5  -1791370.755 5        10.000           5.500
  24267974.286    -1240350.385 5   -901958.008 5         9.500           6.500
 93  3 20 20 30 45.0010000  0  8G29G 2G19G27G18G28G11G16
  23422454.075    13498346.803 5  10518175.726 5        11.500           8.250
  23645153.591    -4906577.546 6  -3753597.726 5        12.000           8.750
  20982743.513    -2012305.894 6  -1568030.259 6        19.750          17.750
  21933618.442   -11852258.183 7  -9235514.832 6        22.750          15.750
  21030411.896     2707016.815 7   2122274.289 6        26.500          17.500
  24079635.388    -1318589.024 5   -980161.694 5        10.000           7.500
  24214737.833    -2433107.140 5  -1814339.120 5         9.750           5.500
  24263841.481    -1262067.232 5   -918880.234 5         9.500           6.500
 93  3 20 20 31  0.0010000  0  8G29G 2G19G27G18G28G11G16
  23431846.661    13547692.943 6  10556627.173 5        12.000           8.250
  23637681.435    -4945866.546 6  -3784212.489 5        12.000           8.750
  20983692.817    -2007307.053 7  -1564135.065 6        20.000          17.750
  21929150.786   -11875726.116 7  -9253801.519 6        22.750          15.750
  21035786.958     2735268.203 7   2144288.329 6        26.500          17.500
  24083643.771    -1297525.694 5   -963748.746 5        10.250           7.500
  24209145.294    -2462492.356 5  -1837236.634 5         9.750           5.500
  24259734.513    -1283658.407 5   -935704.535 5         9.250           6.500
 93  3 20 20 31 15.0010000  0  8G29G 2G19G27G18G28G11G16
  23441253.739    13597111.148 6  10595134.776 5        12.000           8.250
  23630214.489    -4985083.649 5  -3814771.222 5        11.500           8.500
  20984657.169    -2002247.424 6  -1560192.510 6        19.750          17.750
  21924693.396   -11899152.413 7  -9272055.763 6        22.750          16.000
  21041188.911     2763644.281 7   2166399.528 6        26.750          17.500
  24087676.661    -1276323.893 5   -947227.910 5        10.000           7.500
  24203568.380    -2491782.508 5  -1860060.058 5         9.500           5.500
  24255648.903    -1305118.076 5   -952426.352 5         9.000           6.500
 93  3 20 20 31 30.0010000  0  8G29G 2G19G27G18G28G11G16
  23450672.255    13646599.799 6  10633697.268 5        12.250           8.250
  23622761.325    -5024232.081 5  -3845276.453 5        11.750           8.750
  20985648.505    -1997128.775 6  -1556203.956 6        18.500          17.500
  21920241.606   -11922538.918 7  -9290279.002 6        23.000          16.000
  21046611.583     2792140.040 7   2188603.986 6        26.750          17.500
  24091734.341    -1254985.377 5   -930600.530 5         9.750           7.250
  24198015.060    -2520980.605 5  -1882811.775 5         9.750           5.500
  24251589.403    -1326447.709 5   -969046.842 5         9.500           6.500
 93  3 20 20 31 45.0010000  0  8G29G 2G19G27G18G28G11G16
  23460095.778    13696152.867 5  10672309.965 5        11.750           8.250
  23615326.825    -5063316.055 6  -3875731.452 5        12.000           8.750
  20986617.849    -1991953.482 6  -1552171.271 6        19.750          17.750
  21915797.935   -11945887.271 7  -9308472.515 6        23.250          15.750
  21052056.231     2820751.423 7   2210898.543 6        26.250          17.500
  24095821.997    -1233513.975 5   -913869.605 5        10.000           7.000
  24192475.825    -2550089.475 5  -1905493.954 5         9.500           5.500
  24247555.333    -1347650.270 5   -985568.322 5         9.000           6.750
 93  3 20 20 32  0.0010000  0  8G29G 2G19G27G18G28G11G16
  23469543.513    13745776.248 6  10710977.439 5        12.000           8.250
  23607911.763    -5102328.498 6  -3906130.715 5        12.000           8.500
  20987630.263    -1986714.449 6  -1548088.918 6        18.250          17.750
  21911364.263   -11969187.696 7  -9326628.676 6        23.250          16.000
  21057522.325     2849484.483 7   2233287.913 6        26.000          17.500
  24099938.950    -1211899.055 5   -897026.843 5        10.250           7.000
  24186954.903    -2579101.550 5  -1928100.698 5         9.750           5.500
  24243546.067    -1368718.854 5  -1001985.404 5         9.750           6.750
 93  3 20 20 32 15.0010000  0  8G29G 2G19G27G18G28G11G16
  23479003.231    13795465.551 6  10749696.298 5        12.000           8.250
  23600493.638    -5141272.930 5  -3936476.980 5        11.750           8.750
  20988624.255    -1981414.092 6  -1543958.775 6        19.000          17.500
  21906935.708   -11992442.355 7  -9344749.177 6        23.250          16.000
  21063013.505     2878331.887 7   2255766.391 6        26.250          17.250
  24104090.130    -1190140.025 5   -880071.792 5         9.750           7.250
  24181450.927    -2608018.702 5  -1950633.494 5        10.000           5.750
  24239564.317    -1389655.574 5  -1018299.742 5        10.000           6.500
 93  3 20 20 32 30.0010000  0  8G29G 2G19G27G18G28G11G16
  23488466.122    13845217.172 5  10788463.691 5        11.750           8.250
  23593092.481    -5180153.554 6  -3966773.530 5        12.000           8.750
  20989645.591    -1976056.214 6  -1539783.816 6        19.750          17.750
  21902523.130   -12015654.988 7  -9362836.937 6        23.250          16.000
  21068522.153     2907286.816 7   2278328.644 6        26.000          17.500
  24108243.224    -1168242.389 5   -863008.733 5        10.000           7.000
  24175966.271    -2636844.471 5  -1973095.081 5        10.000           5.750
  24235602.028    -1410464.439 5  -1034514.455 5         9.500           6.750
 93  3 20 20 32 45.0010000  0  8G29G 2G19G27G18G28G11G16
  23497941.646    13895035.143 5  10827282.794 5        11.250           8.250
  23585708.903    -5218967.083 6  -3997017.784 5        12.250           8.750
  20990673.927    -1970638.193 7  -1535561.988 6        20.000          17.750
  21898114.474   -12038820.932 7  -9380888.311 6        23.000          16.000
  21074053.411     2936351.751 7   2300976.616 6        26.000          17.500
  24112436.021    -1146205.707 5   -845837.324 5        10.000           7.000
  24170501.349    -2665574.339 5  -1995481.927 5        10.250           6.000
  24231671.677    -1431140.846 5  -1050625.953 5        10.500           6.500
 93  3 20 20 33  0.0010000  0  8G29G 2G19G27G18G28G11G16
  23507436.442    13944915.295 5  10866150.337 5        11.250           8.500
  23578337.075    -5257718.698 5  -4027213.803 5        11.750           8.500
  20991712.896    -1965164.045 6  -1531296.425 6        19.750          17.750
  21893713.739   -12061939.527 7  -9398902.786 6        23.000          16.250
  21079605.802     2965527.067 7   2323710.609 6        26.000          17.000
  24116656.669    -1124032.673 5   -828559.650 5        10.250           6.750
  24165051.138    -2694209.625 5  -2017795.083 5        10.000           6.000
  24227755.935    -1451685.263 5  -1066634.596 5         9.500           7.000
 93  3 20 20 33 15.0010000  0  8G29G 2G19G27G18G28G11G16
  23516940.771    13994851.726 5  10905061.753 5        11.250           8.250
  23570970.630    -5296416.189 6  -4057367.654 5        12.250           8.250
  20992765.489    -1959641.918 6  -1526993.477 6        19.500          17.750
  21889324.310   -12085013.895 7  -9416882.811 6        23.250          16.250
  21085176.919     2994810.920 7   2346529.166 6        26.500          17.500
  24120903.888    -1101726.672 5   -811178.380 5         9.750           7.000
  24159618.521    -2722753.674 5  -2040037.137 5         9.750           6.000
  24223875.958    -1472103.004 5  -1082544.527 5         9.750           7.000
 93  3 20 20 33 30.0010000  0  8G29G 2G19G27G18G28G11G16
  23526449.942    14044846.438 5  10944018.571 5        11.250           8.500
  23563614.880    -5335060.559 6  -4087480.100 5        12.750           8.750
  20993825.153    -1954073.858 6  -1522654.737 6        19.750          17.750
  21884939.271   -12108041.640 7  -9434826.497 6        23.250          16.250
  21090771.364     3024203.918 7   2369432.772 6        26.250          17.500
  24125169.075    -1079287.697 5   -793693.497 5         9.750           7.000
  24154201.849    -2751204.924 5  -2062206.876 5        10.000           6.000
  24220011.903    -1492393.977 5  -1098355.690 5         9.750           7.000
 93  3 20 20 33 45.0010000  0  8G29G 2G19G27G18G28G11G16
  23535979.591    14094898.521 5  10983020.094 5        11.250           8.500
  23556269.583    -5373655.193 6  -4117553.796 5        12.250           8.750
  20994895.036    -1948461.976 6  -1518281.849 6        19.500          17.750
  21880567.052   -12131024.811 7  -9452735.450 6        23.500          16.250
  21096386.950     3053701.339 7   2392417.743 6        26.500          17.500
  24129464.177    -1056719.058 5   -776107.574 5         9.500           7.000
  24148808.802    -2779565.774 5  -2084306.185 5        10.250           5.750
  24216178.411    -1512560.398 5  -1114069.794 5        10.250           7.000
 93  3 20 20 34  0.0010000  0  8G29G 2G19G27G18G28G11G16
  23545513.302    14145007.157 5  11022065.689 5        11.750           8.250
  23548938.169    -5412199.820 6  -4147588.524 5        12.500           8.750
  20995983.231    -1942809.424 6  -1513877.277 6        18.500          18.000
  21876201.997   -12153966.932 7  -9470612.420 6        23.250          16.500
  21102018.044     3083300.540 7   2415482.033 6        26.250          17.500
  24133780.771    -1034021.601 5   -758421.255 5        10.000           6.750
  24143424.005    -2807837.642 5  -2106336.166 5         9.500           5.750
  24212363.192    -1532604.508 5  -1129688.584 5        10.500           7.250
 93  3 20 20 34 15.0010000  0  8G29G 2G19G27G18G28G11G16
  23555060.341    14195178.351 5  11061160.029 5        11.500           8.500
  23541614.521    -5450688.736 6  -4177579.856 5        12.750           9.000
  20997053.208    -1937111.055 6  -1509436.996 6        19.500          17.750
  21871845.263   -12176863.927 7  -9488454.224 6        23.500          16.500
  21107671.692     3113005.530 7   2438628.743 6        26.250          17.500
  24138136.481    -1011188.795 5   -740629.490 5         9.500           7.000
  24138063.075    -2836014.357 5  -2128291.953 5         9.750           5.750
  24208575.481    -1552519.600 5  -1145206.845 5        10.000           7.250
 93  3 20 20 34 30.0010000  0  8G29G 2G19G27G18G28G11G16
  23564618.294    14245410.658 5  11100301.992 5        11.500           8.500
  23534303.958    -5489122.804 6  -4207528.431 5        13.000           9.000
  20998165.138    -1931366.603 6  -1504960.806 6        17.750          18.000
  21867494.450   -12199720.398 7  -9506264.448 6        23.250          16.500
  21113343.442     3142816.670 7   2461858.174 6        26.250          17.500
  24142505.028     -988223.851 5   -722734.755 5         9.250           7.000
  24132720.013    -2864096.807 5  -2150174.312 5         9.750           5.750
  24204809.747    -1572306.679 5  -1160625.361 5        10.250           7.000
 93  3 20 20 34 45.0010000  0  8G29G 2G19G27G18G28G11G16
  23574191.950    14295703.907 5  11139491.422 5        11.500           8.250
  23526993.458    -5527500.401 6  -4237433.006 5        12.750           8.750
  20999249.841    -1925576.669 6  -1500449.177 6        19.750          17.750
  21863154.114   -12222538.015 7  -9524044.402 6        23.500          16.500
  21119036.388     3172738.048 7   2485173.514 6        26.000          17.500
  24146896.872     -965126.116 5   -704736.541 5         9.250           7.000
  24127394.185    -2892084.311 5  -2171982.689 5        10.000           5.750
  24201064.200    -1591965.612 5  -1175943.994 5         9.250           7.000
 93  3 20 20 35  0.0010000  0  8G29G 2G19G27G18G28G11G16
  23583777.755    14346060.030 5  11178729.861 5        11.500           8.250
  23519708.575    -5565816.281 6  -4267289.490 5        12.750           8.750
  21000363.169    -1919738.151 6  -1495899.689 6        19.250          18.000
  21858819.442   -12245314.142 7  -9541792.026 6        23.500          16.500
  21124753.067     3202777.087 7   2508580.528 6        26.000          17.500
  24151318.396     -941888.795 5   -686629.553 5         9.250           6.750
  24122084.505    -2919972.691 5  -2193713.845 5        10.000           5.750
  24197345.896    -1611492.994 5  -1191160.159 5         9.250           6.750
 93  3 20 20 35 15.0010000  0  8G29G 2G19G27G18G28G11G16
  23593365.497    14396480.328 5  11218018.306 5        11.250           8.250
  23512426.591    -5604067.916 6  -4297095.919 5        12.750           8.750
  21001479.653    -1913849.452 6  -1491311.094 6        19.500          18.000
  21854493.146   -12268047.372 7  -9559506.221 6        23.500          16.750
  21130493.302     3232937.245 7   2532081.923 6        26.000          17.500
  24155767.724     -918511.535 5   -668413.523 5         9.250           6.750
  24116800.661    -2947760.611 5  -2215366.698 5        10.500           5.500
  24193658.450    -1630889.526 5  -1206274.342 5         9.250           6.750
 93  3 20 20 35 30.0010000  0  8G29G 2G19G27G18G28G11G16
  23602974.896    14446962.126 5  11257354.671 5        11.500           8.250
  23505154.263    -5642259.864 6  -4326855.827 5        12.500           8.750
  21002624.606    -1907913.757 6  -1486685.887 6        18.000          18.000
  21850172.536   -12290746.129 7  -9577193.548 6        23.750          16.750
  21136252.333     3263209.514 7   2555670.680 6        26.000          17.500
  24160240.521     -895004.810 5   -650096.604 5         9.250           6.750
  24111528.294    -2975454.217 5  -2236946.070 5        10.750           5.750
  24189990.286    -1650162.956 5  -1221292.592 5         9.500           6.750
 93  3 20 20 35 45.0010000  0  8G29G 2G19G27G18G28G11G16
  23612595.247    14497516.088 5  11296747.263 5        11.250           8.250
  23497904.021    -5680381.829 6  -4356561.213 5        12.500           8.750
  21003750.192    -1901917.191 6  -1482013.246 6        19.500          17.750
  21845862.153   -12313405.062 7  -9594849.848 6        23.500          16.500
  21142035.263     3293601.157 7   2579352.460 6        25.750          17.750
  24164737.161     -871363.525 5   -631674.844 5         9.250           6.750
  24106281.044    -3003045.388 5  -2258445.622 5        10.750           5.750
  24186350.567    -1669305.962 5  -1236209.248 5        10.000           6.750
 93  3 20 20 36  0.0010000  0  8G29G 2G19G27G18G28G11G16
  23622229.435    14548132.938 5  11336188.855 5        11.500           8.000
  23490660.200    -5718439.369 6  -4386216.397 5        12.500           8.750
  21004903.833    -1895867.060 6  -1477298.863 6        19.750          17.750
  21841554.927   -12336033.797 7  -9612482.622 6        23.250          16.750
  21147841.872     3324108.895 7   2603124.694 6        26.000          17.500
  24169260.185     -847595.555 5   -613154.351 5         9.250           6.750
  24101046.677    -3030541.422 5  -2279871.036 5        10.500           5.750
  24182727.560    -1688325.488 5  -1251029.655 5         9.750           6.750
 93  3 20 20 36 15.0010000  0  8G29G 2G19G27G18G28G11G16
  23631868.333    14598803.378 5  11375672.220 5        11.000           8.000
  23483428.411    -5756440.959 6  -4415827.979 5        12.500           8.750
  21006061.497    -1889770.511 6  -1472548.312 6        19.500          17.750
  21837253.942   -12358639.201 7  -9630097.202 6        23.500          16.750
  21153669.021     3354729.292 7   2626984.716 6        26.000          17.750
  24173809.763     -823707.490 5   -594540.298 5         9.500           6.750
  24095833.106    -3057948.662 5  -2301227.259 5        10.250           6.000
  24179129.888    -1707229.731 5  -1265760.239 5        10.000           6.750
 93  3 20 20 36 30.0010000  0  8G29G 2G19G27G18G28G11G16
  23641519.646    14649529.226 5  11415198.745 5        11.000           8.000
  23476210.247    -5794388.115 6  -4445397.154 5        12.500           9.000
  21007244.036    -1883623.518 6  -1467758.460 6        18.250          17.750
  21832957.739   -12381218.249 7  -9647691.259 6        23.500          16.750
  21159517.778     3385466.985 7   2650936.137 6        26.000          17.500
  24178376.528     -799699.691 5   -575832.929 5         9.500           6.750
  24090632.794    -3085265.026 5  -2322512.675 5        10.000           6.000
  24175557.052    -1726016.314 5  -1280399.152 5        10.000           6.750
 93  3 20 20 36 45.0010000  0  8G29G 2G19G27G18G28G11G16
  23651187.466    14700319.807 5  11454775.714 5        10.750           7.750
  23469001.075    -5832275.737 6  -4474919.931 5        12.250           9.000
  21008412.497    -1877422.578 6  -1462926.566 6        19.750          17.750
  21828667.153   -12403763.853 7  -9665259.244 6        23.750          16.750
  21165390.958     3416328.263 7   2674983.863 6        26.000          17.750
  24182966.099     -775568.139 5   -557029.127 5         9.250           6.750
  24085455.372    -3112484.957 5  -2343722.934 5         9.750           6.000
  24172003.036    -1744680.677 5  -1294942.808 5        10.000           7.000
 93  3 20 20 37  0.0010000  0  8G29G 2G19G27G18G28G11G16
  23660865.872    14751178.161 5  11494405.500 5        10.750           7.750
  23461800.083    -5870101.200 6  -4504394.263 5        12.250           9.000
  21009605.036    -1871167.289 6  -1458052.321 6        19.500          17.750
  21824383.802   -12426269.572 7  -9682796.151 6        23.500          16.750
  21171288.903     3447315.416 7   2699129.674 6        26.250          17.750
  24187589.302     -751310.999 5   -538127.477 5         9.750           7.000
  24080292.325    -3139604.359 5  -2364854.854 5         9.750           6.250
  24168475.958    -1763218.271 5  -1309387.694 5        10.000           7.000
 93  3 20 20 37 15.0010000  0  8G29G 2G19G27G18G28G11G16
  23670558.208    14802106.833 5  11534090.076 5        11.000           7.750
  23454615.099    -5907864.327 6  -4533820.025 5        12.500           9.250
  21010804.153    -1864855.494 6  -1453134.051 6        19.750          17.750
  21820108.763   -12448732.404 7  -9700299.646 6        23.250          16.750
  21177208.450     3478425.655 7   2723371.386 6        26.000          17.500
  24192218.935     -726930.753 5   -519129.889 5         9.500           7.000
  24075151.356    -3166622.084 5  -2385907.559 5        10.000           6.250
  24164970.231    -1781627.077 5  -1323732.218 5         9.500           7.000
 93  3 20 20 37 30.0010000  0  8G29G 2G19G27G18G28G11G16
  23680257.997    14853109.479 5  11573832.286 5        10.500           7.750
  23447439.239    -5945561.508 6  -4563194.407 5        12.500           9.500
  21012017.364    -1858483.356 6  -1448168.758 6        19.250          17.750
  21815844.872   -12471148.006 7  -9717766.339 6        23.500          17.000
  21183151.505     3509659.830 7   2747709.670 6        26.250          17.500
  24196891.231     -702424.083 5   -500033.798 5         9.500           7.000
  24070029.177    -3193533.069 5  -2406877.083 5        10.000           6.250
  24161496.497    -1799901.581 5  -1337972.095 5        10.250           7.000
 93  3 20 20 37 45.0010000  0  8G29G 2G19G27G18G28G11G16
  23689980.427    14904174.719 5  11613623.262 5        10.750           7.500
  23440281.356    -5983204.337 6  -4592526.441 5        12.250           9.250
  21013238.731    -1852058.683 6  -1443162.532 6        19.500          18.000
  21811585.458   -12493526.947 7  -9735204.468 6        24.000          17.000
  21189114.888     3541007.349 7   2772136.279 6        26.250          17.250
  24201575.575     -677799.272 5   -480845.658 5         9.500           6.750
  24064928.669    -3220346.979 5  -2427770.971 5        10.250           6.000
  24158042.153    -1818050.398 5  -1352114.041 5        10.000           7.000
 93  3 20 20 38  0.0010000  0  8G29G 2G19G27G18G28G11G16
  23699703.286    14955296.010 5  11653457.930 5        10.500           7.500
  23433127.224    -6020796.240 6  -4621818.782 5        12.750           9.250
  21014472.060    -1845590.983 6  -1438122.774 6        19.250          17.750
  21807332.833   -12515870.618 7  -9752615.110 6        23.250          17.000
  21195102.216     3572465.515 7   2796649.110 6        26.500          17.500
  24206283.567     -653057.875 5   -461566.640 5         9.250           6.750
  24059843.583    -3247067.750 5  -2448592.287 5        10.750           6.250
  24154612.208    -1836074.765 5  -1366159.003 5        10.250           7.000
 93  3 20 20 38 15.0010000  0  8G29G 2G19G27G18G28G11G16
  23709452.677    15006506.137 5  11693361.810 5        10.500           7.500
  23425988.083    -6058301.007 6  -4651043.209 5        12.750           9.500
  21015715.247    -1839048.954 6  -1433025.092 6        19.500          17.750
  21803094.083   -12538141.109 7  -9769968.721 6        23.500          17.000
  21201114.849     3604065.211 7   2821272.225 6        26.500          17.250
  24211020.091     -628163.218 5   -442168.219 5         9.250           7.000
  24054782.864    -3273659.785 5  -2469313.274 5        10.750           6.000
  24151213.380    -1853940.299 5  -1380080.210 5        10.250           7.000
 93  3 20 20 38 30.0010000  0  8G29G 2G19G27G18G28G11G16
  23719213.810    15057799.988 5  11733330.932 5        10.250           7.500
  23418867.380    -6095724.696 6  -4680204.483 5        12.500           9.500
  21016975.169    -1832437.330 6  -1427873.188 6        19.250          17.750
  21798870.528   -12560342.032 7  -9787268.131 6        23.750          17.000
  21207154.106     3635795.961 7   2845997.458 6        26.500          17.250
  24215783.903     -603122.509 5   -422655.991 5         8.750           7.000
  24049748.521    -3300128.046 5  -2489937.839 5        10.750           6.000
  24147840.161    -1871652.498 5  -1393881.920 5        10.000           7.250
 93  3 20 20 38 45.0010000  0  8G29G 2G19G27G18G28G11G16
  23728987.528    15109158.390 5  11773350.347 5        10.500           7.250
  23411759.521    -6133080.442 6  -4709312.798 5        12.750           9.500
  21018240.786    -1825775.203 6  -1422681.927 6        19.750          17.750
  21794657.528   -12582492.408 7  -9804528.154 6        23.500          17.250
  21213214.075     3667636.082 7   2870807.918 6        26.500          17.500
  24220569.497     -577953.346 5   -403043.673 5         8.750           6.750
  24044728.364    -3326489.414 5  -2510479.106 5        10.750           6.000
  24144495.810    -1889227.501 5  -1407576.736 5        10.250           7.250
 93  3 20 20 39  0.0010000  0  8G29G 2G19G27G18G28G11G16
  23738772.489    15160573.298 5  11813413.803 5        10.500           7.250
  23404661.591    -6170368.687 6  -4738368.529 5        12.750           9.500
  21019518.981    -1819067.366 6  -1417455.051 6        19.250          17.750
  21790448.489   -12604597.164 7  -9821752.619 6        23.750          17.000
  21219291.497     3699580.173 7   2895699.391 6        26.000          17.500
  24225389.419     -552657.013 5   -383332.254 5         8.750           7.000
  24039732.044    -3352746.815 5  -2530939.350 5        10.750           5.750
  24141181.013    -1906667.723 5  -1421166.530 5        10.000           7.250
 93  3 20 20 39 15.0010000  0  8G29G 2G19G27G18G28G11G16
  23748561.114    15212030.238 5  11853510.002 5        10.500           7.250
  23397580.239    -6207599.284 6  -4767379.335 5        13.000           9.500
  21020799.302    -1812322.589 6  -1412199.388 6        19.500          17.750
  21786248.849   -12626669.320 7  -9838951.688 6        23.500          17.250
  21225388.942     3731617.455 7   2920663.484 6        26.250          17.500
  24230222.536     -527242.363 5   -363528.652 5         9.250           7.000
  24034757.856    -3378910.389 5  -2551326.499 5        10.750           6.000
  24137887.192    -1923984.649 5  -1434660.237 5        10.250           7.250
 93  3 20 20 39 30.0010000  0  8G29G 2G19G27G18G28G11G16
  23758366.388    15263532.376 5  11893641.424 5        10.500           7.250
  23390506.388    -6244771.490 6  -4796344.628 5        13.250           9.500
  21022094.708    -1805534.961 6  -1406910.338 6        19.000          17.500
  21782056.544   -12648705.578 7  -9856122.786 6        23.750          17.250
  21231502.880     3763753.559 7   2945704.578 6        26.250          17.500
  24235081.919     -501705.583 5   -343629.868 5         9.250           7.000
  24029791.919    -3404976.256 5  -2571637.501 5        10.500           6.000
  24134618.130    -1941173.198 5  -1448053.924 5        10.000           7.250
 93  3 20 20 39 45.0010000  0  8G29G 2G19G27G18G28G11G16
  23768171.497    15315075.210 5  11933804.554 5        10.500           7.000
  23383441.005    -6281889.788 6  -4825267.927 5        13.250           9.500
  21023391.169    -1798708.751 6  -1401591.223 6        19.500          17.500
  21777871.349   -12670710.136 7  -9873269.183 6        23.750          17.250
  21237637.388     3795986.418 7   2970821.063 6        26.250          17.750
  24239964.677     -476049.461 5   -323638.102 5         9.250           7.000
  24024854.021    -3430947.623 5  -2591874.873 5        10.500           6.000
  24131368.028    -1958236.811 5  -1461350.254 5         9.750           7.500
 93  3 20 20 40  0.0010000  0  8G29G 2G19G27G18G28G11G16
  23777990.575    15366665.973 5  11974005.031 5        10.500           7.000
  23376385.739    -6318946.642 6  -4854143.342 5        13.250           9.500
  21024701.997    -1791837.278 6  -1396236.838 6        19.250          17.500
  21773689.364   -12692676.920 7  -9890386.140 6        23.750          17.250
  21243790.864     3828321.808 7   2996017.438 6        26.250          17.750
  24244870.505     -450268.655 5   -303549.179 5         9.500           7.000
  24019929.341    -3456818.232 5  -2612033.735 5        10.750           6.000
  24128144.794    -1975170.526 5  -1474545.353 5        10.000           7.250
 93  3 20 20 40 15.0010000  0  8G29G 2G19G27G18G28G11G16
  23787815.692    15418304.164 5  12014242.465 5        10.500           6.750
  23369346.669    -6355943.538 6  -4882972.039 5        13.500           9.250
  21026014.122    -1784922.809 6  -1390848.943 6        19.750          17.750
  21769515.513   -12714607.958 7  -9907475.247 6        23.750          17.250
  21249961.731     3860755.545 7   3021290.451 6        26.000          17.500
  24249801.536     -424363.442 5   -283363.325 5         9.500           7.250
  24015023.794    -3482589.660 5  -2632115.304 5        11.000           6.250
  24124944.810    -1991977.830 5  -1487641.957 5        10.000           7.500
 93  3 20 20 40 30.0010000  0  8G29G 2G19G27G18G28G11G16
  23797648.513    15469991.341 5  12054518.071 5        10.500           7.000
  23362319.052    -6392881.894 6  -4911755.121 5        13.500           9.250
  21027352.888    -1777961.060 6  -1385424.213 6        18.500          17.500
  21765349.458   -12736504.589 7  -9924537.543 6        23.750          17.500
  21256153.138     3893288.373 7   3046640.679 6        25.750          17.500
  24254752.044     -398332.746 5   -263079.673 5         9.750           7.250
  24010139.263    -3508261.261 5  -2652119.092 5        10.750           6.250
  24121770.622    -2008660.402 5  -1500641.368 5         9.750           7.250
 93  3 20 20 40 45.0010000  0  8G29G 2G19G27G18G28G11G16
  23807497.075    15521732.896 5  12094836.047 5        10.500           6.750
  23355300.599    -6429757.713 6  -4940489.471 5        13.500           9.250
  21028672.903    -1770947.592 6  -1379959.188 6        19.500          17.750
  21761188.325   -12758363.795 7  -9941570.677 6        23.750          17.500
  21262364.552     3925928.372 7   3072074.412 6        25.500          17.500
  24259733.419     -372172.769 5   -242695.303 5        10.000           7.000
  24005273.942    -3533829.417 5  -2672042.289 5        11.000           6.250
  24118621.153    -2025214.079 5  -1513540.354 5        10.250           7.250
 93  3 20 20 41  0.0010000  0  8G29G 2G19G27G18G28G11G16
  23817353.263    15573529.294 5  12135196.773 5        10.750           6.750
  23348299.966    -6466570.487 6  -4969174.693 5        13.250           9.500
  21030023.122    -1763885.467 6  -1374456.242 6        19.250          17.750
  21757035.833   -12780187.517 7  -9958576.160 6        23.500          17.500
  21268595.606     3958676.521 7   3097592.419 6        25.750          17.500
  24264736.177     -345882.085 5   -222209.073 5         9.500           7.250
  24000426.200    -3559295.728 5  -2691886.116 5        11.250           6.500
  24115496.583    -2041639.823 5  -1526339.637 5        10.250           7.500
 93  3 20 20 41 15.0010000  0  8G29G 2G19G27G18G28G11G16
  23827224.528    15625384.910 5  12175603.622 5        10.500           6.750
  23341303.763    -6503322.687 6  -4997812.711 5        13.250           9.500
  21031371.856    -1756772.946 6  -1368914.027 6        19.500          17.750
  21752890.200   -12801974.936 7  -9975553.357 6        23.500          17.500
  21274848.427     3991535.208 7   3123196.565 6        25.500          17.750
  24269764.911     -319462.468 5   -201622.375 5        10.000           7.250
  23995602.903    -3584660.277 5  -2711650.659 5        11.250           6.500
  24112395.067    -2057939.545 5  -1539040.727 5        10.000           7.250
 93  3 20 20 41 30.0010000  0  8G29G 2G19G27G18G28G11G16
  23837104.036    15677301.724 5  12216058.157 5        10.250           7.000
  23334319.247    -6540018.096 6  -5026406.486 5        13.250           9.500
  21032735.200    -1749609.372 6  -1363332.029 6        19.750          17.750
  21748748.388   -12823724.641 7  -9992501.168 6        23.750          17.500
  21281121.919     4024503.140 7   3148885.828 6        25.500          17.750
  24274814.864     -292916.681 5   -180937.374 5         9.750           7.250
  23990793.833    -3609924.609 5  -2731337.122 5        11.500           6.500
  24109314.060    -2074115.121 5  -1551645.087 5        10.000           7.250
 93  3 20 20 41 45.0010000  0  8G29G 2G19G27G18G28G11G16
  23846995.013    15729285.604 5  12256564.953 5        10.000           7.500
  23327347.536    -6576648.431 6  -5054949.543 5        13.750           9.750
  21034107.263    -1742390.099 6  -1357706.633 6        19.250          17.750
  21744621.825   -12845430.743 7 -10009415.000 6        24.000          17.500
  21287417.349     4057584.541 7   3174663.511 6        25.500          17.500
  24279891.271     -266239.226 5   -160149.772 5         9.750           7.500
  23986006.052    -3635082.863 5  -2750940.901 5        11.250           6.500
  24106264.903    -2090161.671 5  -1564148.905 5        10.250           7.500
 93  3 20 20 42  0.0010000  0  8G29G 2G19G27G18G28G11G16
  23856900.364    15781340.121 5  12297126.796 5        10.000           7.000
  23320393.638    -6613205.173 6  -5083435.257 5        13.500           9.750
  21035508.333    -1735111.401 6  -1352034.929 6        18.250          17.750
  21740500.356   -12867091.163 7 -10026293.235 6        24.000          17.500
  21293733.372     4090779.300 7   3200529.528 6        25.500          17.750
  24284991.708     -239425.123 5   -139255.681 5         9.500           7.250
  23981240.419    -3660131.264 5  -2770459.113 5        11.500           6.500
  24103233.724    -2106079.564 5  -1576552.470 5        10.250           7.250
 93  3 20 20 42 15.0010000  0  8G29G 2G19G27G18G28G11G16
  23866817.606    15833461.507 5  12337740.728 5        10.000           7.250
  23313447.817    -6649693.766 6  -5111867.870 5        13.750           9.750
  21036889.817    -1727777.839 6  -1346320.470 6        19.250          17.750
  21736383.310   -12888710.883 7 -10043139.756 6        23.750          17.500
  21300072.380     4124082.884 7   3226480.344 6        25.500          17.750
  24290116.021     -212479.238 5   -118258.909 5         9.250           7.500
  23976492.653    -3685074.842 5  -2789895.636 5        11.000           6.500
  24100229.356    -2121874.167 5  -1588859.950 5        10.250           7.250
 93  3 20 20 42 30.0010000  0  8G29G 2G19G27G18G28G11G16
  23876749.896    15885640.894 5  12378399.884 5        10.000           7.000
  23306519.091    -6686121.570 6  -5140253.116 5        13.750           9.750
  21038309.364    -1720396.063 6  -1340568.448 6        17.750          17.750
  21732277.942   -12910297.123 7 -10059960.192 6        24.000          17.500
  21306428.310     4157490.958 7   3252512.579 6        25.500          17.500
  24295271.622     -185408.854 5    -97165.120 5         9.750           7.500
  23971764.888    -3709919.341 5  -2809254.954 5        10.750           6.500
  24097241.169    -2137548.542 5  -1601073.773 5        10.000           7.250
 93  3 20 20 42 45.0010000  0  8G29G 2G19G27G18G28G11G16
  23886689.255    15937882.569 5  12419107.538 5        10.500           7.500
  23299597.966    -6722482.452 6  -5168586.219 5        13.750           9.750
  21039708.614    -1712960.984 6  -1334774.888 6        19.250          18.000
  21728176.396   -12931844.520 7 -10076750.362 6        24.000          17.750
  21312806.396     4191010.378 7   3278631.572 6        25.750          17.500
  24300449.146     -158213.425 5    -75973.879 5         9.500           7.750
  23967058.919    -3734658.566 5  -2828532.248 5        10.750           6.500
  24094285.989    -2153095.216 5  -1613188.076 5         9.750           7.250
 93  3 20 20 43  0.0010000  0  8G29G 2G19G27G18G28G11G16
  23896642.833    15990194.342 5  12459869.837 5        10.000           7.500
  23292690.646    -6758769.182 6  -5196861.539 5        13.750          10.000
  21041148.763    -1705465.218 6  -1328934.041 6        18.000          18.000
  21724085.185   -12953345.691 7 -10093504.505 6        23.750          17.500
  21319208.505     4224647.139 7   3304842.003 6        25.750          17.500
  24305650.216     -130883.806 5    -54678.091 5        10.000           7.750
  23962373.919    -3759283.647 5  -2847720.586 5        11.000           6.500
  24091352.169    -2168502.447 5  -1625193.726 5        10.000           7.250
 93  3 20 20 43 15.0010000  0  8G29G 2G19G27G18G28G11G16
  23906606.544    16042566.806 5  12500679.428 5         9.500           7.500
  23285801.271    -6794993.774 6  -5225088.438 5        14.000          10.000
  21042571.247    -1697916.385 6  -1323051.846 6        19.250          18.000
  21720000.036   -12974808.839 7 -10110229.025 6        24.000          17.500
  21325630.013     4258392.279 7   3331136.888 6        25.500          17.750
  24310873.638     -103428.367 5    -33284.250 5         9.750           7.500
  23957709.794    -3783801.569 5  -2866825.439 5        11.000           6.500
  24088447.802    -2183777.703 5  -1637096.540 5        10.250           7.500
 93  3 20 20 43 30.0010000  0  8G29G 2G19G27G18G28G11G16
  23916586.349    16094996.413 5  12541533.539 5         9.500           7.250
  23278916.685    -6831160.639 6  -5253270.349 5        14.000           9.750
  21044013.247    -1690316.878 6  -1317130.157 6        19.500          17.750
  21715922.974   -12996236.005 7 -10126925.503 6        24.000          17.500
  21332072.669     4292243.035 7   3357514.070 6        25.750          17.750
  24316120.833      -75850.994 5    -11795.405 5        10.250           7.750
  23953061.794    -3808214.201 5  -2885848.248 5        11.000           6.500
  24085566.052    -2198924.368 5  -1648899.149 5        10.000           7.250
 93  3 20 20 43 45.0010000  0  8G29G 2G19G27G18G28G11G16
  23926572.513    16147478.157 5  12582428.272 5         9.250           7.250
  23272046.294    -6867268.640 6  -5281406.407 5        14.000           9.750
  21045472.841    -1682668.499 6  -1311170.391 6        19.000          17.750
  21711852.708   -13017630.180 7 -10143596.278 6        24.000          17.500
  21338534.677     4326198.000 7   3383972.455 6        25.750          17.750
  24321390.778      -48151.842 5      9788.334 5         9.750           7.750
  23948433.685    -3832522.045 5  -2904789.404 5        11.250           6.500
  24082706.481    -2213941.370 5  -1660600.724 5        10.250           7.250
 93  3 20 20 44  0.0010000  0  8G29G 2G19G27G18G28G11G16
  23936572.067    16200019.185 5  12623369.202 5         9.250           7.000
  23265190.083    -6903307.612 6  -5309488.675 5        14.250           9.750
  21046948.685    -1674966.193 6  -1305168.600 6        18.250          18.000
  21707788.388   -13038986.062 7 -10160237.209 6        23.750          17.750
  21345015.911     4360265.124 7   3410518.235 6        25.750          18.000
  24326687.708      -20323.877 5     31472.459 5        10.000           7.750
  23943829.669    -3856716.286 5  -2923642.030 5        11.500           6.500
  24079876.153    -2228819.593 5  -1672194.152 5        10.000           7.250
 93  3 20 20 44 15.0010000  0  8G29G 2G19G27G18G28G11G16
  23946577.552    16252614.305 5  12664352.283 5         9.250           7.250
  23258342.692    -6939284.279 6  -5337522.385 5        14.000           9.750
  21048414.880    -1667213.458 6  -1299127.519 6        19.500          18.000
  21703730.794   -13060306.089 7 -10176850.204 6        24.000          17.750
  21351519.778     4394443.300 7   3437150.542 6        25.750          17.750
  24332005.521        7626.168 5     53251.706 5        10.000           7.750
  23939246.083    -3880801.516 5  -2942409.732 5        11.500           6.750
  24077069.310    -2243562.391 5  -1683682.067 5         9.750           7.250
 93  3 20 20 44 30.0010000  0  8G29G 2G19G27G18G28G11G16
  23956595.114    16305263.699 5  12705377.659 5         9.000           7.250
  23251506.856    -6975199.608 6  -5365508.312 5        14.250           9.750
  21049914.903    -1659410.463 6  -1293047.272 6        18.000          18.000
  21699682.388   -13081586.582 7 -10193432.395 6        23.750          17.750
  21358045.716     4428734.232 7   3463870.718 6        25.500          17.750
  24337350.630       35698.389 5     75126.152 5        10.250           7.750
  23934683.692    -3904776.056 5  -2961091.181 5        11.500           6.750
  24074294.208    -2258166.024 5  -1695061.535 5        10.000           7.500
 93  3 20 20 44 45.0010000  0  8G29G 2G19G27G18G28G11G16
  23966636.544    16357965.814 5  12746444.113 5         9.500           7.000
  23244682.841    -7011052.721 6  -5393445.752 5        14.250           9.750
  21051392.989    -1651557.279 6  -1286927.920 6        19.500          18.000
  21695639.419   -13102827.841 7 -10209984.011 6        23.750          17.750
  21364591.341     4463136.044 7   3490677.293 6        25.500          17.750
  24342712.614       63892.714 5     97095.757 5        10.250           7.750
  23930144.942    -3928638.813 5  -2979685.521 5        11.250           6.750
  24071543.153    -2272629.951 5  -1706332.139 5        10.250           7.500
 93  3 20 20 45  0.0010000  0  8G29G 2G19G27G18G28G11G16
  23976672.481    16410720.801 5  12787551.757 5         9.000           7.000
  23237875.989    -7046843.705 6  -5421334.786 5        14.500          10.000
  21052898.513    -1643656.104 6  -1280771.165 6        19.500          17.750
  21691606.036   -13124028.315 7 -10226503.847 6        23.750          17.500
  21371158.161     4497646.187 7   3517568.279 6        25.750          17.750
  24348101.833       92210.598 5    119161.627 5        10.000           7.750
  23925625.013    -3952390.519 5  -2998193.317 5        11.250           6.750
  24068814.724    -2286957.988 5  -1717496.854 5        10.000           7.500
 93  3 20 20 45 15.0010000  0  8G29G 2G19G27G18G28G11G16
  23986717.169    16463527.514 5  12828699.728 5         9.250           7.000
  23231074.888    -7082573.091 6  -5449175.816 5        14.000           9.750
  21054408.067    -1635708.155 6  -1274577.965 6        19.250          18.000
  21687578.396   -13145189.344 7 -10242992.944 6        23.250          17.750
  21377746.997     4532262.516 7   3544542.013 6        26.000          17.750
  24353514.599      120651.898 5    141323.674 5        10.500           7.750
  23921125.708    -3976033.020 5  -3016616.036 5        11.250           6.750
  24066109.653    -2301154.274 5  -1728558.907 5        10.000           7.250
 93  3 20 20 45 30.0010000  0  8G29G 2G19G27G18G28G11G16
  23996776.755    16516389.398 5  12869890.668 5         9.250           7.000
  23224290.013    -7118232.211 6  -5476962.087 5        14.500          10.000
  21055930.450    -1627709.336 6  -1268345.127 6        19.250          18.000
  21683559.146   -13166304.715 7 -10259446.468 6        23.500          17.750
  21384355.849     4566992.876 7   3571604.602 6        25.750          17.750
  24358947.169      149218.863 5    163583.651 5        10.250           7.750
  23916645.927    -3999561.033 5  -3034949.523 5        11.000           6.750
  24063436.880    -2315216.327 5  -1739516.358 5        10.000           7.250
 93  3 20 20 45 45.0010000  0  8G29G 2G19G27G18G28G11G16
  24006841.919    16569301.341 5  12911120.630 5         9.250           7.000
  23217516.919    -7153820.628 6  -5504693.273 5        14.500          10.000
  21057461.310    -1619661.452 6  -1262074.056 6        19.250          18.000
  21679549.864   -13187377.707 7 -10275866.968 6        23.500          17.750
  21390986.552     4601835.090 7   3598754.349 6        25.750          17.500
  24364410.731      177908.753 5    185939.401 5        10.000           7.750
  23912193.247    -4022977.216 5  -3053195.875 5        11.000           6.750
  24060784.771    -2329146.428 5  -1750370.995 5        10.250           7.500
 93  3 20 20 46  0.0010000  0  8G29G 2G19G27G18G28G11G16
  24016925.716    16622262.835 5  12952389.188 5         9.250           7.000
  23210758.302    -7189340.271 6  -5532370.874 5        14.750          10.250
  21059002.810    -1611565.581 6  -1255765.593 6        19.500          18.000
  21675545.981   -13208406.651 7 -10292253.146 6        23.750          17.750
  21397637.614     4636787.558 7   3625990.004 6        25.750          17.250
  24369887.638      206720.717 5    208390.281 5         9.750           7.750
  23907754.692    -4046281.704 5  -3071355.211 5        11.250           6.750
  24058159.716    -2342944.257 5  -1761122.569 5        10.250           7.500
 93  3 20 20 46 15.0010000  0  8G29G 2G19G27G18G28G11G16
  24027012.356    16675276.095 5  12993698.092 5         9.750           7.000
  23204011.638    -7224792.514 6  -5559995.952 5        14.750          10.250
  21060554.864    -1603420.260 6  -1249418.600 6        19.000          17.750
  21671557.231   -13229387.004 7 -10308601.471 6        23.750          17.750
  21404309.958     4671852.524 7   3653313.319 6        25.750          17.500
  24375399.716      235657.358 5    230938.307 5         9.750           7.750
  23903343.794    -4069472.462 5  -3089425.923 5        11.250           6.750
  24055562.966    -2356611.455 5  -1771772.342 5        10.250           7.500
 93  3 20 20 46 30.0010000  0  8G29G 2G19G27G18G28G11G16
  24037106.856    16728338.952 5  13035045.642 5         9.750           7.250
  23197275.521    -7260184.711 6  -5587574.240 5        15.000          10.250
  21062127.739    -1595227.690 6  -1243034.793 6        17.750          17.750
  21667572.435   -13250319.616 7 -10324912.582 6        23.500          17.750
  21411002.177     4707025.551 7   3680720.836 6        25.750          17.250
  24380924.966      264715.313 5    253580.869 5         9.500           7.750
  23898950.239    -4092552.538 5  -3107410.386 5        11.000           6.750
  24052981.239    -2370152.040 5  -1782323.455 5        10.000           7.250
 93  3 20 20 46 45.0010000  0  8G29G 2G19G27G18G28G11G16
  24047216.700    16781453.158 5  13076433.206 5        10.000           7.000
  23190552.278    -7295514.910 6  -5615104.221 5        15.000          10.250
  21063681.239    -1586986.501 6  -1236613.092 6        19.000          17.750
  21663597.591   -13271205.849 7 -10341187.558 6        23.250          17.750
  21417716.185     4742308.147 7   3708213.733 6        25.750          17.250
  24386477.950      293898.797 5    276321.236 5         9.250           7.750
  23894581.708    -4115518.848 5  -3125306.188 5        11.250           6.750
  24050431.731    -2383562.688 5  -1792773.326 5        10.500           7.500
 93  3 20 20 47  0.0010000  0  8G29G 2G19G27G18G28G11G16
  24057335.739    16834621.288 5  13117862.785 5         9.750           7.000
  23183844.466    -7330779.004 6  -5642582.687 5        15.000          10.250
  21065278.114    -1578694.562 6  -1230151.849 6        17.250          17.750
  21659631.708   -13292046.042 7 -10357426.663 6        23.500          17.750
  21424451.919     4777705.235 7   3735795.849 6        26.000          17.250
  24392058.646      323207.256 5    299158.989 5         9.250           7.500
  23890232.661    -4138369.987 5  -3143112.248 5        11.500           6.750
  24047901.411    -2396844.613 5  -1803122.892 5        10.000           7.250
 93  3 20 20 47 15.0010000  0  8G29G 2G19G27G18G28G11G16
  24067460.817    16887846.160 5  13159336.576 5         9.750           7.250
  23177144.356    -7365975.452 6  -5670008.448 5        15.000          10.250
  21066845.310    -1570350.167 6  -1223649.735 6        19.000          17.750
  21655675.638   -13312837.453 7 -10373627.755 6        23.500          17.750
  21431210.286     4813221.895 7   3763471.135 6        25.750          17.250
  24397660.974      352640.765 5    322094.186 5         9.500           7.750
  23885905.192    -4161104.538 5  -3160827.477 5        11.500           6.750
  24045399.919    -2409997.005 5  -1813371.514 5        10.250           7.250
 93  3 20 20 47 30.0010000  0  8G29G 2G19G27G18G28G11G16
  24077600.638    16941121.588 5  13200849.778 5         9.500           7.000
  23170462.091    -7401110.520 6  -5697386.378 5        15.250          10.250
  21068448.435    -1561956.565 6  -1217109.276 6        18.750          17.750
  21651726.974   -13333584.983 7 -10389794.646 6        23.500          17.750
  21437992.388     4848855.317 7   3791237.405 6        26.000          17.500
  24403286.216      382194.232 5    345122.854 5         9.500           7.750
  23881599.310    -4183726.824 5  -3178455.211 5        11.250           6.750
  24042914.825    -2423023.282 5  -1823521.873 5        10.250           7.500
 93  3 20 20 47 45.0010000  0  8G29G 2G19G27G18G28G11G16
  24087750.638    16994448.539 5  13242403.102 5         9.250           7.000
  23163786.247    -7436186.400 6  -5724718.184 5        15.250          10.250
  21070050.817    -1553514.004 6  -1210530.665 6        19.000          17.750
  21647786.521   -13354288.732 7 -10405927.433 6        23.250          17.750
  21444794.505     4884602.759 7   3819092.522 6        26.000          17.250
  24408930.138      411869.027 5    368246.072 5         9.500           7.750
  23877316.731    -4206236.214 5  -3195994.975 5        11.250           6.750
  24040464.856    -2435921.036 5  -1833572.082 5        10.500           7.500
 93  3 20 20 48  0.0010000  0  8G29G 2G19G27G18G28G11G16
  24097902.528    17047829.205 5  13283998.288 5         9.250           7.000
  23157122.294    -7471203.653 6  -5752004.307 5        15.500          10.250
  21071681.036    -1545021.042 6  -1203912.780 6        17.500          17.750
  21643856.333   -13374948.939 7 -10422026.283 6        23.500          17.750
  21451617.122     4920461.272 7   3847034.187 6        26.000          17.250
  24414601.481      441668.106 5    391466.135 5         9.250           7.750
  23873059.310    -4228631.300 5  -3213445.659 5        11.500           6.750
  24038037.294    -2448689.889 5  -1843521.849 5        10.250           7.500
 93  3 20 20 48 15.0010000  0  8G29G 2G19G27G18G28G11G16
  24108080.036    17101266.918 5  13325637.923 5         9.000           7.250
  23150466.435    -7506159.840 6  -5779242.856 5        15.250          10.250
  21073290.536    -1536476.485 6  -1197254.690 6        19.000          17.500
  21639932.778   -13395565.916 7 -10438091.448 6        23.750          17.750
  21458461.536     4956430.241 7   3875061.923 6        26.000          17.250
  24420298.083      471591.842 5    414783.314 5         9.250           7.750
  23868820.169    -4250911.491 5  -3230806.833 5        11.500           6.750
  24035629.560    -2461330.813 5  -1853371.937 5        10.000           7.500
 93  3 20 20 48 30.0010000  0  8G29G 2G19G27G18G28G11G16
  24118249.560    17154763.888 5  13367323.734 5         8.500           7.000
  23143827.974    -7541048.361 6  -5806428.677 5        15.250          10.250
  21074932.067    -1527873.204 6  -1190550.842 6        19.000          17.750
  21636018.575   -13416137.980 7 -10454121.623 6        23.500          17.750
  21465328.911     4992511.396 7   3903177.076 6        26.250          17.250
  24426015.841      501642.357 5    438199.298 5         9.250           7.750
  23864598.528    -4273073.546 5  -3248075.937 5        11.500           7.000
  24033250.841    -2473840.022 5  -1863119.375 5        10.250           7.500
 93  3 20 20 48 45.0010000  0  8G29G 2G19G27G18G28G11G16
  24128448.427    17208314.821 5  13409051.593 5         8.750           7.000
  23137204.474    -7575868.210 6  -5833560.978 5        15.500          10.250
  21076578.341    -1519215.847 6  -1183804.860 6        19.000          17.750
  21632109.536   -13436672.221 7 -10470122.314 6        23.250          17.750
  21472215.919     5028698.749 7   3931374.978 6        26.000          17.000
  24431758.044      531813.594 5    461709.343 5         9.500           7.750
  23860401.997    -4295122.069 5  -3265256.583 5        11.500           7.000
  24030893.067    -2486218.473 5  -1872764.927 5        10.250           7.250
 93  3 20 20 49  0.0010000  0  8G29G 2G19G27G18G28G11G16
  24138649.872    17261923.629 5  13450824.545 5         8.750           6.750
  23130593.771    -7610607.045 6  -5860630.160 5        16.000          10.500
  21078245.919    -1510498.205 6  -1177011.897 6        17.750          17.750
  21628210.083   -13457162.912 7 -10486089.076 6        23.250          18.000
  21479122.552     5064997.349 7   3959659.568 6        26.000          17.000
  24437520.021      562111.001 5    485317.705 5         8.750           7.750
  23856233.677    -4317050.822 5  -3282343.881 5        11.750           7.000
  24028567.536    -2498460.147 5  -1882303.905 5        10.500           7.500
 93  3 20 20 49 15.0010000  0  8G29G 2G19G27G18G28G11G16
  24148859.708    17315586.125 5  13492639.337 5         8.500           6.750
  23123995.052    -7645270.919 6  -5887640.933 5        16.000          10.500
  21079904.786    -1501725.375 6  -1170175.932 6        19.000          17.750
  21624319.021   -13477609.788 7 -10502021.694 6        23.250          17.750
  21486049.856     5101400.370 7   3988025.529 6        26.000          17.000
  24443305.716      592529.198 5    509020.185 5         8.750           7.750
  23852079.450    -4338864.812 5  -3299341.771 5        11.750           7.250
  24026259.380    -2510569.585 5  -1891739.846 5        10.250           7.250
 93  3 20 20 49 30.0010000  0  8G29G 2G19G27G18G28G11G16
  24159082.880    17369303.019 5  13534496.508 5         8.500           6.750
  23117413.052    -7679860.293 6  -5914593.644 5        15.750          10.500
  21081589.513    -1492895.011 6  -1163295.134 6        18.750          17.750
  21620438.544   -13498011.647 7 -10517919.230 6        23.500          17.750
  21492997.286     5137904.294 7   4016470.108 6        25.750          17.000
  24449123.052      623073.440 5    532820.878 5         9.000           7.750
  23847953.231    -4360561.214 5  -3316248.016 5        11.750           7.250
  24023985.388    -2522540.883 5  -1901068.136 5        10.250           7.250
 93  3 20 20 49 45.0010000  0  8G29G 2G19G27G18G28G11G16
  24169312.310    17423077.821 5  13576398.806 5         8.500           6.500
  23110843.606    -7714369.971 6  -5941484.258 5        15.750          10.500
  21083276.825    -1484005.027 6  -1156367.883 6        19.000          17.750
  21616566.317   -13518367.051 7 -10533780.570 6        23.500          17.750
  21499962.294     5174510.264 7   4044994.204 6        25.750          17.000
  24454957.036      653747.481 5    556722.719 5         9.000           7.750
  23843845.919    -4382134.629 5  -3333058.449 5        11.750           7.250
  24021732.130    -2534369.216 5  -1910285.022 5        10.750           7.250
 93  3 20 20 50  0.0010000  0  8G29G 2G19G27G18G28G11G16
  24179561.138    17476899.981 5  13618338.007 5         8.500           6.500
  23104296.271    -7748806.042 6  -5968317.519 5        16.000          10.750
  21084982.231    -1475064.166 6  -1149400.982 6        18.750          17.750
  21612697.778   -13538685.460 7 -10549613.090 6        23.750          17.750
  21506946.122     5211208.594 7   4073590.269 6        26.000          17.000
  24460815.833      684538.625 5    580715.796 5         8.750           7.750
  23839760.489    -4403593.834 6  -3349779.866 5        12.000           7.250
  24019506.731    -2546063.850 5  -1919397.736 5        10.500           7.250
 93  3 20 20 50 15.0010000  0  8G29G 2G19G27G18G28G11G16
  24189811.310    17530766.039 5  13660311.411 5         8.750           6.250
  23097756.505    -7783169.970 6  -5995094.565 5        15.750          10.750
  21086691.536    -1466073.417 6  -1142395.218 6        19.000          18.000
  21608836.942   -13558965.265 7 -10565415.523 6        23.750          18.000
  21513947.278     5247999.337 7   4102258.349 6        25.750          17.000
  24466701.997      715441.814 5    604796.193 5         9.000           7.500
  23835700.536    -4424940.225 6  -3366413.392 5        12.250           7.250
  24017304.169    -2557624.774 5  -1928406.250 5        10.250           7.250
 93  3 20 20 50 30.0010000  0  8G29G 2G19G27G18G28G11G16
  24200066.239    17584679.193 5  13702321.525 5         8.500           6.250
  23091229.583    -7817457.592 6  -6021812.151 5        15.750          10.500
  21088414.021    -1457029.344 6  -1135347.892 6        18.500          17.750
  21604990.013   -13579199.760 7 -10581182.655 6        24.000          18.000
  21520966.599     5284888.406 7   4131003.047 6        25.750          17.000
  24472598.294      746457.718 5    628964.415 5         8.750           7.500
  23831663.583    -4446168.196 6  -3382954.628 5        12.250           7.250
  24015134.083    -2569044.923 5  -1937305.083 5        10.500           7.250
 93  3 20 20 50 45.0010000  0  8G29G 2G19G27G18G28G11G16
  24210336.786    17638639.650 5  13744368.491 5         8.250           6.000
  23084715.724    -7851671.972 6  -6048472.668 5        15.500          10.750
  21090142.786    -1447932.346 6  -1128259.325 6        18.750          17.750
  21601148.177   -13599386.983 7 -10596912.946 6        24.250          18.000
  21528007.294     5321879.922 7   4159827.570 6        25.500          16.750
  24478527.380      777587.500 5    653221.358 5         9.000           7.500
  23827645.755    -4467274.914 6  -3399401.379 5        12.000           7.000
  24012984.528    -2580318.975 5  -1946090.057 5        10.250           7.250
 93  3 20 20 51  0.0010000  0  8G29G 2G19G27G18G28G11G16
  24220616.458    17692644.402 5  13786449.961 5         8.500           6.000
  23078222.833    -7885822.097 6  -6075083.111 5        16.000          10.750
  21091886.192    -1438788.497 6  -1121134.262 6        18.500          18.000
  21597312.177   -13619531.422 7 -10612609.899 6        24.000          18.000
  21535062.966     5358970.411 7   4188729.218 6        25.500          16.750
  24484467.513      808830.714 5    677566.706 5         9.000           7.250
  23823649.411    -4488264.070 6  -3415756.525 5        12.000           7.250
  24010867.966    -2591451.379 5  -1954764.665 5        10.500           7.250
 93  3 20 20 51 15.0010000  0  8G29G 2G19G27G18G28G11G16
  24230893.864    17746691.019 5  13828564.068 5         8.000           6.000
  23071734.216    -7919917.010 6  -6101650.532 5        15.750          10.750
  21093629.364    -1429599.900 6  -1113974.318 6        18.750          18.000
  21593489.114   -13639634.657 7 -10628274.747 6        24.000          18.250
  21542139.771     5396157.123 7   4217705.843 6        25.500          16.750
  24490437.708      840185.794 5    701999.214 5         9.000           7.250
  23819678.427    -4509138.213 6  -3432022.056 5        12.000           7.250
  24008779.396    -2602447.179 5  -1963332.825 5        10.500           7.250
 93  3 20 20 51 30.0010000  0  8G29G 2G19G27G18G28G11G16
  24241191.763    17800782.162 5  13870712.858 5         8.250           6.000
  23065254.153    -7953957.410 6  -6128175.479 5        15.750          10.750
  21095391.841    -1420363.595 6  -1106777.208 6        18.500          17.750
  21589671.817   -13659695.466 7 -10643906.532 6        24.000          18.000
  21549236.716     5433442.753 7   4246759.549 6        25.250          16.750
  24496430.724      871655.249 5    726520.847 5         8.750           6.750
  23815726.606    -4529894.016 6  -3448195.370 5        12.000           7.000
  24006712.341    -2613302.964 5  -1971791.883 5        10.750           7.000
 93  3 20 20 51 45.0010000  0  8G29G 2G19G27G18G28G11G16
  24251492.669    17854915.783 5  13912894.750 5         8.250           6.000
  23058785.380    -7987941.608 6  -6154656.630 5        15.750          10.750
  21097152.716    -1411082.595 6  -1099545.269 6        19.000          18.000
  21585861.356   -13679719.568 7 -10659509.716 6        24.000          18.000
  21556348.911     5470827.263 7   4275890.304 6        25.250          16.750
  24502435.083      903235.369 5    751128.713 5         8.750           7.000
  23811802.708    -4550533.847 6  -3464278.321 5        12.250           7.250
  24004670.989    -2624023.191 5  -1980145.317 5        10.750           7.000
 93  3 20 20 52  0.0010000  0  8G29G 2G19G27G18G28G11G16
  24261802.208    17909096.264 5  13955113.168 5         8.000           5.750
  23052333.239    -8021862.784 6  -6181088.674 5        16.000          11.000
  21098930.536    -1401751.386 6  -1092274.203 6        18.500          18.000
  21582058.216   -13699700.009 7 -10675078.880 6        24.000          18.000
  21563484.458     5508316.588 7   4305102.734 6        25.500          16.750
  24508463.247      934929.146 5    775825.139 5         8.500           6.750
  23807897.716    -4571053.905 6  -3480267.928 5        12.000           7.000
  24002659.388    -2634606.213 5  -1988391.840 5        10.750           7.000
 93  3 20 20 52 15.0010000  0  8G29G 2G19G27G18G28G11G16
  24272125.435    17963322.833 5  13997367.498 5         8.000           5.750
  23045889.802    -8055722.756 6  -6207473.028 5        16.000          11.000
  21100715.114    -1392369.046 6  -1084963.295 6        19.000          18.000
  21578264.817   -13719633.832 7 -10690611.712 6        24.000          18.250
  21570637.536     5545909.894 7   4334396.187 6        25.500          16.750
  24514516.958      966737.817 5    800611.097 5         8.250           6.500
  23804016.302    -4591455.215 6  -3496165.026 5        12.000           7.000
  24000670.036    -2645052.622 5  -1996531.893 5        10.500           7.000
 93  3 20 20 52 30.0010000  0  8G29G 2G19G27G18G28G11G16
  24282451.481    18017597.162 5  14039659.009 5         7.750           5.750
  23039460.341    -8089523.244 6  -6233811.040 5        16.250          11.000
  21102511.755    -1382937.318 6  -1077613.908 6        18.500          18.000
  21574479.005   -13739523.098 7 -10706109.836 6        24.250          18.250
  21577811.013     5583606.916 7   4363770.455 6        25.250          16.750
  24520595.856      998664.069 5    825488.675 5         8.250           6.250
  23800155.333    -4611738.395 6  -3511970.053 5        12.250           7.250
  23998707.224    -2655364.088 5  -2004566.808 5        10.500           7.000
 93  3 20 20 52 45.0010000  0  8G29G 2G19G27G18G28G11G16
  24292795.474    18071927.247 5  14081994.005 5         7.500           5.750
  23033037.974    -8123255.578 6  -6260095.931 5        16.250          11.000
  21104314.403    -1373448.428 6  -1070219.971 6        18.750          18.000
  21570704.169   -13759364.159 7 -10721570.391 6        24.250          18.250
  21585006.380     5621416.138 7   4393232.149 6        25.250          16.750
  24526693.286     1030718.147 5    850465.849 5         8.000           6.250
  23796319.052    -4631895.619 6  -3527676.936 5        12.250           7.250
  23996772.474    -2665534.817 5  -2012492.061 5        10.500           7.000
 93  3 20 20 53  0.0010000  0  8G29G 2G19G27G18G28G11G16
  24303138.622    18126310.295 4  14124370.248 5         7.250           5.750
  23026632.177    -8156921.240 6  -6286328.876 5        16.250          11.000
  21106143.669    -1363906.283 6  -1062784.539 6        17.750          18.000
  21566936.856   -13779160.819 7 -10736996.349 6        24.250          18.250
  21592221.841     5659332.195 7   4422777.092 6        25.250          16.750
  24532819.333     1062899.636 5    875542.316 5         7.750           6.000
  23792506.349    -4651931.131 6  -3543288.981 5        12.500           7.250
  23994862.372    -2675572.624 5  -2020313.727 5        10.500           7.000
 93  3 20 20 53 15.0010000  0  7G29G 2G19G27G18G11G16
  24313496.950    18180746.455 4  14166787.868 5         7.250           5.750
  23020240.856    -8190514.532 6  -6312505.429 5        16.250          11.000
  21107958.505    -1354312.160 6  -1055308.610 6        18.750          17.750
  21563178.528   -13798912.374 7 -10752387.159 6        24.500          18.250
  21599456.872     5697352.954 7   4452403.625 6        25.250          16.750
  23788720.403    -4671845.226 6  -3558806.422 5        12.250           7.250
  23992972.286    -2685481.225 5  -2028034.723 5        10.250           7.000
 93  3 20 20 53 30.0010000  0  7G29G 2G19G27G18G11G16
  24323867.153    18235227.824 4  14209240.723 5         7.000           5.750
  23013861.974    -8224037.966 6  -6338627.551 5        16.250          11.000
  21109797.013    -1344671.471 6  -1047796.387 6        18.500          17.750
  21559429.583   -13818623.017 7 -10767746.088 6        24.500          18.250
  21606709.724     5735471.777 7   4482106.568 6        25.000          16.750
  23784949.294    -4691644.428 6  -3574234.318 5        12.250           7.250
  23991114.544    -2695265.262 5  -2035658.656 5        10.750           7.000
 93  3 20 20 53 45.0010000  0  7G29G 2G19G27G18G11G16
  24334236.067    18289753.343 4  14251727.983 5         7.000           5.750
  23007494.021    -8257488.544 6  -6364692.894 5        16.250          11.000
  21111635.099    -1334984.772 6  -1040248.322 6        18.750          17.750
  21555685.114   -13838295.395 7 -10783075.199 6        24.500          18.250
  21613984.708     5773689.241 7   4511886.374 6        25.000          16.750
  23781199.677    -4711328.471 6  -3589572.539 5        12.500           7.250
  23989277.208    -2704924.870 5  -2043185.640 5        10.250           7.000
 93  3 20 20 54  0.0010000  0  7G29G 2G19G27G18G11G16
  24344627.052    18344327.105 4  14294252.838 5         7.000           5.750
  23001141.185    -8290862.499 6  -6390698.540 5        16.500          11.250
  21113489.958    -1325246.234 6  -1032659.858 6        19.000          17.750
  21551948.552   -13857922.802 7 -10798369.273 6        24.500          18.500
  21621274.458     5812009.792 7   4541746.510 6        25.000          16.750
  23777478.669    -4730891.307 6  -3604816.243 5        12.250           7.250
  23987462.208    -2714453.803 5  -2050610.768 5        10.500           7.000
 93  3 20 20 54 15.0010000  0  7G29G 2G19G27G18G11G16
  24355018.450    18398943.411 4  14336810.832 5         7.000           5.750
  22994806.528    -8324166.871 6  -6416649.958 5        16.500          11.250
  21115350.825    -1315456.125 6  -1025031.201 6        18.750          17.750
  21548222.763   -13877505.713 7 -10813628.666 6        24.750          18.500
  21628585.841     5850429.728 7   4571684.087 6        24.750          16.750
  23773780.872    -4750334.043 6  -3619966.376 5        12.500           7.000
  23985672.310    -2723852.341 5  -2057934.318 5        10.500           7.000
 93  3 20 20 54 30.0010000  0  7G29G 2G19G27G18G11G16
  24365424.638    18453600.711 4  14379400.774 5         7.000           5.750
  22988478.771    -8357405.893 6  -6442550.461 5        16.500          11.250
  21117239.060    -1305617.728 6  -1017364.924 6        17.500          17.750
  21544505.052   -13897050.522 7 -10828858.379 6        25.000          18.500
  21635915.935     5888949.018 7   4601699.083 6        24.750          16.750
  23770102.966    -4769657.827 6  -3635023.830 5        12.500           7.250
  23983910.841    -2733123.121 5  -2065158.305 5        10.500           6.750
 93  3 20 20 54 45.0010000  0  7G29G 2G19G27G18G11G16
  24375828.442    18508301.832 4  14422024.868 5         7.250           5.750
  22982167.802    -8390577.000 6  -6468398.040 5        16.750          11.250
  21119104.747    -1295730.670 6  -1009660.733 6        18.750          17.750
  21540791.403   -13916557.881 7 -10844058.904 6        24.750          18.250
  21643267.013     5927571.918 7   4631794.813 6        24.750          16.750
  23766445.067    -4788859.584 6  -3649986.197 5        12.500           7.000
  23982176.536    -2742264.100 5  -2072281.156 5        10.750           7.000
 93  3 20 20 55  0.0010000  0  7G29G 2G19G27G18G11G16
  24386245.724    18563043.668 4  14464680.677 5         7.250           5.750
  22975868.177    -8423683.044 6  -6494194.919 5        16.500          11.500
  21121009.794    -1285797.707 6  -1001920.765 6        17.750          17.750
  21537087.614   -13936025.996 7 -10859228.851 6        24.750          18.250
  21650633.755     5966296.384 7   4661969.689 6        24.750          16.750
  23762819.591    -4807941.191 6  -3664854.935 5        12.750           7.250
  23980459.450    -2751276.672 5  -2079303.940 5        10.750           7.000
 93  3 20 20 55 15.0010000  0  7G29G 2G19G27G18G11G16
  24396674.669    18617824.610 4  14507366.969 5         7.250           5.750
  22969581.880    -8456725.017 6  -6519941.874 5        16.500          11.500
  21122895.974    -1275819.109 6   -994145.243 6        19.000          17.750
  21533388.856   -13955453.579 7 -10874367.211 6        24.750          18.500
  21658022.544     6005122.217 7   4692223.547 6        24.500          16.750
  23759203.927    -4826903.041 6  -3679630.366 5        12.750           7.250
  23978765.817    -2760160.263 5  -2086226.242 5        10.250           7.000
 93  3 20 20 55 30.0010000  0  7G29G 2G19G27G18G11G16
  24407100.935    18672645.771 4  14550084.588 5         7.250           5.750
  22963306.403    -8489703.202 6  -6545639.126 5        16.500          11.500
  21124817.044    -1265789.457 6   -986329.939 6        17.750          17.750
  21529700.067   -13974837.428 7 -10889471.499 6        25.000          18.250
  21665433.239     6044053.872 7   4722559.870 6        24.500          16.750
  23755623.497    -4845742.097 6  -3694310.103 5        13.000           7.250
  23977098.872    -2768908.481 5  -2093043.017 5        10.250           7.000
 93  3 20 20 55 45.0010000  0  7G29G 2G19G27G18G11G16
  24417539.700    18727511.310 5  14592836.769 5         7.750           5.750
  22957040.505    -8522620.257 6  -6571288.750 5        16.250          11.500
  21126720.419    -1255707.470 6   -978473.849 6        18.750          18.000
  21526021.200   -13994176.756 7 -10904541.091 6        25.000          18.500
  21672861.583     6083094.839 7   4752981.357 6        24.500          17.000
  23752061.981    -4864455.935 6  -3708892.285 5        13.000           7.250
  23975461.153    -2777520.514 5  -2099753.704 5        10.250           7.000
 93  3 20 20 56  0.0010000  0  7G29G 2G19G27G18G11G16
  24427989.044    18782417.014 5  14635620.289 5         7.750           5.750
  22950789.075    -8555482.036 6  -6596895.290 5        16.250          11.500
  21128645.450    -1245582.331 6   -970584.135 6        19.250          18.000
  21522346.521   -14013476.570 7 -10919579.894 6        25.000          18.500
  21680309.724     6122241.635 7   4783485.314 6        24.500          17.000
  23748519.606    -4883049.040 6  -3723380.380 5        12.750           7.250
  23973848.544    -2786003.401 5  -2106363.749 5        10.500           7.000
 93  3 20 20 56 15.0010000  0  7G29G 2G19G27G18G11G16
  24438444.919    18837368.576 5  14678439.503 5         7.500           6.000
  22944545.333    -8588283.414 6  -6622454.775 5        16.750          11.500
  21130584.021    -1235410.252 6   -962657.851 6        18.750          17.750
  21518684.208   -14032729.109 7 -10934581.861 6        25.000          18.500
  21687779.208     6161498.458 7   4814075.009 6        24.250          17.000
  23745008.575    -4901516.682 6  -3737770.704 5        12.750           7.250
  23972259.661    -2794352.895 5  -2112869.851 5        10.500           7.000
 93  3 20 20 56 30.0010000  0  7G29G 2G19G27G18G11G16
  24448913.005    18892372.690 5  14721299.681 5         7.750           6.000
  22938317.942    -8621018.925 6  -6647962.929 5        16.750          11.750
  21132539.802    -1225190.467 6   -954694.387 6        17.750          17.750
  21515030.747   -14051931.847 7 -10949545.019 6        25.250          18.500
  21695272.583     6200870.568 7   4844754.536 6        24.500          17.000
  23741520.458    -4919856.272 6  -3752061.249 5        12.750           7.250
  23970693.669    -2802567.293 5  -2119270.687 5        10.750           7.000
 93  3 20 20 56 45.0010000  0  7G29G 2G19G27G18G11G16
  24459393.231    18947427.494 5  14764199.362 5         7.750           6.000
  22932099.489    -8653688.662 6  -6673419.825 5        16.500          11.750
  21134481.138    -1214928.165 6   -946697.796 6        18.500          17.750
  21511384.942   -14071088.563 7 -10964472.323 6        25.250          18.750
  21702787.981     6240353.306 7   4875520.268 6        24.500          16.750
  23738051.231    -4938071.630 6  -3766255.000 5        12.750           7.250
  23969156.880    -2810649.875 5  -2125568.811 5        10.500           7.000
 93  3 20 20 57  0.0010000  0  7G29G 2G19G27G18G11G16
  24469882.817    19002525.710 5  14807132.868 5         7.750           6.000
  22925895.692    -8686296.084 6  -6698828.171 5        16.750          11.750
  21136457.403    -1204626.854 6   -938670.805 6        17.250          17.750
  21507747.216   -14090201.025 7 -10979365.137 6        25.250          18.500
  21710319.286     6279938.440 7   4906365.791 6        24.250          16.750
  23734614.380    -4956167.870 6  -3780355.907 5        12.750           7.250
  23967641.271    -2818603.105 5  -2131766.136 5        11.000           7.000
 93  3 20 20 57 15.0010000  0  7G29G 2G19G27G18G11G16
  24480376.325    19057670.074 5  14850102.323 5         7.750           6.250
  22919704.114    -8718831.792 6  -6724180.639 5        16.500          11.750
  21138411.271    -1194276.333 6   -930605.471 6        18.500          17.750
  21504120.231   -14109263.562 7 -10994219.053 6        25.250          18.500
  21717871.864     6319629.055 7   4937293.507 6        24.000          16.750
  23731189.122    -4974139.120 6  -3794359.443 5        13.000           7.500
  23966157.755    -2826420.339 5  -2137857.496 5        11.750           7.000
 93  3 20 20 57 30.0010000  0  7G29G 2G19G27G18G11G16
  24490880.106    19112862.400 5  14893109.151 5         7.750           6.250
  22913526.521    -8751291.479 6  -6749473.861 5        16.500          11.750
  21140393.692    -1183872.772 6   -922498.806 6        18.750          17.750
  21500501.185   -14128277.036 7 -11009034.732 6        25.250          18.750
  21725445.591     6359425.419 7   4968303.627 6        24.000          16.500
  23727794.255    -4991981.814 6  -3808262.803 5        12.750           7.250
  23964698.231    -2834098.840 5  -2143840.751 5        11.250           7.000
 93  3 20 20 57 45.0010000  0  6G 2G19G27G18G11G16
  22907365.122    -8783672.761 6  -6774705.997 5        16.500          11.750
  21142381.169    -1173415.194 6   -914350.049 6        18.500          17.750
  21496893.935   -14147240.485 7 -11023811.435 6        25.250          18.750
  21733037.013     6399326.975 7   4999395.709 6        23.750          16.750
  23724425.021    -5009693.488 6  -3822064.072 5        12.750           7.500
  23963262.419    -2841638.167 5  -2149715.558 5        11.250           7.000
 93  3 20 20 58  0.0010000  0  6G 2G19G27G18G11G16
  22901214.372    -8815981.793 6  -6799881.826 5        16.750          11.750
  21144379.552    -1162913.915 6   -906167.239 6        19.000          17.750
  21493293.224   -14166162.869 7 -11038556.139 6        25.250          18.750
  21740648.997     6439323.515 7   5030561.814 6        23.750          16.750
  23721079.747    -5027281.978 6  -3835769.333 5        12.750           7.500
  23961852.833    -2849046.235 5  -2155488.097 5        11.000           7.000
 93  3 20 20 58 15.0010000  0  6G 2G19G27G18G11G16
  22895080.411    -8848207.757 6  -6824992.938 6        17.000          12.000
  21146389.231    -1152357.371 6   -897941.371 6        18.750          17.750
  21489703.403   -14185037.257 7 -11053263.442 6        25.250          18.750
  21748278.403     6479418.623 7   5061804.715 6        23.750          16.500
  23717758.825    -5044739.952 6  -3849372.900 5        12.750           7.500
  23960468.169    -2856312.337 5  -2161149.990 5        11.000           7.000
 93  3 20 20 58 30.0010000  0  6G 2G19G27G18G11G16
  22888968.130    -8880357.057 6  -6850044.300 5        16.750          11.750
  21148405.224    -1141747.535 6   -889673.974 6        18.750          17.750
  21486117.005   -14203873.299 7 -11067940.870 6        25.250          18.750
  21755925.692     6519605.321 7   5093118.988 6        23.750          16.500
  23714459.169    -5062073.589 6  -3862879.589 5        12.750           7.500
  23959113.372    -2863441.515 5  -2166705.200 5        11.000           7.000
 93  3 20 20 58 45.0010000  0  6G 2G19G27G18G11G16
  22882861.169    -8912432.824 6  -6875038.371 6        17.000          12.000
  21150436.622    -1131086.170 6   -881366.419 6        18.500          17.750
  21482539.802   -14222676.663 7 -11082592.835 6        25.500          18.750
  21763589.442     6559878.508 7   5124500.657 6        23.500          16.500
  23711179.255    -5079285.528 6  -3876291.442 5        13.000           7.750
  23957781.239    -2870434.924 5  -2172154.611 5        11.000           7.000
 93  3 20 20 59  0.0010000  0  6G 2G19G27G18G11G16
  22876772.481    -8944432.388 6  -6899973.064 6        17.000          12.000
  21152488.169    -1120368.674 6   -873015.133 6        17.250          17.750
  21478968.341   -14241445.683 7 -11097218.034 6        25.500          18.750
  21771271.161     6600237.954 7   5155949.538 6        23.750          16.500
  23707929.060    -5096373.135 6  -3889606.411 5        12.750           7.750
  23956476.153    -2877290.257 5  -2177496.440 5        11.000           7.000
 93  3 20 20 59 15.0010000  0  6G 2G19G27G18G11G16
  22870697.724    -8976349.520 6  -6924843.526 6        17.000          12.000
  21154527.481    -1109585.892 6   -864612.971 6        18.500          17.750
  21475402.481   -14260172.651 7 -11111810.465 6        25.500          18.750
  21778969.466     6640692.288 7   5187472.356 6        23.500          16.500
  23704702.302    -5113328.374 6  -3902818.241 5        13.000           7.750
  23955203.255    -2884000.101 5  -2182724.891 5        11.000           7.000
 93  3 20 20 59 30.0010000  0  6G 2G19G27G18G11G16
  22864641.099    -9008193.411 6  -6949656.914 6        17.500          12.000
  21156610.286    -1098748.065 6   -856167.919 6        16.500          17.750
  21471845.880   -14278864.115 7 -11126375.231 6        25.500          18.750
  21786684.849     6681236.890 7   5219065.514 6        23.750          16.500
  23701500.286    -5130156.989 6  -3915931.391 5        13.000           7.750
  23953947.083    -2890571.181 5  -2187845.228 5        10.750           7.000
 93  3 20 20 59 45.0010000  0  6G 2G19G27G18G11G16
  22858592.083    -9039971.429 6  -6974418.967 6        17.250          12.000
  21158660.599    -1087859.425 6   -847683.268 6        18.250          17.750
  21468298.513   -14297520.132 7 -11140912.369 6        25.500          18.750
  21794413.630     6721871.223 7   5250728.593 6        23.500          16.500
  23698324.864    -5146860.465 6  -3928947.047 5        12.750           7.750
  23952723.013    -2897005.948 5  -2192859.336 5        11.000           7.000
 93  3 20 21  0  0.0010000  0  6G 2G19G27G18G11G16
  22852558.185    -9071679.635 6  -6999126.625 6        17.500          12.250
  21160745.302    -1076915.542 6   -839155.581 6        18.000          17.750
  21464754.630   -14316135.259 7 -11155417.654 6        25.500          18.750
  21802166.192     6762598.859 7   5282464.383 6        23.500          16.250
  23695168.122    -5163434.412 6  -3941861.755 5        12.500           7.750
  23951528.302    -2903301.600 5  -2197765.049 5        10.750           7.000
 93  3 20 21  0 15.0010000  0  6G 2G19G27G18G11G16
  22846536.606    -9103314.507 6  -7023777.142 6        17.500          12.250
  21162836.911    -1065914.806 6   -830583.585 6        18.250          17.500
  21461220.091   -14334709.640 7 -11169891.188 6        25.750          18.750
  21809934.942     6803421.027 7   5314273.824 6        23.500          16.500
  23692039.489    -5179878.384 6  -3954675.199 5        12.500           7.750
  23950354.122    -2909457.868 5  -2202562.147 5        10.750           7.000
 93  3 20 21  0 30.0010000  0  6G 2G19G27G18G11G16
  22840532.091    -9134883.675 6  -7048376.461 6        17.750          12.250
  21164957.724    -1054862.049 6   -821971.056 6        16.750          17.500
  21457690.888   -14353250.360 7 -11184338.490 6        25.750          18.750
  21817719.771     6844334.151 7   5346154.147 6        23.500          16.500
  23688934.786    -5196197.979 6  -3967391.712 5        12.500           8.000
  23949210.310    -2915481.009 5  -2207255.497 5        10.750           7.000
 93  3 20 21  0 45.0010000  0  6G 2G19G27G18G11G16
  22834536.630    -9166385.923 6  -7072923.630 6        17.500          12.250
  21167052.442    -1043755.774 6   -813316.826 6        18.250          17.500
  21454171.192   -14371751.232 7 -11198754.744 6        25.750          19.000
  21825525.403     6885342.437 7   5378108.621 6        23.500          16.500
  23685847.880    -5212389.439 6  -3980008.385 5        12.250           8.000
  23948087.560    -2921368.711 5  -2211843.336 5        10.750           7.000
 93  3 20 21  1  0.0010000  0  6G 2G19G27G18G11G16
  22828556.083    -9197816.895 6  -7097415.259 6        17.500          12.250
  21169179.880    -1032593.792 6   -804619.185 6        18.250          17.750
  21450660.575   -14390203.732 7 -11213133.306 6        25.750          18.750
  21833346.380     6926451.333 7   5410141.489 6        23.500          16.250
  23682797.419    -5228448.079 6  -3992521.559 5        12.500           8.000
  23946990.528    -2927119.144 5  -2216324.182 5        10.750           7.000
 93  3 20 21  1 15.0010000  0  6G 2G19G27G18G11G16
  22822585.106    -9229177.612 6  -7121852.144 6        17.750          12.250
  21171317.497    -1021375.340 6   -795877.539 6        18.500          17.500
  21447157.435   -14408603.750 7 -11227470.968 6        25.750          18.750
  21841187.864     6967663.397 7   5442254.751 6        23.500          16.250
  23679766.606    -5244372.716 6  -4004930.319 5        13.000           8.000
  23945925.763    -2932732.891 5  -2220698.546 5        10.750           7.000
 93  3 20 21  1 30.0010000  0  6G 2G19G27G18G11G16
  22816633.278    -9260470.257 6  -7146235.987 6        17.750          12.500
  21173472.028    -1010104.654 6   -787095.197 6        17.000          17.750
  21443665.638   -14426951.647 7 -11241768.024 6        25.750          19.000
  21849050.685     7008978.855 7   5474448.581 6        23.500          16.250
  23676761.716    -5260164.039 6  -4017235.194 5        12.750           8.000
  23944883.911    -2938211.640 5  -2224967.705 5        10.750           7.250
 93  3 20 21  1 45.0010000  0  6G 2G19G27G18G11G16
  22810692.442    -9291694.030 6  -7170566.163 6        17.750          12.250
  21175617.216     -998782.479 6   -778272.728 6        18.250          17.750
  21440184.403   -14445249.259 7 -11256025.889 6        26.000          18.750
  21856930.060     7050396.228 7   5506721.826 6        23.500          16.250
  23673781.958    -5275822.353 6  -4029436.432 5        13.000           8.000
  23943863.231    -2943556.154 5  -2229132.261 5        11.000           7.000
 93  3 20 21  2  0.0010000  0  6G 2G19G27G18G11G16
  22804764.372    -9322848.695 6  -7194842.484 6        18.000          12.250
  21177781.903     -987410.939 6   -769411.799 6        18.000          17.500
  21436712.388   -14463502.088 7 -11270248.861 6        25.750          18.500
  21864832.692     7091911.712 7   5539071.517 6        23.250          16.000
  23670825.294    -5291352.286 6  -4041537.634 5        13.000           8.000
  23942874.981    -2948773.185 5  -2233197.501 5        10.750           7.250
 93  3 20 21  2 15.0010000  0  6G 2G19G27G18G11G16
  22798847.294    -9353924.539 6  -7219057.391 6        17.750          12.250
  21179949.333     -975984.806 6   -760508.326 6        18.250          17.500
  21433248.372   -14481703.428 7 -11284431.711 6        25.750          18.750
  21872754.419     7133533.262 7   5571503.859 6        23.750          16.000
  23667895.271    -5306748.038 6  -4053534.266 5        13.000           8.000
  23941904.856    -2953854.262 5  -2237156.767 5        10.750           7.250
 93  3 20 21  2 30.0010000  0  6G 2G19G27G18G11G16
  22792950.067    -9384926.634 6  -7243214.824 6        18.000          12.250
  21182137.716     -964505.256 6   -751563.227 6        17.750          17.500
  21429793.271   -14499853.327 7 -11298574.474 6        25.750          18.750
  21880691.489     7175261.961 7   5604019.701 6        23.250          15.750
  23664989.919    -5322010.543 6  -4065427.083 5        13.000           8.000
  23940965.817    -2958797.439 5  -2241008.595 5        10.750           7.000
 93  3 20 21  2 45.0010000  0  6G 2G19G27G18G11G16
  22787065.325    -9415855.176 6  -7267314.952 6        18.000          12.500
  21184328.036     -952972.429 6   -742576.616 6        18.250          17.500
  21426351.989   -14517945.653 7 -11312672.383 6        25.750          18.750
  21888652.567     7217098.332 7   5636619.433 6        23.500          16.000
  23662114.591    -5337136.871 6  -4077213.790 5        13.000           8.000
  23940049.638    -2963599.608 5  -2244750.545 5        10.500           7.250
 93  3 20 21  3  0.0010000  0  6G 2G19G27G18G11G16
  22781193.919    -9446705.672 6  -7291354.258 6        18.000          12.500
  21186536.786     -941385.201 6   -733547.618 6        17.750          17.500
  21422919.114   -14535976.280 7 -11326722.209 6        25.750          18.750
  21896634.567     7259044.838 7   5669304.973 6        23.250          16.000
  23659261.216    -5352124.250 6  -4088892.223 5        13.000           8.250
  23939166.591    -2968260.341 5  -2248382.303 5        11.000           7.500
 93  3 20 21  3 15.0010000  0  6G 2G19G27G18G11G16
  22775336.841    -9477483.787 6  -7315337.165 6        18.000          12.500
  21188746.724     -929749.450 6   -724480.805 6        18.250          17.500
  21419500.833   -14553954.100 7 -11340730.895 6        26.000          18.750
  21904640.942     7301094.340 7   5702070.790 6        23.500          15.750
  23656435.942    -5366978.516 6  -4100466.923 5        13.000           8.000
  23938303.411    -2972785.863 5  -2251908.684 5        10.750           7.250
 93  3 20 21  3 30.0010000  0  6G 2G19G27G18G11G16
  22769491.864    -9508185.702 6  -7339260.700 6        17.750          12.500
  21190975.528     -918061.589 6   -715373.396 6        18.000          17.750
  21416088.200   -14571879.934 7 -11354699.061 6        26.000          18.750
  21912659.896     7343248.887 7   5734918.455 6        23.500          15.750
  23653632.708    -5381697.031 6  -4111935.859 5        13.000           8.250
  23937470.583    -2977169.640 5  -2255324.623 5        10.750           7.250
 93  3 20 21  3 45.0010000  0  6G 2G19G27G18G11G16
  22763667.028    -9538811.578 6  -7363124.981 6        18.000          12.500
  21193206.146     -906325.032 6   -706228.029 6        18.500          17.750
  21412685.146   -14589758.254 7 -11368630.211 6        25.750          18.500
  21920701.966     7385504.765 7   5767845.075 6        23.750          15.750
  23650851.771    -5396282.137 6  -4123300.829 5        13.000           8.250
  23936660.731    -2981414.776 5  -2258632.518 5        10.500           7.250
 93  3 20 21  4  0.0010000  0  6G 2G19G27G18G11G16
  22757852.731    -9569357.795 6  -7386927.189 6        18.000          12.500
  21195451.778     -894531.768 6   -697038.482 6        17.750          17.500
  21409293.521   -14607582.530 7 -11382519.243 6        25.750          18.750
  21928763.263     7427864.601 7   5800852.699 6        23.500          15.750
  23648109.552    -5410729.486 6  -4134558.470 5        13.000           8.250
  23935880.646    -2985518.834 5  -2261830.492 5        10.500           7.250
 93  3 20 21  4 15.0010000  0  6G 2G19G27G18G11G16
  22752053.919    -9599824.811 6  -7410667.686 6        18.250          12.500
  21197704.981     -882680.555 6   -687803.779 6        18.250          17.500
  21405912.419   -14625347.831 7 -11396362.329 6        25.750          18.750
  21936843.817     7470328.932 7   5833941.750 6        23.750          15.750
  23645387.036    -5425036.769 6  -4145706.954 5        13.000           8.250
  23935126.911    -2989479.757 5  -2264916.931 5        10.500           7.500
 93  3 20 21  4 30.0010000  0  6G 2G19G27G18G11G16
  22746269.169    -9630222.923 6  -7434354.481 6        18.250          12.750
  21199974.325     -870778.484 6   -678529.445 6        17.750          17.500
  21402541.146   -14643061.700 7 -11410165.333 6        25.750          18.750
  21944943.005     7512888.185 7   5867104.769 6        23.750          15.500
  23642688.099    -5439211.081 6  -4156751.832 5        13.250           8.000
  23934400.817    -2993304.009 5  -2267896.865 5        10.500           7.250
 93  3 20 21  4 45.0010000  0  6G 2G19G27G18G11G16
  22740500.817    -9660547.337 6  -7457983.856 6        18.000          12.750
  21202245.981     -858818.984 6   -669210.357 6        18.250          17.500
  21399181.950   -14660722.107 7 -11423926.673 6        26.000          18.750
  21953059.505     7555543.914 7   5900342.963 6        23.750          15.500
  23640018.653    -5453245.977 6  -4167688.081 5        13.250           8.250
  23933699.146    -2996988.191 5  -2270767.673 5        10.500           7.500
